GFSMW_sfc_30mbdewp_000.txt.gz
Dewpoint
40 40 43 49 52 54 53 58 55 45 44 42 39 37 35 33 31 29 28 27 27 27 27 27 28 29 26 27 28 27 26 28 30 29 25 29 29 23 17 25 19 25 18
39 41 46 51 53 55 56 55 49 45 45 43 41 37 35 34 30 26 23 23 25 26 26 26 27 27 25 23 25 26 24 28 30 26 28 23 24 23 19 23 23 19 24
39 42 48 51 53 54 54 53 48 46 45 42 39 38 36 35 29 25 22 22 23 24 25 25 24 25 24 21 23 22 22 20 25 26 23 21 22 21 24 19 21 19 24
40 44 49 50 51 51 51 50 47 46 43 40 37 34 33 32 33 29 24 21 22 22 23 23 22 22 22 19 20 21 20 20 17 23 25 25 25 19 17 21 18 22 18
40 44 48 48 48 48 48 47 45 43 42 40 38 36 36 36 34 26 21 20 20 20 20 20 19 19 20 18 17 17 15 19 18 20 21 20 22 21 19 15 18 17 18
41 45 45 46 45 44 44 44 43 42 41 39 37 36 35 31 28 24 22 21 20 19 17 17 17 16 16 16 16 16 14 14 16 17 17 19 18 16 17 16 17 14 16
42 44 44 43 41 41 41 41 40 40 39 37 36 34 31 26 22 22 21 18 15 15 15 15 13 14 13 14 14 13 13 14 14 14 15 18 18 19 21 18 13 12 16
42 43 43 41 39 39 38 37 37 35 34 33 30 26 23 21 19 17 16 15 13 14 14 13 12 11 11 11 11 13 13 13 14 13 14 16 17 19 19 16 16 16 15
42 43 42 40 39 38 37 35 33 30 28 26 22 20 18 17 15 14 14 13 13 12 11 11 10 10 10 11 11 13 12 13 14 14 14 14 16 16 16 18 19 19 18
42 43 42 41 40 38 36 33 30 27 23 21 18 16 14 14 12 12 10 10 10 9 9 9 10 10 11 12 12 13 14 13 13 13 13 15 17 18 19 20 21 22 21
42 43 42 41 39 37 35 31 28 24 20 17 14 12 11 11 10 8 8 8 9 9 9 10 11 11 12 12 13 13 14 13 13 13 15 18 20 20 21 22 22 21 21
41 43 43 41 39 36 33 30 26 22 17 14 12 11 10 9 8 8 9 9 9 10 10 11 12 12 13 14 14 14 14 14 14 14 18 20 20 20 22 22 22 22 22
40 42 42 40 38 35 32 28 24 20 16 13 11 10 9 9 10 10 10 11 11 11 12 12 12 13 14 15 15 15 15 15 15 17 19 21 20 20 22 22 22 23 23
40 41 40 39 37 34 31 26 21 17 14 12 11 10 10 10 11 12 12 12 12 11 12 12 13 13 14 14 14 16 16 17 18 19 21 21 20 21 22 21 21 20 20
40 40 39 38 36 34 29 24 18 15 13 12 11 11 12 12 12 13 12 12 12 12 11 12 13 14 13 11 18 18 17 17 17 18 20 20 21 21 21 20 20 21 23
39 40 39 38 35 33 27 21 16 14 13 12 12 13 12 13 13 12 11 10 10 10 12 13 13 13 12 16 17 18 16 15 15 17 19 20 22 22 21 22 21 22 22
39 39 38 37 34 31 24 19 15 14 13 13 13 12 13 12 11 10 9 8 9 12 14 14 13 12 12 15 17 18 17 15 17 19 20 20 20 22 22 23 23 23 23
40 38 36 34 31 26 21 17 13 13 13 12 11 12 11 10 10 9 9 8 11 13 14 13 13 12 11 15 17 20 19 18 18 19 19 20 21 22 21 20 22 28 24
38 36 33 30 26 22 17 14 13 12 12 10 10 11 10 9 9 8 8 10 12 13 13 13 12 11 12 14 18 20 20 19 19 19 20 21 21 22 21 27 27 18 15
31 30 27 23 21 17 15 14 12 11 10 9 10 10 10 9 8 7 9 12 13 13 13 11 11 12 10 14 18 20 19 19 19 20 22 23 21 23 30 20 16 15 15
26 24 23 21 17 15 14 13 11 10 9 10 9 9 8 7 8 10 12 12 12 12 11 11 11 11 12 15 18 20 20 20 21 22 24 23 25 26 18 16 15 16 18
25 22 19 16 15 14 13 10 9 9 9 9 8 8 7 7 10 11 12 12 12 12 12 13 13 14 15 18 18 20 21 23 24 23 21 27 21 17 15 15 16 17 17
21 19 16 16 14 12 10 10 9 9 8 7 6 6 7 11 11 12 11 11 13 13 14 15 15 15 16 16 19 20 21 19 19 22 26 20 16 15 14 15 16 16 16
18 16 16 14 12 10 10 9 8 8 6 5 5 7 9 14 12 12 12 13 14 14 16 16 15 16 16 17 17 19 18 20 23 21 18 15 14 14 15 15 14 15 16
18 17 15 12 9 9 9 8 8 7 6 5 6 7 11 12 12 12 13 15 15 16 16 16 16 16 17 17 18 18 19 19 18 18 14 13 13 14 14 14 15 16 17
21 19 16 11 8 8 8 8 7 6 5 5 7 10 13 12 12 12 13 16 15 16 16 16 16 17 17 17 18 19 18 18 16 14 12 13 14 15 14 15 16 17 17

GFSMW_sfc_30mbdewp_003.txt.gz
Dewpoint
37 40 43 47 51 52 52 60 58 49 46 43 40 38 36 33 30 29 28 28 28 27 27 28 27 26 24 25 24 24 22 24 27 28 25 27 29 26 19 23 21 20 21
37 39 42 49 52 52 53 56 50 45 45 43 40 36 33 31 27 25 25 25 26 26 26 26 25 23 21 20 21 22 20 21 26 23 27 19 22 24 15 20 22 18 23
36 39 43 50 53 53 54 49 45 45 44 39 36 35 32 28 24 23 22 23 25 25 24 23 22 21 21 18 20 20 18 16 19 26 16 11 16 19 21 14 19 14 22
38 40 45 50 53 54 53 46 46 45 41 38 35 31 27 24 27 24 22 22 22 22 22 21 20 20 19 17 17 18 17 19 15 20 19 21 22 17 15 19 13 20 17
38 40 46 50 53 52 51 47 47 44 39 37 34 32 30 32 29 22 20 19 20 19 19 19 17 17 18 17 15 15 13 16 16 17 18 19 18 20 19 11 14 16 15
39 43 48 49 50 49 49 47 46 42 40 37 35 33 33 31 24 21 19 18 19 18 17 16 15 15 14 14 14 14 13 14 14 14 15 16 16 15 15 15 14 13 11
40 44 47 48 48 48 47 46 44 42 39 37 36 35 34 29 24 22 21 18 15 15 14 14 12 12 12 12 13 13 13 14 13 13 13 17 16 17 17 15 13 12 14
41 44 47 46 45 45 44 44 43 40 38 37 36 34 30 28 25 23 20 16 14 14 14 12 11 10 11 12 12 14 13 14 14 13 13 15 15 17 17 17 17 16 13
41 44 44 43 42 42 41 41 40 37 36 34 31 28 24 22 19 17 15 14 14 12 11 10 10 10 11 12 12 13 13 14 14 14 14 14 16 18 19 20 20 19 18
42 43 41 40 39 39 37 36 35 34 30 27 24 20 18 16 15 14 12 11 10 9 9 9 10 11 12 13 13 14 14 14 14 14 14 15 18 20 21 21 22 22 22
42 42 40 39 38 36 34 31 29 27 23 20 17 15 14 12 11 9 9 9 9 9 9 11 12 12 13 13 14 14 14 14 15 15 15 17 20 21 20 21 23 23 23
42 41 40 38 37 35 32 29 25 22 18 15 14 12 11 10 9 9 9 9 9 10 11 12 12 13 14 15 14 14 15 15 15 16 17 19 20 21 21 22 22 22 23
42 41 40 38 37 34 31 27 23 19 15 13 12 10 10 10 10 10 11 11 11 11 12 12 13 14 15 14 14 15 16 17 16 17 18 19 21 20 20 21 22 23 24
41 41 39 38 36 33 29 25 20 16 14 12 11 10 10 11 11 12 12 12 12 12 12 13 14 14 14 13 15 18 18 17 17 17 18 20 21 20 21 21 21 22 21
41 41 39 37 35 32 27 22 18 15 14 12 11 11 12 12 13 13 12 12 12 11 13 14 14 14 13 12 19 20 18 17 16 17 18 19 21 21 20 20 21 20 20
40 40 39 37 34 31 25 19 16 14 14 13 13 13 13 14 14 12 11 10 11 13 15 14 14 13 12 17 19 21 21 18 17 18 19 20 21 21 20 20 21 21 22
39 39 38 36 33 28 22 18 15 14 14 14 14 14 14 13 11 10 9 10 11 14 14 13 13 12 12 17 19 21 20 19 19 19 19 19 19 21 22 23 24 28 31
39 38 37 34 30 24 20 16 15 14 14 14 13 14 13 11 11 10 9 11 13 13 14 13 13 12 12 17 18 20 20 19 19 19 19 19 20 22 22 27 27 23 21
38 36 34 30 25 21 16 14 14 14 14 12 12 12 11 10 10 9 10 12 13 13 13 13 12 12 14 17 19 21 20 19 19 20 20 20 23 23 26 22 19 17 16
33 31 28 24 21 17 15 14 13 12 12 11 11 11 10 9 9 11 12 13 13 12 12 12 13 15 13 16 19 20 20 20 20 21 22 25 22 22 23 18 17 15 16
26 25 24 21 17 15 14 13 12 12 11 11 10 10 9 9 12 12 13 12 12 12 13 14 14 14 15 18 19 21 21 20 21 21 19 21 24 20 18 17 16 17 22
22 21 19 17 15 14 13 12 12 10 10 10 9 8 9 12 12 12 12 12 13 13 14 15 15 16 16 18 19 21 21 21 18 20 22 26 21 18 16 16 17 18 18
19 18 17 14 13 13 12 11 9 9 9 8 7 8 13 12 13 12 11 12 14 15 15 16 16 16 16 17 19 21 21 19 22 23 21 20 17 15 15 16 17 16 15
18 17 15 13 11 11 12 9 9 8 7 6 7 10 11 14 12 12 12 14 15 15 17 16 16 17 17 17 18 19 20 22 20 20 17 15 14 14 15 15 14 15 16
17 16 14 12 11 10 9 8 8 7 5 6 7 10 13 12 12 12 13 16 16 17 17 17 17 16 17 18 19 19 21 18 19 18 14 12 13 14 14 14 14 15 16
17 15 12 11 9 9 8 7 7 6 5 5 7 13 13 12 12 13 13 15 16 17 16 16 16 17 18 18 18 21 18 18 17 15 13 13 14 14 14 15 15 16 16

GFSMW_sfc_30mbdewp_006.txt.gz
Dewpoint
39 38 39 45 51 52 58 62 61 53 50 47 45 43 41 35 31 30 29 28 27 28 27 26 24 22 21 20 21 20 19 18 26 23 20 25 28 28 25 17 22 18 20
38 38 40 46 50 51 57 60 56 49 49 48 43 39 34 30 27 27 27 26 26 26 25 23 22 21 19 18 18 17 15 18 24 15 23 14 15 18 12 19 20 15 21
39 38 39 45 50 51 55 56 51 48 46 39 36 32 28 25 24 24 24 25 25 24 22 21 20 19 19 17 18 17 16 15 17 24 14 6 9 19 20 17 19 12 19
38 38 39 45 50 52 53 50 47 46 41 39 36 32 28 24 24 23 23 23 23 22 21 20 19 18 18 15 16 16 17 17 14 17 18 18 19 11 14 16 11 17 14
38 38 39 43 51 53 50 47 46 45 40 40 36 31 27 28 24 22 20 19 20 20 19 17 17 16 16 15 14 14 13 16 15 15 16 18 18 21 16 9 12 13 13
38 38 42 49 51 52 48 47 47 42 40 38 33 32 29 25 21 20 19 18 18 17 16 16 14 14 14 13 13 14 13 14 14 14 15 15 14 15 14 14 14 14 13
38 41 45 48 51 51 48 47 46 42 38 37 34 32 28 23 21 20 19 17 15 15 14 12 11 11 12 13 13 14 13 14 13 13 13 16 16 17 17 17 16 15 15
38 42 46 49 50 50 48 47 45 41 38 36 35 33 28 25 23 22 19 17 15 14 13 11 10 10 11 12 13 15 14 14 14 13 14 15 15 17 18 18 18 16 13
39 43 46 49 48 49 47 46 44 40 38 36 34 31 28 25 23 21 17 15 14 12 10 10 10 11 12 13 13 14 14 15 15 15 15 15 15 18 20 20 20 19 16
39 44 46 45 45 45 43 43 41 39 36 33 30 27 25 22 18 15 14 12 10 10 9 10 11 12 13 13 14 14 15 14 15 16 15 15 17 19 21 21 21 21 21
39 44 43 42 41 40 39 38 36 33 30 26 22 19 17 15 13 11 10 9 9 9 10 12 12 13 13 14 14 14 14 16 16 16 16 17 18 20 21 21 21 22 23
42 42 40 39 38 37 35 33 30 27 23 19 16 14 13 11 9 9 9 10 10 11 12 12 13 14 14 14 13 14 17 17 17 17 17 17 18 20 21 21 21 22 23
40 39 39 38 36 33 30 27 24 20 17 15 13 11 10 10 10 10 11 11 11 12 12 13 14 14 14 13 13 16 18 18 17 17 17 18 19 20 21 21 21 22 23
40 39 37 36 34 30 26 23 18 16 14 13 12 11 10 11 11 12 12 12 12 12 13 14 14 14 13 12 14 20 20 19 18 18 18 18 19 20 21 21 20 20 20
40 39 37 35 32 28 24 19 16 14 13 12 12 11 12 13 14 13 12 12 12 13 15 14 14 13 12 11 19 21 21 19 18 18 18 19 21 21 20 19 19 20 21
40 39 37 34 31 27 22 18 15 14 13 13 13 13 14 14 13 12 11 11 13 14 14 14 13 12 12 17 21 21 22 20 19 18 19 20 21 20 22 22 23 24 29
40 39 37 35 30 25 20 17 15 14 14 14 14 14 15 13 11 10 10 12 13 14 13 13 13 12 13 18 20 21 22 20 19 20 20 20 20 22 21 24 24 30 23
40 39 36 32 27 21 18 16 15 15 15 14 14 15 13 11 11 9 11 12 13 13 13 12 12 12 13 19 19 21 21 20 20 20 20 20 20 21 23 26 28 21 19
39 37 34 29 23 19 16 15 15 15 14 14 14 13 12 10 10 10 12 13 13 12 12 12 13 13 15 18 20 21 21 20 20 21 21 21 23 23 23 25 21 18 17
35 33 28 24 20 16 15 15 14 14 13 13 12 11 11 9 10 12 12 13 12 12 13 13 14 16 15 18 20 21 21 21 20 21 22 22 22 21 26 20 17 17 16
29 26 24 21 16 15 15 14 13 12 12 11 10 9 10 12 12 12 12 12 12 13 13 15 15 16 17 18 20 21 21 21 20 19 21 23 22 22 19 17 16 17 22
24 22 20 16 15 15 14 13 11 11 11 10 9 10 12 12 12 11 12 12 13 14 14 16 16 17 17 19 19 21 21 21 20 22 22 21 21 18 17 17 18 19 18
20 19 17 15 14 14 13 11 10 10 8 8 9 12 12 12 12 11 12 13 14 14 15 17 17 16 17 17 20 21 21 21 23 21 21 21 18 16 15 16 18 17 15
17 16 15 13 12 12 11 10 9 8 7 7 9 11 16 12 12 12 12 14 15 15 16 17 16 17 17 17 18 19 20 26 20 21 18 17 15 15 15 15 14 15 15
17 15 14 13 11 9 9 8 7 6 6 7 8 12 12 12 12 12 13 15 16 17 17 17 17 16 17 17 19 19 24 18 19 18 15 13 14 14 14 14 14 15 15
16 14 12 11 9 8 8 7 7 6 5 5 9 15 12 12 12 13 13 16 16 16 16 15 16 16 17 18 18 21 18 18 17 16 13 14 14 14 14 14 15 15 16

GFSMW_sfc_30mbdewp_009.txt.gz
Dewpoint
40 41 40 40 43 50 54 61 62 59 56 53 49 46 43 38 35 32 30 30 30 29 28 25 23 22 20 19 17 20 18 18 23 16 17 22 25 29 28 17 21 18 20
41 40 40 41 45 50 57 60 60 55 55 53 51 47 39 33 31 30 28 28 29 27 26 24 22 21 19 18 18 19 17 18 23 14 19 14 13 18 12 21 20 16 16
36 38 39 41 47 51 56 59 55 54 53 47 41 33 29 28 27 27 27 27 26 25 23 22 21 21 21 19 19 19 18 15 19 18 12 8 8 14 17 17 20 12 15
36 37 39 40 45 51 56 55 52 52 46 44 41 40 38 32 26 25 26 25 24 23 22 21 20 19 19 18 16 17 18 18 15 17 16 16 16 9 8 15 11 16 12
36 37 39 40 44 51 53 52 50 48 44 44 42 38 33 28 25 24 23 22 22 21 20 19 19 18 17 17 16 17 17 17 16 16 15 16 15 20 16 7 9 13 14
37 39 39 42 48 52 50 50 48 46 43 42 39 35 30 25 23 22 21 19 19 19 18 17 17 16 16 16 17 18 17 17 16 17 17 15 13 12 12 11 12 13 13
36 38 41 45 49 51 49 49 48 44 42 40 36 33 28 24 23 22 20 18 17 17 16 15 13 14 16 17 18 17 17 17 16 16 15 17 16 16 15 16 15 14 14
34 38 42 46 49 51 49 48 46 42 40 37 35 31 26 24 23 22 20 18 17 16 14 13 13 13 14 15 16 17 17 17 17 17 16 16 17 17 17 17 17 15 11
34 37 43 47 50 50 49 48 46 42 39 38 34 28 26 24 24 22 20 18 16 13 13 13 13 14 15 15 15 16 15 16 17 17 17 17 17 18 19 20 19 16 13
34 37 44 48 50 50 48 47 44 41 39 36 32 28 26 24 22 19 16 15 13 11 12 12 13 14 15 15 15 15 16 16 17 17 17 17 18 18 20 21 21 20 18
36 39 45 47 48 47 46 44 41 38 35 31 28 25 23 20 17 15 13 11 11 11 12 13 13 14 14 15 14 14 16 18 18 18 18 18 18 17 19 20 21 20 20
38 43 44 43 44 44 42 41 36 34 29 25 23 21 17 15 13 11 11 11 11 13 13 14 14 14 14 14 12 15 18 18 18 18 18 18 17 18 19 20 20 20 20
41 40 40 41 41 39 36 34 30 26 22 20 17 15 13 12 11 11 11 12 13 13 14 15 14 14 14 13 12 16 19 20 19 19 18 17 17 17 18 20 20 21 21
39 39 39 37 36 33 30 27 23 20 18 16 14 12 12 11 12 13 13 13 13 14 15 14 14 14 13 12 13 19 21 21 20 20 19 18 18 18 20 21 20 20 19
39 38 36 34 30 27 24 21 18 16 15 14 13 13 13 14 14 13 13 14 15 15 15 14 14 13 12 11 20 22 22 22 20 20 19 19 21 23 22 21 21 21 22
39 37 35 31 28 27 22 18 16 15 14 14 14 15 15 15 14 13 13 15 15 15 14 13 13 13 11 18 22 22 22 22 20 19 19 20 22 22 23 23 23 24 28
39 37 34 30 25 21 18 16 15 15 15 14 15 16 15 14 12 12 13 14 14 14 13 12 13 12 13 20 21 21 21 21 20 20 20 20 20 23 22 23 25 31 25
39 36 33 28 23 19 17 15 15 15 15 15 16 15 13 12 11 12 13 13 13 13 12 12 13 13 14 20 20 22 21 21 21 21 21 21 21 22 23 23 30 24 21
39 36 32 25 21 18 16 15 16 16 15 15 15 13 12 11 12 12 12 13 12 12 12 13 14 14 17 19 21 22 21 21 21 21 21 22 21 21 21 25 24 18 16
35 32 27 22 18 16 16 15 15 14 14 14 13 12 11 11 12 12 12 12 12 12 13 14 15 17 16 19 21 21 20 20 20 21 21 21 22 21 24 21 18 17 16
30 26 24 19 16 16 15 14 14 13 13 12 11 11 12 12 12 12 12 12 13 13 13 15 16 16 17 18 20 21 20 20 21 20 21 20 21 23 19 18 16 17 22
23 21 18 16 15 15 15 13 12 12 11 10 11 12 12 12 11 11 12 13 13 13 14 16 16 16 17 18 19 21 21 21 20 23 20 20 22 19 17 17 18 20 19
20 18 16 15 15 14 13 11 11 10 9 11 11 11 12 12 12 12 12 13 14 14 16 16 16 16 16 17 19 21 21 20 22 20 20 20 18 16 15 16 18 17 15
17 16 15 14 12 11 11 10 9 9 10 11 13 13 11 12 12 13 13 14 15 16 16 16 15 16 16 17 17 19 19 24 19 20 19 17 15 15 15 14 14 14 14
16 16 14 12 10 10 9 8 8 8 8 9 10 12 12 12 12 12 14 16 16 17 16 16 16 15 15 16 19 19 22 19 19 18 15 12 12 13 13 14 14 14 14
15 14 12 10 9 8 8 7 7 7 6 9 14 13 12 12 12 13 13 16 15 16 15 15 16 16 17 18 19 20 19 18 18 15 12 12 13 13 14 14 14 15 16

GFSMW_sfc_30mbdewp_012.txt.gz
Dewpoint
38 40 41 42 42 42 44 47 53 58 61 62 59 56 53 49 46 40 38 35 32 30 29 27 25 23 21 19 17 19 18 19 18 15 17 20 23 30 29 15 17 18 18
34 37 39 40 41 42 47 50 55 59 60 60 60 58 52 47 43 34 32 31 30 30 29 26 24 22 21 20 19 20 18 18 18 15 18 14 15 16 20 17 16 13 13
30 33 35 38 41 43 47 53 57 59 59 60 57 52 43 38 31 30 30 29 28 26 26 25 23 23 22 21 20 19 17 16 18 16 13 10 11 11 13 16 15 14 13
28 30 33 34 38 43 48 56 59 57 59 57 50 46 47 44 34 29 28 27 25 24 23 22 21 21 20 20 16 17 17 16 15 16 14 13 13 9 10 13 13 13 13
27 30 31 33 37 42 51 58 58 57 57 52 50 52 48 44 30 28 26 25 24 23 22 21 20 19 18 18 17 18 16 16 15 15 14 14 14 15 15 12 12 14 15
30 31 36 35 36 43 52 57 56 56 53 52 52 51 44 31 27 26 24 23 22 21 20 19 19 18 17 18 18 19 19 17 16 15 15 15 14 13 14 13 13 14 15
28 30 34 38 40 47 52 55 55 53 51 49 48 43 37 30 26 25 24 22 21 20 19 17 16 16 18 18 18 18 18 17 16 15 14 16 16 15 15 15 15 14 15
33 29 33 38 41 48 51 53 54 51 50 48 43 37 31 31 26 26 25 22 21 19 18 16 14 14 15 16 17 17 17 16 16 18 18 17 17 17 17 16 16 15 12
35 34 34 40 43 47 50 51 53 51 49 45 40 35 32 30 27 25 24 22 20 17 15 15 14 14 14 15 16 15 14 15 17 17 18 18 18 18 18 18 17 16 13
33 36 35 40 45 48 49 50 50 49 46 41 36 30 30 28 26 24 22 20 17 14 14 14 14 14 14 15 15 14 15 15 16 17 18 18 17 17 17 17 17 17 16
36 38 36 40 46 49 50 49 48 46 43 38 31 29 27 25 23 22 20 17 14 14 13 13 13 13 14 14 13 13 15 17 18 19 19 19 18 16 15 15 16 16 16
38 40 40 44 48 49 49 48 46 44 40 32 31 27 25 22 21 18 16 14 13 13 12 12 13 14 13 13 11 13 16 18 18 19 19 19 15 14 14 15 15 16 17
38 40 42 44 46 48 48 45 43 37 32 29 26 24 22 20 17 15 13 13 13 13 13 14 14 13 14 12 11 13 16 18 19 19 19 17 15 14 14 15 17 18 18
39 40 41 43 46 47 44 37 31 28 28 27 25 22 19 17 15 14 13 13 13 14 14 14 14 14 12 12 12 17 19 20 20 21 20 18 16 16 17 19 19 18 18
39 40 41 42 43 40 33 29 26 24 24 23 21 18 16 15 14 14 13 13 15 15 14 14 13 13 12 10 19 21 21 20 19 19 18 17 18 22 23 22 20 20 20
38 40 39 39 37 30 27 26 22 23 20 20 18 16 16 16 15 14 14 16 16 15 14 13 13 13 11 19 23 23 20 19 18 17 17 17 20 19 22 21 22 22 25
40 39 37 36 32 27 25 24 24 21 19 17 17 16 16 15 14 14 15 15 15 14 13 12 12 12 12 20 22 22 20 19 18 19 19 18 18 21 19 21 22 26 29
40 38 34 31 27 26 24 21 19 18 17 17 16 16 15 13 13 13 14 13 13 12 12 11 12 12 12 20 21 22 19 18 18 19 19 18 19 19 21 22 27 27 22
39 37 32 26 23 20 19 18 17 17 17 16 15 14 13 13 13 13 13 12 11 11 11 12 12 11 12 17 21 22 18 17 17 18 17 19 19 21 21 26 26 18 14
35 30 25 22 20 18 18 17 16 16 16 15 14 13 12 13 13 13 11 12 12 11 11 11 12 14 12 15 21 21 19 17 16 16 17 19 21 20 25 22 17 16 15
32 27 24 21 18 18 17 16 16 15 14 13 12 12 13 12 12 11 11 11 11 11 10 10 11 12 13 14 19 21 20 18 17 17 18 18 18 22 20 19 16 15 20
25 23 20 18 17 17 17 15 14 13 12 12 12 12 11 10 10 10 11 12 11 9 9 10 9 11 11 14 16 21 21 21 19 20 18 18 20 20 18 17 17 20 20
23 21 19 17 17 16 15 13 12 12 12 12 12 11 10 10 11 11 12 11 10 9 10 10 10 9 11 12 15 19 19 19 23 19 19 20 19 17 15 15 19 18 15
19 18 17 15 15 14 13 11 11 12 12 11 10 10 10 10 11 12 11 10 9 10 11 10 10 10 11 12 14 16 17 20 18 18 19 16 15 13 14 14 14 14 15
18 17 15 14 13 12 10 10 11 12 12 12 11 11 11 11 11 11 12 12 11 14 13 11 11 11 11 13 18 19 19 19 18 19 15 11 10 11 13 13 14 15 16
17 15 14 12 11 10 9 9 10 10 9 9 9 11 11 11 11 10 9 15 15 16 15 15 15 14 15 17 19 19 20 19 18 16 11 11 12 13 14 14 15 17 18

GFSMW_sfc_30mbdewp_015.txt.gz
Dewpoint
32 36 38 37 35 38 40 41 42 47 50 57 63 64 62 61 59 54 50 45 39 38 36 32 29 27 26 24 22 23 23 23 21 20 22 23 23 30 29 27 19 19 17
30 32 35 39 39 40 42 42 44 48 53 60 63 63 60 57 52 46 40 35 33 34 33 31 29 27 26 25 25 25 23 22 21 18 21 19 19 20 19 20 19 15 16
27 28 31 34 40 40 41 42 46 51 56 61 61 59 54 46 43 40 36 32 32 32 32 30 28 28 28 27 25 24 21 22 21 18 17 15 16 15 15 18 17 18 16
24 25 26 30 35 40 43 44 48 53 57 60 59 56 50 46 44 38 32 29 29 30 29 28 28 27 26 25 21 21 21 20 20 19 15 16 14 13 13 15 18 17 15
24 24 26 29 32 37 44 47 50 55 57 59 59 55 50 51 42 32 28 27 27 27 27 26 26 25 24 22 22 22 19 19 18 18 18 16 17 17 16 17 17 18 18
23 27 28 28 31 36 44 50 53 55 57 58 56 51 53 44 35 29 27 26 26 26 25 24 25 23 23 23 22 22 21 19 18 18 18 17 17 16 17 17 17 17 18
25 26 28 30 34 36 42 51 55 55 57 57 53 53 52 40 35 30 27 25 25 24 24 23 22 22 22 22 21 21 20 19 18 18 17 17 18 18 17 18 18 18 18
31 34 35 28 34 40 44 50 54 55 56 54 54 54 44 40 35 30 26 25 25 24 23 21 20 20 19 19 19 20 20 18 19 20 20 20 19 20 20 19 19 18 17
31 33 36 35 32 39 43 50 53 55 54 53 52 45 40 34 31 28 26 26 25 23 21 20 18 17 17 17 17 17 16 17 18 19 19 20 20 20 20 20 19 18 17
29 32 36 37 35 40 45 49 52 53 53 50 42 38 35 31 30 28 27 25 23 20 19 18 18 17 16 16 16 17 16 16 17 18 19 19 20 19 20 19 19 18 17
32 35 37 38 37 42 46 49 51 51 51 44 37 35 33 32 28 26 24 22 19 19 17 17 16 15 15 15 14 14 15 16 18 19 20 20 20 19 17 17 16 17 17
32 36 38 40 40 45 48 49 51 50 47 40 34 32 30 27 26 23 21 19 18 17 16 15 15 15 14 13 12 12 14 16 17 18 20 21 18 17 15 15 15 16 17
26 34 38 41 44 47 48 49 48 46 41 35 31 27 25 24 22 20 17 17 16 15 15 15 15 14 15 13 12 12 13 16 18 19 19 19 18 16 15 16 17 19 20
29 37 40 41 45 46 47 47 45 42 36 31 28 26 24 20 18 17 17 16 16 15 16 15 15 14 13 13 13 16 18 20 21 21 20 19 18 17 17 20 21 20 21
37 37 40 42 44 46 44 40 38 34 30 29 27 26 22 19 18 17 16 16 17 16 16 15 14 14 13 11 19 21 21 20 19 19 18 18 18 20 22 22 23 22 22
38 38 40 41 44 39 35 33 30 28 28 28 26 21 19 18 18 17 17 18 17 16 15 14 13 13 11 19 23 24 21 19 17 17 16 18 20 19 20 21 21 22 22
38 39 40 41 35 31 28 26 27 28 28 26 23 21 19 18 18 18 18 17 16 15 14 12 12 12 13 20 22 23 21 19 18 19 20 19 18 20 20 20 21 24 24
40 39 38 33 28 27 28 27 29 25 25 24 23 19 19 18 18 17 16 15 14 13 12 11 11 13 13 19 21 22 21 17 17 18 18 18 18 19 20 22 25 26 26
39 35 30 28 29 31 32 33 33 30 25 21 19 18 17 16 16 15 14 13 12 11 10 12 12 11 10 16 20 22 19 16 17 17 16 17 18 19 20 22 25 23 18
31 26 25 26 28 28 25 25 27 27 24 23 17 16 16 16 16 14 12 12 12 11 12 12 12 11 11 12 18 20 19 17 17 17 17 17 19 19 20 22 20 19 18
35 34 33 32 30 26 26 21 18 16 15 15 15 15 15 14 12 11 11 10 12 12 10 9 9 10 11 12 16 19 20 19 19 18 18 20 18 20 21 20 19 18 19
24 22 21 20 19 19 19 17 15 14 14 14 14 13 12 11 11 10 11 12 11 10 8 8 8 9 9 11 13 18 20 20 19 19 21 19 20 20 19 19 17 19 20
21 21 19 19 18 17 15 13 13 14 14 14 13 11 10 10 11 12 12 12 10 8 8 9 9 9 10 10 12 16 18 18 20 21 19 20 19 18 15 15 17 17 16
21 19 18 17 15 14 13 13 14 14 13 12 11 10 10 10 12 13 12 10 9 8 9 8 9 9 9 10 13 17 19 18 21 19 20 18 16 12 13 14 14 15 16
20 18 16 14 12 12 12 13 14 14 13 12 12 12 12 11 11 11 11 11 10 13 12 10 11 10 10 12 18 19 19 20 20 19 18 14 11 12 13 14 15 16 17
18 16 14 13 12 12 12 13 14 13 12 10 10 11 12 12 11 10 9 15 13 15 16 15 15 14 15 16 18 19 19 20 19 17 14 11 13 14 14 15 16 17 19

GFSMW_sfc_30mbdewp_018.txt.gz
Dewpoint
32 33 36 36 37 35 37 42 43 46 56 64 64 64 63 62 62 58 54 48 42 39 38 33 31 30 27 25 25 25 25 23 22 23 23 26 27 31 29 30 20 20 19
30 31 32 36 38 39 37 40 43 45 47 59 63 64 63 61 56 52 48 44 40 39 35 32 30 28 27 27 26 26 25 24 22 18 22 20 22 23 22 23 21 18 18
27 28 29 32 37 39 40 42 43 46 48 53 64 60 55 50 47 43 38 36 36 34 34 32 30 30 30 28 26 24 24 23 22 18 17 15 18 16 20 20 19 18 19
25 27 27 28 32 39 40 42 44 45 51 63 61 57 56 50 46 42 39 33 33 33 32 31 30 30 29 26 24 23 22 24 20 21 18 17 16 14 13 19 19 20 19
25 25 25 26 27 29 41 42 44 48 56 62 60 56 52 50 42 38 35 31 31 31 30 30 29 28 26 21 23 23 21 20 20 20 19 19 19 18 17 16 18 19 19
23 26 27 30 31 30 33 46 45 49 57 61 59 56 52 48 37 35 32 29 29 29 28 28 27 26 25 24 24 23 22 20 20 19 19 19 18 18 18 18 17 18 19
23 27 34 36 35 32 34 43 47 51 57 59 59 55 52 42 37 34 31 28 27 28 28 27 26 25 26 25 24 23 22 21 20 19 19 20 19 20 19 19 19 19 20
22 32 34 36 37 36 37 45 50 54 56 59 56 52 45 39 37 35 31 27 26 26 27 25 25 23 23 22 23 22 21 20 21 20 21 21 21 21 21 20 20 19 19
27 31 34 36 38 38 40 45 53 55 56 58 53 49 42 39 36 35 29 27 26 25 24 23 21 20 20 20 19 20 19 18 19 20 21 21 22 22 22 22 21 19 17
28 31 34 37 39 39 39 49 53 55 56 55 52 43 40 37 34 30 27 26 24 24 22 20 19 18 18 17 18 18 17 16 18 20 19 20 21 21 21 21 20 19 18
30 34 35 38 40 39 41 46 52 54 54 43 41 39 36 33 29 28 26 24 22 21 20 19 18 17 17 16 16 15 16 16 18 19 20 21 22 21 20 18 17 17 17
28 32 35 38 40 41 43 48 50 54 42 38 37 33 33 30 28 25 23 21 20 19 19 18 17 16 15 14 13 13 14 15 17 18 20 21 21 19 19 17 17 17 18
26 29 38 40 40 44 45 48 52 46 38 36 35 32 29 26 25 22 20 20 18 17 16 16 16 15 15 14 13 12 14 16 18 20 20 20 20 19 19 17 19 21 22
34 34 40 40 41 46 50 51 43 37 35 32 31 29 27 25 21 20 19 18 16 16 17 16 16 15 14 14 14 18 20 21 22 22 22 20 19 19 18 20 21 22 22
38 38 39 41 44 46 45 43 36 34 30 28 27 25 23 21 19 18 17 18 18 17 16 16 15 14 14 16 20 24 23 21 20 19 19 18 21 21 22 22 22 23 23
40 40 39 42 42 39 37 37 34 32 31 28 24 21 20 20 19 18 19 18 17 16 16 15 14 14 12 21 24 24 23 22 20 18 18 19 22 21 21 21 21 22 22
40 39 40 38 33 31 31 31 31 30 28 25 26 26 28 28 26 20 20 18 17 16 14 13 12 12 19 22 22 23 23 22 20 19 19 20 19 20 21 21 21 22 24
39 39 33 30 29 27 29 29 29 29 31 30 31 32 33 31 25 19 17 16 15 13 12 12 13 14 18 20 21 22 22 20 18 18 18 18 18 19 20 21 23 25 26
32 29 28 29 29 30 29 30 31 32 31 33 34 32 29 26 22 19 15 13 12 12 12 14 13 11 14 18 18 21 21 19 18 18 18 18 19 20 20 22 22 23 21
27 29 31 33 33 34 35 34 32 33 32 31 30 28 25 18 15 13 13 13 13 13 13 13 12 16 11 14 16 19 20 20 19 19 19 20 20 20 21 21 21 20 19
34 34 33 33 34 36 36 34 34 34 34 33 24 18 16 14 13 12 12 13 13 12 11 10 10 10 12 12 14 17 20 20 20 20 19 21 21 20 21 21 20 19 19
37 36 36 36 36 35 30 20 15 16 16 15 14 13 12 11 11 11 12 12 11 10 9 8 10 10 10 12 14 15 18 20 19 19 21 21 21 21 20 19 17 18 20
21 21 20 20 19 18 15 14 14 14 14 12 12 11 11 12 13 13 12 11 10 9 10 10 10 10 11 11 14 17 18 20 20 21 21 20 20 19 16 15 16 17 16
19 17 16 14 14 14 14 15 15 14 12 11 11 11 11 12 13 12 12 10 9 10 10 10 11 11 12 12 16 19 19 20 20 22 21 20 18 15 14 14 15 16 16
19 16 14 13 13 14 14 14 14 12 11 12 13 13 13 12 11 12 13 12 15 14 13 14 14 13 13 14 18 19 19 20 21 20 19 16 13 14 14 15 15 16 17
16 15 14 14 14 15 15 15 14 13 11 11 13 14 13 12 11 10 10 15 13 13 15 16 15 15 15 17 18 19 19 20 20 18 14 12 13 14 15 15 16 17 18

GFSMW_sfc_30mbdewp_021.txt.gz
Dewpoint
34 34 34 35 33 34 35 39 54 62 64 64 64 63 62 63 62 61 56 50 46 43 38 33 30 28 26 25 25 26 23 21 22 20 23 27 28 28 27 29 23 20 20
31 32 32 33 34 36 36 36 45 59 63 64 64 63 64 62 60 55 50 46 43 39 35 32 30 28 26 26 26 26 25 23 21 18 25 18 21 20 22 23 21 17 19
27 28 29 30 31 33 37 39 40 48 62 64 64 60 56 53 51 50 47 44 42 37 33 32 29 28 28 26 24 25 25 23 21 18 18 14 16 16 20 21 19 19 18
27 27 27 28 28 30 36 39 41 44 49 63 63 61 60 57 52 48 44 42 39 35 32 30 30 30 29 26 24 24 23 24 20 21 20 18 16 10 9 18 19 21 19
27 26 26 28 28 28 30 35 41 44 47 62 61 61 59 53 46 43 39 37 35 33 31 31 30 29 27 24 22 21 20 21 21 20 19 19 20 19 16 15 17 19 19
23 25 27 31 32 32 31 34 40 43 53 61 60 60 56 47 44 42 38 34 33 32 31 30 29 27 23 24 23 22 20 20 20 21 20 19 17 18 17 18 18 18 19
19 25 33 34 36 37 37 36 40 42 57 61 59 56 52 46 45 42 39 33 32 32 30 29 27 25 26 25 24 23 21 21 20 19 20 20 20 21 20 19 19 20 20
19 26 33 36 37 37 38 39 40 44 57 60 58 54 50 46 44 42 38 35 32 30 30 28 26 26 25 25 24 23 22 20 21 20 21 21 21 22 22 21 20 19 19
19 29 35 36 36 36 36 39 41 47 56 60 58 53 45 43 41 39 35 33 30 31 27 26 25 24 23 23 22 21 17 18 20 20 21 21 23 23 22 22 21 19 17
23 32 35 37 38 38 39 40 42 50 56 57 55 47 43 42 39 34 32 31 29 26 26 24 22 21 20 20 20 18 18 17 19 20 20 20 22 22 22 21 20 19 17
29 34 35 38 38 38 39 41 45 52 56 52 46 44 41 38 35 33 31 31 27 25 24 24 23 20 18 17 18 18 17 16 17 19 20 21 22 21 22 19 18 17 18
32 30 33 37 38 38 38 41 46 54 49 45 43 41 38 36 34 31 29 26 25 24 23 21 19 17 17 15 15 14 15 15 17 18 19 20 22 20 20 19 17 18 20
34 35 36 38 39 40 41 45 50 45 42 42 40 36 35 33 29 26 24 24 23 21 21 18 17 16 15 14 13 13 14 17 18 20 20 20 21 20 20 19 18 20 21
38 37 39 41 40 46 50 49 43 41 40 40 37 35 31 27 24 24 22 22 22 19 18 17 17 16 15 14 18 21 22 22 22 21 20 20 20 19 19 19 20 21 22
40 40 39 40 44 45 42 40 39 41 41 36 34 31 27 26 24 23 22 22 22 20 17 16 15 15 16 18 21 24 23 22 21 20 19 19 22 23 22 22 22 22 23
38 40 40 41 40 41 40 38 37 36 38 31 28 26 25 25 26 26 25 25 18 17 16 15 14 13 19 25 26 25 23 22 20 19 20 20 22 21 22 21 20 21 22
39 40 40 33 34 37 40 40 38 33 25 24 24 26 28 30 29 27 24 22 19 16 15 14 14 17 23 24 24 24 22 21 20 19 19 19 19 21 20 22 22 22 23
38 35 30 28 30 31 34 34 34 32 31 31 31 31 32 31 31 31 31 28 25 21 19 13 14 18 23 23 22 24 21 20 19 19 18 18 18 20 22 22 23 23 24
29 29 29 30 30 31 33 33 33 33 33 33 34 35 35 34 33 31 29 28 26 18 13 15 14 17 20 19 20 22 20 20 20 19 20 21 20 21 21 22 21 22 22
32 32 32 34 32 32 34 34 35 35 34 34 34 34 33 31 29 27 22 14 13 14 14 13 12 15 11 16 16 19 20 19 20 20 21 22 21 21 22 22 22 20 19
33 34 36 36 36 36 35 34 34 33 34 34 33 32 28 23 20 15 14 13 13 12 10 10 10 11 12 13 14 16 19 19 20 20 20 21 22 22 22 21 20 18 19
35 36 36 35 36 36 34 33 33 34 33 31 26 19 14 12 12 12 12 12 10 9 9 10 10 11 11 16 15 15 18 20 20 20 20 21 22 21 20 19 17 18 19
36 36 35 33 31 28 25 20 16 15 14 13 12 12 12 13 13 12 11 10 10 10 10 10 10 11 12 12 19 19 19 20 20 20 21 22 21 18 17 16 17 17 16
18 19 19 17 15 16 15 15 14 13 12 11 12 13 13 13 12 12 11 9 10 10 11 11 11 12 13 13 15 19 20 21 20 21 22 20 16 15 15 15 16 16 16
16 16 15 15 15 15 14 14 13 12 11 12 13 15 14 12 12 12 11 13 14 10 9 14 14 14 14 15 19 20 19 20 21 20 18 14 13 14 14 15 15 16 17
15 15 15 15 15 15 14 14 13 13 13 13 13 13 12 12 11 10 11 16 15 14 15 15 14 14 13 15 17 18 19 20 20 14 12 12 13 14 14 15 15 16 17

GFSMW_sfc_30mbdewp_024.txt.gz
Dewpoint
32 35 35 35 34 34 35 40 54 61 64 64 64 63 62 62 62 61 59 55 52 49 43 35 31 28 26 26 26 26 22 20 22 22 25 26 28 27 28 27 24 22 21
30 31 33 34 34 34 35 35 46 59 64 64 63 63 63 62 62 60 56 53 50 46 38 34 30 28 26 26 26 26 24 22 21 20 24 20 21 22 21 23 21 18 19
28 29 29 30 32 32 33 36 38 54 63 64 64 61 59 57 56 56 53 49 47 42 37 33 31 28 27 26 26 26 26 23 20 19 19 18 15 17 19 21 20 19 19
28 28 28 28 29 30 31 33 37 43 61 64 63 60 59 59 58 56 52 48 43 39 35 32 29 28 29 27 25 26 26 24 20 21 19 18 17 9 9 17 20 21 19
28 28 28 28 28 29 29 32 36 41 53 63 63 61 59 59 55 51 50 47 42 36 33 31 30 29 29 27 25 23 25 23 22 21 19 19 20 18 15 12 16 20 20
23 26 26 28 28 33 34 32 33 37 45 62 63 61 59 55 51 48 47 44 40 36 34 31 31 30 27 25 24 22 21 21 21 20 19 18 17 18 18 17 18 17 19
20 22 26 33 35 37 38 38 38 38 42 57 62 61 58 53 52 48 46 42 38 36 34 32 31 29 27 26 24 22 21 20 19 19 20 21 19 20 20 19 19 19 21
20 19 26 33 35 37 36 34 35 38 41 55 60 61 57 52 52 49 46 42 38 37 37 33 30 29 27 25 24 23 22 21 20 19 21 21 22 22 22 20 19 18 19
27 26 23 34 36 36 35 35 37 38 41 53 58 57 51 50 49 47 43 40 39 37 34 31 30 29 28 26 24 22 21 20 21 20 21 22 23 23 23 23 22 19 16
29 29 32 36 37 38 37 38 40 41 42 53 58 55 49 49 47 45 43 39 36 33 30 30 30 29 26 24 23 20 18 18 20 21 20 21 22 22 22 22 21 21 18
34 31 31 33 37 38 36 35 38 43 47 55 57 49 48 46 45 43 41 36 33 30 30 29 29 28 25 22 20 19 18 17 18 20 20 20 21 21 22 21 19 18 18
38 36 34 34 35 39 39 39 41 44 51 53 49 47 45 44 42 40 37 33 29 29 29 28 27 26 24 23 22 19 17 16 17 18 20 20 22 21 21 20 19 18 18
39 39 38 39 40 41 43 46 48 48 49 46 45 43 43 42 40 37 33 30 29 29 29 27 24 20 18 16 15 15 15 16 18 20 20 20 21 20 21 20 19 19 20
39 40 40 40 41 45 43 42 42 43 43 44 42 41 41 39 36 32 31 29 29 29 29 29 27 23 19 15 16 19 21 22 21 21 20 20 20 20 19 19 19 20 21
38 39 40 40 42 43 39 39 42 42 41 40 39 36 33 29 28 28 27 28 28 27 27 29 26 24 22 24 23 23 22 20 19 20 19 19 20 25 22 22 22 22 22
39 38 40 41 41 40 38 38 39 39 36 35 32 30 28 28 30 30 28 27 28 28 27 23 21 22 26 28 27 24 21 20 19 19 19 19 22 22 22 22 21 21 22
39 39 37 35 38 40 39 37 36 36 34 33 31 31 31 29 28 28 29 28 28 27 24 22 19 24 26 26 26 25 21 19 19 19 19 18 18 21 20 22 23 23 24
30 29 30 32 35 36 36 36 35 35 34 33 34 34 32 31 32 32 31 30 28 26 27 25 27 28 28 26 25 23 20 19 20 19 19 19 20 21 22 22 23 24 24
32 32 31 32 34 35 36 35 34 34 34 34 34 34 35 34 34 33 32 32 32 32 30 28 25 25 23 22 23 21 20 19 19 20 20 22 22 22 22 22 22 22 22
33 34 33 33 34 34 34 35 35 34 34 35 35 35 34 34 33 33 32 32 31 25 18 13 13 18 17 20 18 22 20 18 19 20 21 22 22 22 22 23 22 20 19
35 36 36 36 36 35 35 34 33 32 34 34 34 33 33 32 30 28 26 21 16 13 12 11 12 13 12 13 15 16 19 18 20 20 20 20 22 23 22 21 20 18 19
36 36 34 33 35 36 35 33 32 33 32 32 31 28 22 16 14 13 13 12 10 9 9 10 11 11 12 19 18 21 21 21 20 20 20 20 24 22 20 19 18 19 19
35 35 33 29 26 28 31 31 30 26 20 15 13 13 13 13 12 11 10 10 11 10 11 11 10 11 12 13 17 19 20 21 20 21 21 23 21 18 16 16 17 18 16
28 26 24 22 16 16 15 15 14 13 13 13 13 13 12 12 12 12 11 10 11 11 10 10 10 11 12 13 16 19 20 21 20 21 22 19 15 15 15 15 15 16 16
17 17 16 16 15 14 14 13 13 12 12 13 15 15 14 12 11 12 11 11 10 8 9 12 12 12 12 14 18 19 19 20 22 20 14 12 12 14 14 14 15 15 16
17 17 16 15 15 14 14 13 13 13 13 13 13 13 12 11 12 12 15 18 15 16 16 18 15 13 15 15 17 19 19 21 19 13 11 12 13 13 14 14 15 16 16

GFSMW_sfc_30mbdewp_027.txt.gz
Dewpoint
31 32 33 35 36 36 36 39 55 61 64 64 64 63 62 62 61 61 60 57 56 53 48 41 34 31 29 27 25 24 20 20 24 24 26 26 29 26 26 26 26 23 21
29 30 31 32 34 35 35 35 43 59 63 64 64 63 63 62 61 61 60 58 55 52 46 39 34 30 29 26 26 25 24 21 21 20 25 21 22 23 22 24 21 20 20
28 28 29 29 31 32 33 34 36 46 62 64 63 60 60 58 59 60 58 56 54 51 46 39 35 31 29 27 26 27 26 22 19 21 21 19 17 20 19 21 20 19 20
28 29 29 29 29 29 31 32 34 37 52 64 63 61 59 59 60 59 58 54 52 49 45 39 35 30 30 28 27 28 28 24 20 20 18 18 19 13 11 18 20 21 19
26 27 28 29 29 29 29 29 31 36 41 61 63 62 59 58 59 57 55 53 51 48 44 40 34 31 30 29 27 27 27 25 23 22 19 19 20 18 13 11 16 20 20
19 21 23 27 27 28 30 30 30 32 39 53 63 62 61 58 56 54 54 51 47 44 40 39 36 32 32 30 28 26 26 24 24 22 20 19 18 17 17 15 17 17 19
27 27 27 27 29 36 37 37 37 37 39 43 60 62 61 57 56 54 54 50 45 42 39 38 37 35 34 32 28 25 24 23 21 20 20 21 19 20 19 18 18 17 21
29 30 31 31 31 32 38 37 36 35 39 45 51 61 61 58 55 53 53 51 48 45 41 39 37 36 34 30 27 25 23 22 21 20 20 21 21 22 21 19 19 17 19
30 33 33 33 35 37 37 37 36 37 38 42 53 58 60 56 54 53 51 50 48 42 41 39 35 34 32 30 28 26 22 22 21 21 22 22 23 23 23 23 21 18 15
33 35 36 35 34 35 37 38 38 38 40 42 50 56 57 55 53 50 48 45 42 41 38 35 34 33 32 30 28 24 21 21 22 22 21 21 23 23 23 22 22 21 19
39 39 37 36 35 35 36 39 39 41 42 45 49 55 53 52 49 48 45 42 41 40 37 35 34 31 29 26 25 25 23 23 22 21 20 20 21 22 23 23 21 20 19
40 40 39 39 39 41 42 44 46 47 47 48 53 53 49 48 47 46 43 40 39 37 35 33 31 29 28 28 27 24 22 21 21 23 23 21 22 21 22 21 20 19 19
39 38 39 39 39 41 43 42 42 43 45 48 49 48 47 46 46 44 40 39 36 35 33 31 29 28 27 27 28 30 27 23 22 19 19 20 21 21 21 21 20 20 19
39 39 39 40 41 42 41 41 42 42 43 45 45 45 44 44 42 40 38 35 34 32 30 27 27 27 28 28 28 27 23 24 22 22 21 20 21 21 20 19 19 20 20
35 39 40 40 41 41 39 39 40 40 41 41 40 41 40 38 38 35 34 33 33 32 31 30 31 30 30 29 27 26 24 22 20 20 19 20 21 24 24 23 22 22 22
32 36 39 40 40 39 38 37 35 34 34 34 33 33 33 32 32 30 30 29 30 31 32 32 32 32 33 34 32 26 21 19 19 19 19 19 21 22 24 24 24 22 22
31 29 31 35 38 38 37 36 35 35 33 32 31 32 32 31 30 31 32 32 32 31 30 31 32 32 33 31 30 25 21 19 19 19 19 18 19 22 21 23 23 24 24
31 31 31 34 36 36 36 37 36 34 34 34 33 33 33 33 34 33 33 32 32 31 31 31 32 32 33 34 33 28 20 19 19 19 19 20 21 22 23 23 23 23 24
32 33 33 34 35 36 36 35 33 35 35 34 35 36 35 34 34 33 32 32 31 31 32 32 32 32 32 32 30 22 19 18 19 20 21 22 22 23 23 23 22 23 22
34 35 34 35 35 35 36 34 33 33 32 32 33 34 35 33 33 33 33 33 33 32 32 30 30 31 26 24 22 23 19 18 19 20 20 22 21 22 23 23 22 20 19
36 36 36 36 35 35 35 32 32 31 33 34 34 34 34 33 33 33 32 31 29 26 20 14 15 12 14 15 16 18 19 18 20 20 20 20 22 24 24 22 19 19 20
35 34 32 33 35 36 34 32 31 33 33 33 31 30 30 31 27 24 18 14 11 10 10 11 11 12 12 21 21 22 20 21 21 20 20 20 24 24 21 19 18 19 20
34 33 29 27 29 33 33 31 31 28 25 19 17 15 13 13 12 11 10 10 10 10 11 11 10 11 12 12 18 20 21 21 21 21 22 24 22 19 16 16 17 18 16
30 28 22 20 18 17 18 17 15 14 14 13 13 12 12 11 11 11 12 11 11 10 10 10 9 10 12 13 17 19 20 21 20 21 22 18 15 14 15 14 15 15 16
21 20 18 17 15 15 14 13 13 13 13 15 15 13 12 11 11 12 9 7 7 7 9 11 11 11 11 14 18 19 20 21 22 22 13 11 12 13 13 13 14 15 15
19 18 17 16 14 14 13 13 13 14 14 13 12 12 11 13 14 16 17 18 18 18 18 19 16 14 16 16 18 20 20 20 18 14 11 11 13 13 13 13 14 15 16

GFSMW_sfc_30mbdewp_030.txt.gz
Dewpoint
32 33 33 34 35 36 37 38 43 57 65 65 64 63 62 63 62 62 60 59 57 56 55 52 48 38 31 29 27 24 21 21 25 26 26 26 27 26 27 28 27 24 22
30 30 30 31 32 34 35 36 39 50 62 64 64 63 63 63 62 62 61 60 57 56 54 50 45 38 32 28 26 24 22 21 24 22 25 21 24 24 23 25 24 21 20
28 29 29 29 30 31 32 35 36 42 59 63 64 61 61 60 61 61 61 60 58 56 52 48 44 38 34 31 27 26 24 22 20 23 23 21 20 23 20 21 20 20 20
22 25 26 27 29 30 31 32 34 36 46 62 63 62 61 60 60 61 61 58 57 56 51 48 45 39 35 33 29 28 27 24 21 20 19 20 22 18 15 19 20 20 19
26 28 28 28 29 30 30 30 31 33 37 49 63 62 61 60 60 61 60 58 56 55 52 48 45 39 38 34 32 30 28 26 23 22 19 19 19 17 14 13 17 20 21
29 31 33 33 33 33 35 34 30 31 34 41 59 62 61 60 57 58 58 57 54 53 51 48 44 42 39 37 33 31 30 28 26 24 21 20 19 18 16 15 16 17 18
29 32 35 35 35 34 35 36 38 37 37 38 50 61 61 60 57 57 57 55 53 51 48 46 43 41 40 38 37 34 31 28 26 23 22 22 20 21 19 17 17 16 19
29 33 36 37 36 36 36 37 37 36 37 39 44 56 61 60 58 56 56 55 53 52 49 45 44 41 40 38 35 35 31 27 26 22 22 21 21 21 20 18 17 16 18
30 35 38 38 37 37 36 36 38 38 37 39 41 47 56 59 57 56 55 55 53 51 46 44 43 41 39 36 35 32 29 28 28 27 23 22 24 23 23 22 20 16 11
34 40 41 40 37 37 37 37 38 38 40 43 44 46 51 57 57 54 54 53 51 47 45 43 41 40 37 34 31 28 26 25 26 26 23 22 24 24 24 23 22 20 18
40 41 40 40 39 40 41 43 44 45 45 45 46 48 51 54 54 53 51 49 46 44 43 41 40 37 35 31 29 26 24 24 24 24 23 22 23 23 23 23 22 21 21
40 40 39 39 40 40 41 42 42 42 43 44 46 49 51 50 51 50 46 43 43 40 40 39 37 34 31 27 26 25 27 28 28 27 27 25 22 22 23 23 21 20 20
39 38 39 40 40 40 41 42 41 42 42 43 45 47 49 48 47 46 42 41 40 39 39 37 33 30 29 28 28 28 29 29 30 30 30 26 22 21 22 21 21 21 20
35 34 37 40 40 41 40 39 40 41 42 43 44 45 45 46 45 42 40 38 38 36 34 32 30 30 30 31 32 31 30 30 29 28 26 25 23 23 22 21 19 19 20
33 31 32 37 39 39 38 37 35 35 39 40 41 41 42 42 39 37 35 34 32 31 31 31 32 32 33 33 33 32 31 31 28 27 25 23 24 25 24 22 23 22 22
32 31 31 34 37 37 37 36 35 34 33 33 34 34 34 34 34 33 33 33 32 33 33 33 34 34 34 34 32 28 27 27 26 27 26 23 21 23 24 24 24 24 23
32 31 31 33 36 36 36 36 36 35 33 32 32 31 31 31 32 32 33 33 33 33 34 34 34 35 36 35 33 31 29 29 28 23 19 19 20 23 20 22 24 24 24
32 32 33 34 36 36 35 36 36 35 34 34 33 33 33 34 34 34 33 33 33 33 33 33 33 33 35 35 34 32 28 25 24 21 21 22 21 22 23 23 23 24 24
34 33 34 35 35 36 35 34 34 34 34 34 35 35 35 34 33 32 32 32 32 32 32 32 32 31 32 34 31 27 20 19 19 20 21 22 22 23 23 23 23 23 22
35 35 36 35 35 35 34 33 33 33 32 32 32 34 33 33 32 32 32 32 32 31 31 31 32 33 32 33 31 22 18 17 19 20 20 22 21 22 23 24 23 19 19
35 35 34 35 35 36 35 33 32 31 33 34 33 33 33 33 32 32 32 31 30 29 29 28 26 25 18 19 19 25 19 18 20 20 20 20 22 24 24 24 19 19 20
34 33 32 33 35 35 34 32 32 32 33 32 32 32 32 32 31 30 28 26 18 13 12 12 12 13 18 23 23 22 20 22 21 20 20 21 24 24 22 19 18 19 19
33 31 29 29 31 33 32 30 28 24 21 19 17 17 15 14 13 11 11 11 11 11 11 11 11 11 11 12 19 21 21 21 21 21 23 25 21 18 16 16 17 17 15
32 27 25 24 23 19 17 16 16 16 15 13 12 12 11 11 12 12 12 11 11 11 10 9 8 9 12 13 17 19 20 21 21 23 20 17 15 15 14 14 14 15 15
26 23 22 20 18 16 15 14 15 14 14 14 13 12 11 11 10 9 6 7 8 8 8 9 9 9 11 14 18 20 20 21 21 20 13 11 12 13 12 13 13 14 15
22 20 18 17 15 15 13 13 14 14 13 12 12 12 13 15 16 17 18 20 19 19 19 17 15 14 16 17 18 20 20 20 17 13 11 11 12 12 13 13 14 15 15

GFSMW_sfc_30mbdewp_033.txt.gz
Dewpoint
31 33 34 34 35 36 37 38 40 50 64 65 64 64 63 63 63 63 62 60 60 59 59 59 57 52 49 43 34 29 26 25 28 29 29 30 28 33 35 34 30 30 25
29 29 30 31 32 33 35 36 38 41 55 63 63 63 62 63 63 63 62 60 60 58 58 57 55 50 47 39 32 28 25 26 29 27 28 26 27 27 27 30 28 26 24
24 28 29 29 30 31 32 33 36 38 46 59 64 63 62 61 62 62 62 61 60 58 57 56 55 51 47 40 33 29 28 26 27 28 29 25 25 27 24 26 25 24 23
29 31 32 34 33 33 33 32 34 36 40 57 62 61 59 59 60 61 62 62 60 58 58 56 54 51 48 44 37 32 30 29 26 25 24 24 27 25 22 22 23 22 21
29 32 35 36 35 36 36 36 32 33 36 45 61 62 61 60 61 61 62 61 60 59 58 55 53 51 48 45 41 33 31 29 28 26 23 22 22 20 21 21 21 22 22
30 33 37 38 39 38 39 38 38 35 33 35 44 61 61 60 61 60 60 60 59 59 58 55 53 52 49 45 43 38 35 33 30 27 24 23 22 21 20 20 19 21 21
30 34 39 40 40 39 39 38 38 38 37 39 38 44 59 61 60 59 59 59 57 56 56 55 52 52 48 47 44 41 39 36 32 28 25 25 24 23 22 22 21 19 20
30 35 39 40 40 39 38 38 37 38 39 39 39 43 47 58 60 59 58 58 57 56 56 54 53 51 48 46 44 42 40 37 34 30 27 26 24 23 22 21 21 19 19
32 38 41 41 40 38 38 39 38 38 38 40 42 42 44 50 56 57 58 58 57 56 55 53 51 49 47 45 43 41 38 35 33 32 30 29 27 25 24 22 21 19 17
37 41 40 40 40 39 40 43 43 43 44 45 46 46 47 48 53 56 56 56 56 54 51 49 48 47 45 43 42 39 35 32 32 30 28 27 27 26 26 25 22 21 17
40 40 38 39 40 40 41 42 43 42 43 43 44 46 49 51 53 52 53 53 52 49 48 47 45 44 42 41 40 38 35 31 28 27 26 25 26 26 26 25 24 22 21
40 36 36 39 41 41 41 42 41 42 43 43 44 46 49 50 50 50 50 48 48 45 45 43 42 41 39 39 37 33 29 28 27 29 29 30 30 30 29 27 26 25 24
35 33 33 38 40 40 39 39 38 37 40 42 44 45 47 48 48 47 45 44 43 42 41 40 38 37 34 31 29 28 30 31 32 32 32 30 29 28 28 28 27 27 27
34 32 31 34 38 38 38 37 36 34 36 39 42 44 45 46 45 43 41 41 41 40 39 37 33 32 30 30 31 32 32 32 32 32 31 30 30 28 29 30 30 29 26
33 32 31 34 36 37 37 37 36 34 34 35 35 37 40 40 38 38 37 36 35 33 33 33 33 34 33 33 33 33 32 32 32 32 31 31 30 31 31 29 28 27 27
32 32 32 34 36 36 36 37 36 35 33 33 32 33 33 34 35 34 35 35 34 34 34 34 35 35 36 37 35 32 30 29 29 29 30 30 31 32 33 32 30 30 29
32 32 32 34 35 35 36 36 35 35 34 33 33 33 33 34 34 34 34 34 35 36 36 36 36 36 36 36 34 32 31 31 30 29 29 28 29 30 28 28 28 26 25
33 33 33 35 36 36 35 35 36 35 35 35 35 34 34 34 34 34 34 34 34 34 34 34 35 35 36 36 35 33 30 29 29 28 27 28 28 27 25 23 25 25 25
35 35 35 35 35 35 35 35 34 34 34 33 34 34 34 33 33 32 32 33 32 32 32 32 32 32 33 34 33 29 27 27 26 27 24 23 22 22 23 23 24 24 23
35 35 34 35 35 34 33 33 33 33 32 32 33 33 33 32 31 31 31 32 32 31 32 31 32 33 32 30 30 26 19 20 19 21 20 22 20 21 23 24 26 21 20
34 34 35 35 35 35 35 33 32 31 33 33 33 33 32 32 31 31 31 31 30 30 29 29 29 29 29 31 28 22 19 18 20 20 19 20 22 25 26 24 20 19 19
33 33 34 35 35 34 34 33 31 33 33 33 32 32 32 32 31 30 29 27 25 19 16 15 16 16 19 25 24 23 23 24 20 20 20 21 25 25 22 19 18 19 19
33 31 31 32 32 32 32 29 25 22 22 20 18 16 14 13 12 12 12 12 12 12 12 11 11 10 11 15 21 21 21 21 21 22 24 24 20 18 16 16 17 17 14
31 26 26 26 24 20 20 19 19 17 14 12 12 12 12 11 12 12 12 12 12 11 10 9 7 9 11 14 18 19 20 21 22 24 19 17 15 15 14 13 13 13 14
29 25 25 24 21 18 17 17 15 14 14 13 11 11 11 9 9 8 7 8 8 8 7 8 9 10 12 16 19 20 20 21 20 20 13 10 11 11 11 12 13 14 15
25 24 22 21 18 16 15 14 15 13 12 11 11 13 14 16 18 19 20 21 20 20 19 18 15 14 17 18 18 20 20 19 17 13 10 10 11 12 13 14 15 15 16

GFSMW_sfc_30mbdewp_036.txt.gz
Dewpoint
32 32 32 32 33 34 37 38 38 40 46 57 64 64 63 64 64 65 65 63 62 61 60 58 57 58 58 56 50 46 38 34 32 30 30 30 29 33 36 34 32 31 30
27 27 29 31 30 31 34 36 36 38 40 47 57 61 63 63 64 64 64 64 63 62 61 59 58 57 57 56 52 44 38 35 32 33 32 29 28 28 33 34 32 30 28
28 32 34 35 36 35 34 33 34 36 38 41 51 58 61 62 62 62 63 63 63 62 61 60 59 57 56 55 52 45 41 36 32 33 34 31 30 29 28 31 32 29 28
33 36 37 38 39 40 40 38 35 34 35 39 44 53 57 58 58 58 61 62 63 62 62 60 60 58 55 54 52 47 43 41 35 32 31 30 32 29 27 27 28 28 27
34 36 39 40 41 42 43 41 39 36 34 36 43 51 55 55 55 56 59 60 62 62 62 61 60 58 55 54 52 48 44 42 40 35 29 27 26 26 29 28 26 26 25
33 37 40 41 41 43 43 43 40 38 39 36 37 45 53 55 55 57 59 60 61 61 61 60 60 58 57 55 54 50 46 42 41 38 31 29 28 26 25 27 27 26 25
34 37 40 41 41 42 42 41 40 39 39 39 40 38 41 51 55 56 57 58 59 60 59 59 59 58 57 56 55 51 46 44 41 38 35 31 31 28 26 27 26 24 22
35 39 41 41 41 41 40 41 41 40 39 39 40 40 42 43 46 55 57 56 55 58 59 59 59 58 57 56 55 52 49 46 43 40 37 33 31 29 26 26 25 23 22
37 40 40 40 40 41 40 42 42 42 43 44 45 44 44 44 45 48 53 56 56 57 57 58 57 58 56 55 53 52 50 48 46 43 39 33 31 29 27 26 28 28 26
39 40 38 39 41 41 41 42 42 42 43 43 43 44 46 47 48 49 52 55 55 56 57 57 57 56 54 53 51 50 49 46 44 41 35 32 30 30 29 27 25 25 23
39 38 37 38 41 42 42 41 41 42 43 43 43 44 46 49 49 51 51 52 53 54 54 54 53 53 50 49 48 47 44 42 38 36 35 33 33 30 29 28 27 27 27
37 36 35 38 40 40 40 40 40 39 40 41 43 44 46 48 49 50 50 50 51 50 50 49 49 48 47 46 45 43 41 38 36 35 32 29 29 31 31 32 31 31 29
36 35 34 35 38 38 39 40 39 37 38 40 42 44 45 47 48 48 47 47 46 45 44 45 44 44 43 42 42 39 36 32 32 32 32 33 33 32 31 31 30 31 31
35 34 34 35 37 37 38 38 38 36 36 37 39 40 43 44 44 43 43 43 43 42 41 40 39 37 37 35 32 33 34 35 34 34 34 33 32 31 31 32 31 31 30
34 34 34 35 36 36 37 37 37 36 35 35 35 37 38 39 39 38 38 37 36 36 35 35 34 34 33 33 33 34 34 33 33 32 32 32 33 34 33 32 31 30 29
33 33 33 34 34 35 35 36 36 35 35 34 34 35 36 36 36 36 36 36 36 36 36 36 36 36 36 36 35 34 33 32 32 31 31 32 32 33 34 34 33 31 31
33 33 33 34 35 35 36 36 36 35 35 35 35 35 35 35 35 35 35 36 36 37 37 37 37 37 38 37 36 34 33 32 31 30 30 30 31 31 29 31 31 32 31
34 34 34 34 35 35 36 36 36 35 35 35 34 34 34 34 34 34 34 34 34 34 34 35 36 36 37 37 35 33 31 30 30 30 29 29 28 29 28 26 25 25 25
35 35 34 35 34 33 35 35 35 34 34 34 34 34 34 34 33 32 32 33 32 32 31 32 32 32 32 34 33 30 29 27 26 27 27 25 22 21 23 22 24 23 23
35 35 35 35 34 34 35 34 33 33 32 33 33 34 33 32 31 32 31 32 32 31 32 31 31 32 31 31 29 24 25 23 21 20 20 22 20 21 23 23 24 23 21
35 36 36 35 35 36 35 33 33 32 33 34 34 34 34 33 32 32 32 32 31 31 30 30 30 30 32 30 25 21 18 18 19 18 16 17 23 25 26 25 23 20 19
35 35 36 35 35 36 35 34 33 33 34 34 33 33 33 33 33 32 31 30 27 23 19 18 18 20 24 25 24 24 23 22 17 18 18 20 25 25 23 21 19 19 20
34 35 35 34 34 35 34 31 29 28 27 27 24 21 18 15 14 13 13 13 12 12 11 12 12 11 10 19 22 22 22 22 21 21 23 23 21 19 17 14 17 18 13
33 33 33 33 32 30 29 29 27 25 18 14 13 12 11 11 11 12 12 11 11 10 8 7 6 7 9 15 18 19 19 20 21 23 21 19 16 15 14 13 11 11 13
32 31 31 30 29 26 25 24 21 15 14 13 12 12 10 8 7 9 8 7 7 8 5 6 7 8 10 16 20 20 19 20 19 22 15 9 8 9 9 11 13 14 15
31 28 30 27 25 25 23 19 15 14 12 10 11 12 13 15 17 18 19 21 21 20 19 18 15 13 17 18 19 20 20 20 17 14 7 7 9 10 11 13 15 17 18

GFSMW_sfc_30mbdewp_039.txt.gz
Dewpoint
26 32 33 33 33 34 35 36 38 38 40 47 54 63 64 64 65 65 65 63 62 61 61 59 57 57 57 58 56 53 48 45 43 34 32 33 32 33 38 37 35 34 35
28 29 29 32 32 31 32 35 36 38 39 41 45 56 63 63 64 65 64 65 64 63 62 61 59 57 57 57 57 53 48 44 40 37 39 35 32 30 33 37 34 33 33
25 30 33 35 37 38 37 35 34 35 37 39 41 45 56 62 62 63 64 64 64 64 62 62 61 59 58 58 57 54 49 45 40 41 41 40 38 32 31 34 36 33 32
31 34 36 38 39 41 44 41 39 37 35 36 38 41 48 55 59 59 61 62 62 63 63 62 62 61 59 58 57 55 50 47 42 39 38 37 37 33 30 31 33 34 31
34 35 39 41 40 43 45 45 42 38 39 35 36 39 42 48 55 57 56 56 60 62 62 62 61 61 61 59 57 55 50 49 47 42 37 36 32 33 33 29 29 31 31
34 37 40 41 40 43 44 44 42 40 39 40 38 37 41 47 51 54 54 54 57 60 61 60 61 61 61 60 57 56 52 51 50 44 39 37 35 30 28 30 30 28 29
34 37 40 41 41 42 42 42 41 41 40 39 40 40 38 39 44 51 53 55 56 58 60 61 61 61 60 59 58 57 54 52 50 47 43 38 38 32 30 30 30 29 27
35 39 41 40 41 41 41 41 42 41 42 42 41 41 41 41 41 41 45 53 54 54 56 60 60 60 60 59 59 57 56 54 51 49 46 42 40 39 40 38 30 25 24
36 39 40 39 40 41 41 41 41 41 41 42 43 43 43 44 45 45 45 47 51 53 54 56 58 58 59 59 58 57 56 52 51 49 47 45 43 37 32 33 32 32 27
38 39 38 38 40 41 42 42 42 41 42 43 43 42 44 45 47 47 48 49 52 53 54 56 57 57 58 58 57 56 55 52 51 50 49 44 36 34 33 30 30 31 32
39 38 37 37 40 41 41 41 40 41 40 41 41 42 44 45 47 49 50 50 51 51 53 53 54 54 55 54 53 52 52 51 49 45 42 37 35 36 36 36 36 35 34
38 37 36 36 38 39 39 39 40 39 39 40 41 43 44 45 47 48 48 49 49 49 49 49 49 49 50 50 49 48 47 47 42 40 38 36 36 34 34 34 32 32 32
37 36 36 35 37 38 38 39 39 38 38 39 40 41 43 45 45 44 45 45 46 46 45 45 44 44 44 44 44 43 42 41 39 38 35 33 34 33 33 32 32 32 33
36 36 35 35 37 37 37 38 38 38 37 37 37 39 40 41 40 40 40 40 41 41 40 38 36 37 35 35 36 36 36 35 35 35 35 34 34 33 33 33 32 32 31
35 35 35 35 35 36 36 36 37 36 36 35 36 37 38 38 38 38 38 38 38 37 37 36 35 34 34 35 35 35 35 34 34 34 34 34 34 34 34 32 32 32 31
35 34 34 34 34 35 35 36 36 35 36 35 35 36 36 37 37 37 37 37 37 37 37 37 36 36 36 36 36 35 34 34 33 32 33 34 35 35 35 35 34 33 31
34 34 34 34 35 35 35 35 36 35 35 34 35 35 35 35 36 36 36 36 37 37 37 38 38 38 38 37 36 35 33 32 31 31 31 31 32 32 32 33 33 34 33
35 34 34 34 34 34 35 36 36 35 34 34 34 34 34 34 35 35 34 34 34 33 33 33 33 34 37 36 35 33 31 30 30 31 31 30 30 30 28 26 27 27 27
35 35 34 34 34 34 35 36 35 35 34 34 34 34 34 34 34 33 33 33 32 32 31 32 31 31 33 34 33 31 30 29 29 30 29 26 23 25 25 23 24 25 23
36 35 35 34 34 34 35 35 34 34 33 34 34 34 33 33 32 32 32 33 32 32 32 30 31 31 30 31 30 28 27 25 21 20 21 21 21 21 23 23 24 23 22
36 36 36 35 35 35 36 34 34 33 34 35 35 35 34 33 33 33 32 32 31 31 30 30 30 32 31 27 25 22 19 18 18 16 15 17 23 25 26 26 24 22 22
36 37 36 36 36 36 35 35 34 34 35 34 34 34 34 33 34 33 33 32 27 20 17 18 19 23 24 24 23 25 24 22 17 18 18 21 25 25 23 22 20 20 19
37 37 37 36 36 36 35 34 32 31 31 30 28 25 20 17 16 14 13 13 13 12 11 12 11 10 10 17 22 23 22 22 22 22 24 23 22 20 17 13 16 18 16
36 36 36 35 35 35 33 32 31 30 25 17 14 12 12 11 12 13 12 11 10 9 8 6 6 7 9 14 17 18 19 19 20 21 22 20 18 14 14 14 10 11 12
35 35 35 35 34 32 32 31 28 18 15 14 14 13 10 8 9 14 12 9 13 13 6 8 9 9 10 17 20 21 20 21 21 20 18 12 7 8 9 10 11 14 15
35 33 34 33 31 30 29 27 20 16 14 11 12 12 14 16 17 18 19 22 21 21 19 19 18 13 17 19 19 20 21 20 19 16 10 6 9 10 11 12 15 18 19

GFSMW_sfc_30mbdewp_042.txt.gz
Dewpoint
26 30 33 32 31 32 35 36 37 39 41 44 54 65 64 64 65 65 65 65 63 61 60 59 58 59 61 61 59 56 52 48 45 38 34 34 32 33 40 39 38 38 38
26 29 30 34 35 34 35 36 37 38 40 41 43 51 64 64 64 64 64 64 65 64 62 61 60 58 58 59 58 56 52 48 45 36 34 33 34 32 32 39 37 36 37
25 30 33 37 39 40 41 39 38 38 37 38 40 42 45 63 63 62 63 64 64 64 64 62 62 61 58 58 58 57 53 48 44 39 39 40 38 32 32 32 38 35 34
33 35 37 39 40 43 46 46 43 40 39 36 36 38 40 44 58 62 63 63 63 63 64 64 63 62 61 59 58 58 55 49 44 41 42 43 39 34 31 32 35 36 33
34 36 39 41 41 45 45 46 45 43 40 40 37 37 38 42 44 51 59 62 63 64 63 63 63 62 62 61 60 59 56 50 47 43 42 42 37 35 35 30 30 34 34
35 37 40 41 42 44 44 44 43 42 42 41 41 39 38 40 41 47 53 56 56 59 62 62 61 61 62 61 61 59 58 53 49 46 46 43 40 35 33 34 30 31 32
35 37 41 41 42 42 43 42 42 42 42 43 42 42 42 42 41 41 42 47 54 57 59 61 60 60 61 62 61 60 58 54 51 51 47 44 45 40 36 36 32 30 30
36 39 41 40 40 41 42 42 42 42 42 43 43 44 44 44 44 44 45 45 47 51 55 59 60 60 60 61 61 60 58 57 53 52 50 47 44 43 41 39 38 36 31
36 40 39 39 40 41 42 42 42 41 42 42 44 43 43 45 46 46 47 48 50 53 54 55 58 59 60 60 60 59 58 58 55 54 52 48 45 45 43 42 43 42 34
38 39 38 38 39 41 41 41 41 41 41 41 41 42 43 45 47 49 50 50 50 51 51 53 54 55 57 59 59 58 57 56 54 53 51 49 44 42 40 38 36 40 38
39 38 37 37 39 40 39 40 40 40 39 40 40 42 44 45 48 49 48 48 49 49 50 50 50 51 52 54 54 53 53 53 51 50 50 43 39 38 37 36 37 38 39
38 38 36 36 38 38 39 39 40 39 38 38 39 41 43 45 45 44 45 47 47 47 46 46 46 47 47 49 49 48 47 48 46 44 42 39 38 37 37 36 36 36 37
37 37 36 35 37 38 38 38 38 38 37 37 38 39 41 41 41 41 40 41 42 41 39 39 39 39 40 42 41 42 43 42 41 40 39 38 36 35 35 35 34 35 35
36 36 36 36 36 37 37 37 37 37 36 36 37 37 39 39 39 39 39 39 38 37 36 36 35 35 35 36 37 37 36 36 36 36 36 35 35 34 34 34 33 33 33
35 35 35 35 35 35 35 36 36 36 36 36 36 37 38 37 37 37 38 38 38 38 37 36 36 36 37 36 36 36 35 35 35 35 35 35 35 35 34 33 33 32 31
35 35 34 34 34 35 34 34 36 35 36 35 36 36 36 36 37 37 37 37 38 38 38 38 37 37 37 37 36 35 34 33 33 32 32 33 35 37 36 36 35 33 31
35 34 34 34 34 34 35 36 36 35 35 34 35 35 35 34 35 35 35 36 35 35 35 36 37 37 37 37 36 34 32 31 31 31 31 32 33 32 33 35 35 35 34
35 34 34 34 33 34 35 36 36 35 35 34 34 34 34 34 35 35 34 34 33 33 33 33 33 34 36 36 35 32 31 31 31 31 31 30 30 30 30 29 29 28 27
35 34 34 33 33 33 35 36 35 35 35 34 33 34 33 34 33 32 32 33 32 31 31 31 31 32 33 34 33 30 29 29 29 30 30 29 29 30 27 24 25 25 25
35 34 34 33 33 34 36 35 34 34 34 34 34 34 34 33 32 32 32 32 31 31 31 30 31 30 29 28 26 27 27 25 25 24 23 20 21 22 23 25 24 24 21
35 35 35 34 34 36 36 34 34 33 35 35 35 34 34 33 33 32 31 32 30 29 27 28 30 31 28 26 26 22 21 18 17 16 17 22 24 25 26 25 23 22 23
37 36 36 35 35 36 36 34 34 35 34 34 34 34 34 34 33 32 31 30 26 20 18 18 19 20 24 24 24 24 22 23 20 19 22 25 25 24 23 22 21 20 20
37 37 37 36 35 36 35 34 34 34 32 30 30 28 27 27 27 20 15 14 13 13 12 12 11 9 10 17 20 21 21 22 21 22 23 22 21 20 17 15 16 18 15
37 37 37 36 35 36 35 34 32 31 30 18 13 13 12 12 12 12 11 11 10 9 7 6 7 8 10 16 21 21 21 22 22 22 21 20 17 11 11 12 11 12 12
37 37 37 36 35 35 34 32 32 28 16 14 14 13 12 9 15 22 22 13 17 17 9 12 11 10 15 19 20 20 21 21 21 20 18 15 8 9 10 11 12 14 15
36 36 36 36 35 33 32 31 26 17 15 13 13 12 12 16 18 20 20 22 22 21 20 19 18 17 17 19 20 20 21 21 21 17 13 8 10 11 13 14 16 19 19

GFSMW_sfc_30mbdewp_045.txt.gz
Dewpoint
28 32 31 32 32 33 34 35 36 38 41 53 63 64 64 64 64 64 64 65 65 63 59 59 58 61 61 61 61 59 56 48 45 41 37 36 35 36 40 41 42 46 46
28 31 34 36 37 38 39 38 38 37 37 39 43 56 64 64 64 65 65 64 64 64 64 61 59 59 61 61 60 59 54 51 45 41 35 33 33 33 33 38 40 40 41
26 32 37 39 41 41 43 43 42 40 39 38 37 38 44 61 63 63 63 64 64 64 64 64 62 60 59 60 60 59 56 53 49 43 40 37 36 35 33 32 39 38 38
31 37 39 40 41 44 45 46 45 44 41 39 37 36 37 39 50 62 63 63 63 64 63 63 63 62 61 59 58 59 58 55 50 45 41 44 41 37 37 34 34 38 36
35 38 40 41 44 45 45 45 44 42 42 41 41 39 37 39 41 44 50 60 63 63 63 63 63 62 62 61 60 59 57 54 53 48 44 44 41 37 36 37 35 38 37
36 39 41 41 43 44 43 43 43 42 43 43 43 42 42 41 40 40 41 44 52 59 63 63 63 63 62 62 61 60 58 57 53 50 48 44 42 42 37 37 37 37 38
35 38 41 41 42 42 42 42 42 42 43 43 44 44 43 44 44 43 44 44 46 50 56 61 61 61 61 60 60 61 60 58 55 51 49 48 46 46 42 40 37 35 36
36 41 41 40 40 42 42 42 42 42 42 42 43 43 43 44 46 46 46 48 50 53 54 55 58 59 59 60 60 60 59 58 56 54 51 49 49 48 45 44 41 39 35
39 40 39 39 40 42 42 41 41 41 41 41 41 42 42 44 47 49 50 50 50 51 51 53 53 56 58 59 59 59 58 58 57 55 54 52 50 48 46 46 45 43 41
39 39 38 38 41 40 40 40 40 39 39 39 40 42 44 46 49 48 48 48 49 49 49 50 50 52 53 56 57 57 56 56 55 55 54 51 48 47 46 44 44 45 43
39 38 37 39 39 39 39 40 40 38 37 38 39 41 43 45 46 44 46 47 47 46 46 47 47 47 49 51 52 52 52 52 52 51 51 48 45 43 41 41 41 41 43
38 37 36 38 38 38 39 38 38 37 37 37 38 40 40 41 41 40 40 42 41 39 38 38 39 40 42 43 46 46 46 47 47 46 45 42 40 39 38 38 37 38 39
37 36 35 37 37 38 37 37 37 37 37 37 37 39 39 39 39 39 39 38 38 37 36 35 35 36 37 39 39 40 40 41 41 40 40 39 38 37 36 36 37 37 37
37 36 36 36 37 36 36 36 36 36 36 37 37 38 37 37 38 38 38 38 37 36 36 36 36 36 36 36 36 37 37 36 36 36 36 36 36 36 35 35 35 34 34
35 35 35 35 35 35 35 35 36 36 36 36 36 37 37 37 37 37 38 38 38 37 37 37 37 37 37 37 35 35 35 35 35 35 36 36 36 36 35 34 33 33 32
35 35 34 34 34 34 34 35 36 35 35 35 36 36 36 36 36 36 36 37 37 38 38 38 37 36 36 37 36 34 33 33 33 32 33 34 35 37 37 36 35 34 32
35 34 34 34 34 34 35 36 36 35 35 35 35 35 35 35 35 36 35 35 35 35 34 35 36 36 36 36 36 34 32 31 31 31 31 31 32 32 32 33 34 35 36
34 34 34 33 33 35 36 36 36 35 34 34 34 34 35 35 35 34 34 34 33 33 33 33 34 36 36 36 34 32 30 30 30 30 30 29 29 30 30 29 29 28 27
34 34 33 33 33 35 36 36 35 35 35 34 34 34 34 34 33 33 32 32 31 30 31 32 32 32 33 31 31 29 27 27 27 28 28 28 28 28 24 25 24 25 24
34 34 33 33 33 35 36 35 35 34 34 34 34 34 34 33 32 32 31 32 31 30 30 29 29 29 26 25 25 27 26 23 24 25 21 22 22 24 25 26 23 23 21
34 34 33 33 34 35 35 34 34 33 35 35 34 34 34 33 32 32 32 31 29 28 27 28 29 29 25 26 26 23 21 18 17 17 19 23 25 25 26 25 22 22 23
35 35 34 35 36 36 35 34 33 35 35 35 34 34 34 34 32 31 30 28 24 20 20 20 19 20 21 23 24 23 23 24 20 21 23 24 24 23 22 20 20 19 20
36 36 36 35 35 36 35 33 33 34 33 33 32 32 33 32 31 28 25 20 17 13 12 13 11 8 10 15 22 22 22 23 22 22 24 23 21 20 17 16 16 16 13
37 37 36 36 35 36 35 34 34 33 32 29 25 15 13 13 13 12 13 11 10 9 8 7 8 9 12 19 21 21 21 22 21 22 19 20 19 13 12 12 12 12 13
37 37 37 36 36 36 35 34 33 32 30 17 13 13 14 12 17 21 12 13 16 15 8 12 12 10 14 18 20 20 21 21 22 21 16 13 9 10 11 12 14 17 18
37 37 37 36 36 36 35 33 33 30 22 14 14 13 11 11 18 21 21 23 22 21 20 21 17 17 19 20 20 21 22 22 21 19 13 10 11 11 13 14 16 18 19

GFSMW_sfc_30mbdewp_048.txt.gz
Dewpoint
30 32 32 32 35 36 36 36 37 38 55 63 63 63 63 63 63 64 64 64 65 64 60 59 59 60 61 60 60 59 58 54 47 43 39 38 37 37 40 42 49 51 50
29 33 35 37 38 39 40 40 39 38 37 40 45 59 63 64 64 64 64 64 64 64 64 61 59 59 60 60 60 60 57 56 49 46 39 41 39 36 35 38 41 45 49
29 34 37 39 41 42 43 44 44 43 40 38 38 39 41 58 62 63 63 64 64 64 63 63 63 60 60 60 60 60 59 57 51 48 47 39 43 38 35 34 37 40 42
28 36 39 40 41 44 45 45 44 42 42 41 39 37 36 37 44 53 60 62 63 63 63 63 63 62 60 59 60 60 60 58 55 50 47 46 41 39 41 35 34 38 39
34 38 39 41 44 45 44 44 42 43 43 42 42 41 40 40 41 42 42 46 51 59 63 63 63 62 62 61 60 59 59 58 58 51 48 47 45 40 39 41 39 40 39
38 39 41 44 44 43 43 42 42 43 43 44 44 43 43 43 43 42 42 44 46 50 56 60 62 62 61 61 60 59 58 58 57 56 53 49 46 45 41 38 39 39 41
38 40 41 42 42 42 42 42 42 42 42 43 43 43 43 44 45 45 45 46 48 52 53 55 58 61 61 61 60 60 59 58 57 56 53 52 49 49 46 46 46 42 41
37 40 41 41 41 42 42 42 41 41 41 41 41 42 43 44 46 48 49 50 50 51 51 52 54 56 58 58 59 59 59 58 58 57 54 53 51 50 49 47 45 42 40
38 41 40 40 41 41 41 41 40 40 39 40 40 42 44 45 48 48 48 48 49 49 50 50 51 52 53 56 58 58 57 57 57 56 55 52 52 51 50 49 48 47 44
40 39 39 41 40 40 40 40 39 38 38 39 40 42 45 48 47 47 46 47 47 46 47 47 48 49 50 52 54 54 54 54 54 54 54 53 51 50 49 48 47 47 46
39 38 38 40 39 39 39 39 38 37 37 37 39 41 41 42 42 42 43 43 40 40 39 41 43 44 45 46 48 48 48 49 49 48 49 48 46 46 45 44 44 43 44
38 37 38 38 38 38 38 38 37 37 36 37 38 39 39 40 39 39 38 38 37 37 36 37 37 38 40 40 42 43 43 44 44 43 43 41 41 40 39 39 39 39 40
38 36 37 37 38 38 37 37 37 36 36 37 38 38 38 38 38 38 38 37 37 36 36 36 36 36 37 37 38 38 38 38 38 39 39 38 38 38 37 37 37 37 37
37 36 36 37 37 36 36 36 36 36 36 37 37 37 37 37 38 38 38 38 37 36 37 37 37 37 36 35 35 35 35 36 36 36 36 36 36 35 35 35 35 34 34
36 36 36 36 35 35 35 35 36 36 36 36 37 37 37 37 37 37 37 38 38 38 38 37 36 36 36 36 34 34 34 34 34 35 36 38 38 37 36 34 34 33 33
36 35 35 34 34 34 34 36 36 35 35 36 36 36 36 36 36 36 37 36 36 36 37 36 35 36 36 36 36 34 33 33 33 32 33 34 35 36 38 37 36 35 33
35 34 34 34 34 34 35 36 35 36 35 35 35 35 35 35 36 36 35 35 34 35 35 35 37 36 36 36 35 34 32 31 31 30 30 30 32 31 32 33 34 34 35
35 34 34 34 34 35 36 36 35 35 34 34 34 35 35 35 35 35 34 33 33 33 33 33 34 35 35 35 34 32 29 28 28 28 28 27 28 29 29 28 26 27 26
35 34 34 33 34 35 36 36 35 35 34 34 34 35 35 34 34 33 32 32 31 31 31 32 32 30 28 29 29 26 25 25 25 26 26 24 24 24 25 24 24 24 23
34 34 33 33 34 35 36 35 35 34 34 34 34 35 35 34 32 32 31 31 30 30 29 28 28 29 25 26 27 24 23 21 21 19 18 25 25 26 27 24 23 22 22
34 33 33 33 34 35 36 34 34 34 34 34 35 34 34 33 32 31 31 29 28 27 28 28 29 25 25 26 25 24 22 18 18 19 20 23 26 25 24 24 22 22 23
34 33 33 34 35 35 34 34 34 35 35 34 34 34 32 32 31 30 29 27 25 23 23 22 19 18 19 23 23 23 23 24 20 21 23 23 23 22 21 19 18 18 20
35 34 34 34 35 35 34 33 34 34 34 34 33 33 33 32 31 27 27 26 23 16 15 15 11 8 10 16 24 24 25 25 22 22 23 23 23 21 17 16 15 15 12
35 35 35 35 35 36 35 33 34 33 33 32 31 31 30 29 27 23 16 14 13 11 10 7 7 9 11 19 20 21 20 22 22 22 19 17 18 13 13 13 13 13 13
37 36 36 35 35 36 35 34 34 33 32 30 28 18 14 16 12 12 10 11 13 10 7 8 10 9 12 16 21 21 21 21 22 21 17 12 9 11 11 13 15 17 19
38 38 37 36 36 36 35 34 34 33 31 27 17 13 13 13 17 21 21 22 22 21 21 21 15 16 19 20 20 21 21 22 22 20 16 10 10 10 12 14 15 16 18

GFSMW_sfc_30mbdewp_051.txt.gz
Dewpoint
30 32 33 33 35 37 41 43 52 47 60 63 63 63 62 63 63 64 64 64 64 61 59 59 59 60 60 60 59 58 58 57 51 48 46 43 40 39 38 40 45 52 53
29 33 34 35 36 38 38 38 38 38 38 47 52 62 63 63 63 64 64 64 64 64 64 61 59 59 59 60 60 60 58 57 52 52 44 48 46 39 38 38 40 44 52
28 33 36 38 40 41 42 43 43 41 40 38 38 39 41 51 61 62 63 63 64 64 63 64 63 61 59 59 59 60 59 58 54 51 53 46 46 43 40 36 37 40 44
29 34 37 39 41 44 45 45 43 42 42 41 39 37 36 36 40 46 50 48 57 62 63 63 63 62 61 60 60 60 59 58 57 51 50 49 43 47 46 40 36 35 39
29 35 38 40 44 45 44 43 43 43 44 43 42 41 41 41 42 42 41 42 44 47 55 60 62 62 62 61 60 59 59 59 58 55 51 49 47 44 45 49 47 42 41
31 38 40 44 44 43 42 42 42 43 44 44 44 43 43 44 44 44 44 45 46 52 53 54 58 61 61 61 60 59 58 58 58 58 55 52 50 48 46 44 46 44 43
37 40 42 43 42 42 42 42 42 42 42 42 42 42 43 43 45 45 46 47 49 51 51 52 53 56 59 60 60 59 58 58 57 57 56 54 54 52 50 48 47 45 44
39 41 42 42 42 42 42 42 41 40 40 40 41 42 43 44 47 49 49 49 49 50 50 50 51 52 54 57 58 58 58 58 57 57 56 55 54 52 51 49 48 46 44
39 41 41 41 42 41 41 41 40 39 39 39 41 43 45 46 48 47 48 48 47 48 48 48 48 49 51 53 56 57 57 57 56 56 56 54 53 52 51 51 50 48 45
39 40 40 41 41 40 40 39 39 38 38 38 41 42 44 45 45 45 46 44 42 42 43 44 45 45 46 48 51 51 51 52 51 51 52 52 49 49 49 49 48 48 47
39 39 39 40 39 40 39 38 38 37 37 37 40 40 41 40 40 40 40 39 38 38 38 38 40 40 41 43 45 45 45 46 46 45 46 43 43 43 42 42 42 43 43
39 38 39 39 39 38 38 38 37 37 36 37 39 39 39 39 39 38 38 37 37 36 37 37 37 37 38 38 39 40 41 41 41 41 41 40 40 39 39 39 39 39 39
38 37 38 38 38 38 37 37 37 36 36 37 38 38 38 38 38 38 37 37 36 36 37 37 36 36 36 36 36 37 37 37 37 37 36 36 37 37 37 37 36 36 37
38 37 37 37 38 37 37 36 36 36 36 37 37 37 37 37 37 38 38 38 37 37 37 37 37 36 35 35 35 35 34 35 36 36 37 36 35 35 35 35 35 34 34
37 36 36 37 36 36 36 36 36 36 37 37 37 37 37 37 37 37 37 37 37 37 36 36 36 36 36 36 34 34 34 34 34 35 35 37 38 38 37 34 34 34 33
37 36 36 36 35 35 35 36 36 35 36 36 36 36 36 37 36 37 36 36 36 36 36 36 35 36 35 36 35 34 33 33 33 32 32 34 34 34 37 37 36 36 32
37 36 35 35 35 34 35 36 35 36 35 35 35 36 36 36 36 36 35 35 35 35 35 36 36 36 35 35 35 33 32 30 29 28 28 29 30 29 28 29 29 29 30
36 35 35 35 35 35 36 36 35 35 35 35 35 35 36 35 35 35 34 33 33 33 33 33 33 32 33 33 33 30 26 26 26 26 25 24 25 26 27 24 24 25 23
36 35 35 34 34 35 36 35 35 35 34 34 34 35 35 35 34 33 32 32 32 31 31 31 27 26 26 28 27 25 23 23 23 22 23 22 24 26 29 24 23 23 22
35 34 34 34 34 35 36 35 35 35 34 34 35 35 35 34 33 32 32 31 31 29 28 27 27 28 25 27 25 21 20 17 17 17 19 25 26 26 26 24 22 20 22
34 34 33 33 34 36 36 35 35 34 34 35 35 35 34 33 32 31 31 30 28 27 27 27 27 24 25 25 25 26 22 18 18 19 21 23 25 24 23 23 20 21 22
34 33 33 33 35 36 35 35 34 35 35 35 34 34 33 32 31 30 28 27 25 25 25 23 20 17 16 23 23 24 24 24 20 20 22 23 25 23 21 17 18 19 19
34 34 33 34 35 35 35 34 34 35 34 34 34 32 32 31 30 27 25 24 22 18 17 16 13 9 9 15 24 25 25 24 23 22 23 22 20 22 19 15 16 16 12
34 34 34 34 34 35 34 34 34 35 34 33 33 32 31 30 29 27 25 23 19 14 11 10 8 8 9 15 20 20 20 22 22 22 20 18 15 14 14 13 13 14 15
37 35 34 35 35 35 35 34 34 34 33 32 31 31 30 30 24 21 15 14 12 11 8 7 7 8 8 14 20 22 21 21 22 22 19 14 9 10 10 12 14 16 18
38 37 37 37 36 36 35 35 34 33 32 31 30 27 20 17 14 15 18 20 19 24 22 17 13 13 18 20 21 21 21 22 23 21 18 14 10 9 10 11 13 15 16

GFSMW_sfc_30mbdewp_054.txt.gz
Dewpoint
35 32 32 33 34 40 47 55 61 61 63 63 62 62 62 62 62 63 63 64 62 60 60 60 60 60 60 59 59 58 58 57 54 53 53 50 47 45 43 41 41 46 52
31 31 32 35 36 37 39 41 43 42 51 60 61 62 62 62 63 63 63 63 64 64 63 61 59 59 59 59 59 59 58 57 54 55 49 53 51 45 42 40 40 40 48
31 31 34 36 38 39 40 40 41 40 39 38 39 40 42 47 57 61 62 62 63 64 63 64 63 62 60 59 59 59 59 58 55 53 56 50 49 46 46 41 38 38 41
30 31 35 38 39 42 45 43 42 42 41 41 38 36 36 36 39 41 43 42 46 52 59 62 62 62 62 60 60 59 59 58 58 53 52 52 47 51 50 45 40 36 37
31 30 35 39 42 45 43 43 43 43 44 43 42 41 41 42 43 42 42 43 45 48 52 54 56 59 60 61 60 60 59 59 58 56 54 52 49 47 47 50 50 45 43
31 31 37 42 44 43 42 43 43 43 44 44 43 43 43 43 43 44 44 45 47 51 51 52 53 56 57 58 59 59 59 58 58 58 56 54 52 49 48 47 47 48 47
29 34 39 43 42 42 42 42 42 41 41 42 42 42 43 43 44 45 46 47 49 50 50 50 50 52 54 57 59 59 59 57 57 57 57 56 55 53 51 50 49 48 46
32 36 41 42 42 42 42 42 41 40 40 40 41 43 44 44 46 48 49 48 48 49 49 48 49 49 52 53 57 58 58 57 57 57 56 55 55 54 52 50 49 47 46
36 40 42 42 42 41 41 41 40 39 39 40 41 43 46 46 47 47 47 46 45 45 45 46 46 47 48 50 54 55 54 55 54 54 55 54 53 52 52 51 50 49 45
40 41 41 41 41 41 40 39 39 38 38 39 41 42 43 44 44 45 43 41 40 40 40 41 42 42 43 46 48 49 50 49 48 49 48 47 47 47 46 47 47 47 46
40 40 40 41 40 40 39 38 38 37 37 38 40 40 40 40 40 39 39 38 37 37 38 38 39 39 39 41 43 43 45 45 44 43 43 42 42 42 42 42 43 43 43
40 40 40 39 39 39 38 38 37 37 37 37 39 39 39 39 38 38 37 37 37 37 37 37 36 37 37 37 39 39 39 39 39 39 39 38 39 39 39 39 39 39 39
39 39 39 39 38 38 37 37 37 36 36 37 38 37 37 37 37 37 37 37 37 37 37 37 35 35 35 35 35 35 36 36 36 36 35 35 35 35 36 36 36 36 36
38 38 38 38 38 38 37 37 36 36 36 38 37 37 37 37 37 37 37 37 37 36 36 36 36 36 35 34 35 35 35 35 36 37 37 37 35 34 34 34 34 34 34
38 37 37 38 37 37 36 36 36 36 36 37 36 36 37 37 37 37 37 37 36 36 36 36 36 36 36 35 34 35 35 35 34 34 35 36 38 37 36 35 34 34 33
37 37 37 37 37 36 36 35 36 36 37 37 37 37 37 37 37 37 36 36 36 36 36 36 35 36 36 36 35 34 33 32 31 30 31 32 30 31 34 34 35 34 31
37 37 37 36 36 35 35 35 35 36 36 36 36 36 36 36 36 36 35 35 35 35 35 36 35 34 35 35 34 33 30 26 25 25 27 28 29 28 24 27 27 28 29
37 37 36 36 35 35 35 36 36 35 35 35 35 36 36 36 36 35 34 34 34 34 33 32 30 31 32 32 31 28 24 24 24 23 22 22 24 27 25 24 23 24 23
37 37 36 35 35 35 36 36 35 35 35 34 35 35 36 35 35 33 33 33 32 32 30 28 25 26 27 28 27 24 22 20 20 20 24 24 25 27 28 23 22 21 22
36 36 35 34 35 35 36 35 35 34 34 34 35 36 36 35 33 32 32 32 31 30 28 26 25 28 25 26 24 20 18 15 16 19 21 25 26 26 25 23 21 18 21
35 34 34 34 34 35 36 35 35 34 35 35 35 35 35 34 33 32 31 30 28 27 26 26 25 23 25 24 25 26 21 19 18 20 21 23 25 24 23 23 18 19 22
34 34 34 34 35 36 35 35 34 35 35 35 35 34 34 33 32 31 29 28 26 26 25 25 21 18 15 22 25 24 25 25 21 20 21 23 23 24 23 18 17 19 15
34 34 33 34 35 36 35 34 34 35 34 34 34 33 32 32 31 29 26 25 24 22 20 18 14 11 9 12 24 25 24 24 22 22 23 23 19 19 17 16 17 16 12
34 34 33 33 34 35 35 34 34 34 34 34 33 32 31 31 30 27 25 23 22 18 15 13 11 8 8 10 18 20 20 22 22 22 22 21 15 14 14 13 13 15 17
35 34 34 34 34 35 34 34 34 34 33 33 32 31 31 31 28 27 25 24 20 17 12 10 8 7 6 10 18 21 22 21 22 24 20 17 11 9 9 11 13 15 16
38 37 37 37 36 36 35 34 34 34 33 32 31 31 30 30 27 23 18 21 19 19 20 19 11 11 14 19 22 22 21 21 23 21 19 16 13 10 9 10 11 12 13

GFSMW_sfc_30mbdewp_057.txt.gz
Dewpoint
39 37 35 33 33 42 55 61 62 62 63 63 62 62 61 62 62 62 62 62 61 61 61 62 62 62 61 60 60 60 59 58 58 57 57 56 55 54 54 52 49 49 48
36 34 33 33 34 36 42 48 58 59 61 62 63 63 63 63 63 63 63 63 63 64 63 62 61 60 60 60 60 60 58 58 57 58 54 55 53 51 49 48 46 45 44
36 34 32 33 36 38 39 41 43 43 44 51 49 48 48 51 58 61 62 61 59 63 64 64 64 63 61 61 60 60 59 59 57 57 57 52 50 49 49 46 43 42 42
33 33 32 34 38 40 43 42 42 41 41 40 39 39 42 42 41 42 44 43 44 46 53 60 62 63 62 61 61 60 60 59 58 55 54 55 52 53 51 50 45 39 40
34 33 32 35 39 44 44 43 43 43 44 43 41 40 40 41 43 44 44 46 47 52 53 54 55 57 58 58 59 59 59 59 59 57 55 55 52 50 50 50 52 49 48
34 34 33 38 42 44 43 44 44 44 44 44 44 43 43 44 44 44 44 46 48 52 51 51 52 54 56 56 57 57 59 59 59 59 58 55 53 52 49 48 49 49 50
33 32 34 40 43 43 43 43 42 42 42 42 42 43 43 43 44 45 46 47 49 49 50 50 49 50 52 54 57 58 59 58 58 58 57 56 55 54 51 51 50 49 48
28 32 36 41 43 42 42 42 41 41 41 41 42 43 44 44 46 48 49 48 48 48 47 48 48 48 49 51 55 57 58 58 57 57 57 56 55 54 53 52 50 47 46
29 32 40 42 42 42 42 41 40 40 40 41 42 43 46 46 47 47 47 46 44 43 44 44 45 45 46 49 52 53 54 53 53 53 54 54 51 52 52 51 51 49 45
35 39 42 42 42 41 41 40 40 39 39 40 41 42 43 44 45 45 43 40 39 39 40 41 41 42 43 45 48 49 49 48 48 48 48 47 47 46 46 47 47 48 47
38 41 41 41 41 40 39 39 38 38 38 39 40 41 41 40 40 40 39 38 38 38 38 39 39 39 40 41 43 44 44 44 43 43 43 42 42 42 42 43 43 43 44
40 41 41 40 40 39 38 38 38 37 37 38 39 39 39 39 38 38 37 37 37 37 37 37 37 37 37 38 39 39 39 39 38 39 39 38 39 39 39 40 39 39 39
40 40 40 39 39 38 38 38 37 37 37 38 38 38 38 38 38 37 37 37 37 37 37 36 35 35 36 36 36 37 37 37 37 36 36 36 36 36 36 37 37 36 37
39 39 39 39 39 38 38 37 37 36 37 38 37 37 37 37 37 37 37 37 37 36 36 37 36 35 35 36 36 36 36 36 37 38 38 36 35 35 36 36 36 35 36
37 38 39 39 38 38 37 37 36 36 37 37 37 37 37 37 38 38 37 36 36 36 36 36 36 36 36 35 35 36 35 35 34 34 35 35 38 37 36 35 34 34 34
36 38 38 38 38 37 37 36 36 36 37 37 37 37 37 37 37 37 37 36 36 36 36 35 36 36 36 35 36 34 33 32 33 32 32 30 29 31 33 34 34 33 32
36 38 38 38 38 37 36 36 36 36 37 37 37 37 37 37 37 36 36 36 36 36 36 35 35 35 36 35 34 31 28 27 28 28 28 27 28 25 25 27 27 28 29
34 37 37 37 37 36 36 36 36 36 36 36 36 36 36 36 36 35 35 35 35 34 33 32 32 33 34 33 31 27 25 25 24 23 24 26 27 28 25 24 24 24 27
33 37 37 37 36 36 36 36 35 35 35 35 35 36 36 36 35 34 34 34 33 32 30 28 28 28 29 28 27 24 22 22 22 23 25 26 26 28 27 23 21 20 22
36 36 36 36 35 35 36 35 35 35 35 35 36 36 36 35 34 33 33 33 32 31 28 27 26 28 26 26 24 22 17 16 16 19 21 26 26 25 27 23 19 18 21
36 35 35 35 35 35 35 35 35 34 35 35 36 36 36 35 34 33 32 31 30 28 26 26 24 24 25 26 28 24 19 18 18 19 20 23 26 24 23 24 17 20 22
35 34 35 34 35 35 35 35 34 35 35 35 35 35 35 34 33 32 31 29 28 27 26 25 23 21 18 22 25 25 26 25 21 20 21 23 23 22 24 20 17 22 15
34 34 34 34 35 35 35 35 35 35 35 35 35 34 33 32 31 30 29 27 26 24 23 21 17 12 9 11 22 25 25 24 23 22 23 24 20 18 16 17 18 16 13
34 34 34 34 34 35 35 35 35 35 34 34 33 33 32 31 30 29 28 25 23 20 17 16 14 12 8 9 14 19 21 22 22 22 23 22 18 15 15 12 13 14 16
34 34 34 34 34 35 35 35 34 34 34 34 33 32 31 32 30 29 25 24 23 20 16 13 11 9 7 8 13 18 20 22 22 24 22 19 15 12 9 10 12 14 14
36 36 36 35 36 35 35 35 35 34 33 33 32 32 32 31 30 28 25 27 26 24 24 19 12 9 11 14 20 24 24 22 22 23 21 19 15 13 10 9 9 11 13

GFSMW_sfc_30mbdewp_060.txt.gz
Dewpoint
41 41 40 37 35 39 59 62 63 63 64 64 63 62 62 63 63 63 63 62 62 62 62 62 62 63 62 61 61 61 60 60 60 59 58 58 58 57 57 56 55 54 54
40 40 38 37 35 36 44 58 61 62 63 63 63 63 63 63 62 63 63 63 63 63 63 63 63 63 63 62 62 61 61 60 61 59 58 56 52 52 54 54 53 52 51
39 39 36 35 38 38 39 44 52 60 62 63 62 61 60 60 62 63 64 64 61 64 64 64 64 64 64 63 63 63 62 60 61 60 59 55 49 51 52 52 50 48 48
39 37 36 35 37 40 42 43 44 46 48 53 57 58 59 59 54 51 48 47 45 46 48 56 61 63 63 62 62 62 62 61 59 59 59 59 56 53 51 53 51 47 46
38 37 37 37 38 43 45 44 43 43 43 42 42 44 43 41 42 43 44 45 47 51 52 51 53 53 55 57 58 58 58 60 59 59 57 57 57 55 54 51 53 53 50
36 36 37 37 38 45 46 45 43 43 44 44 44 43 43 42 43 44 44 45 46 50 51 51 52 53 54 55 55 55 56 56 56 58 59 56 54 54 53 51 52 51 52
34 35 36 37 39 44 45 45 43 43 44 44 44 44 45 44 44 45 45 45 46 49 50 50 50 50 51 53 55 55 56 57 57 56 58 58 57 55 52 51 51 50 50
26 30 35 36 40 44 44 43 43 42 42 43 43 44 44 44 44 46 47 47 48 48 48 48 48 49 49 50 52 54 56 58 58 58 58 57 57 56 54 52 51 50 49
27 29 33 36 40 43 43 43 42 42 42 42 43 43 45 45 45 48 48 48 46 44 44 45 45 46 47 49 51 53 54 54 54 53 53 52 51 52 53 53 52 51 47
28 31 33 39 41 42 43 42 41 41 41 42 42 43 44 46 47 47 46 44 42 42 42 43 43 44 45 47 49 50 49 49 49 49 49 48 48 48 48 49 50 49 49
32 36 38 41 42 42 42 41 41 40 40 40 41 42 42 43 44 44 43 41 40 40 40 41 41 41 42 44 46 46 46 45 45 45 44 44 45 45 44 45 45 45 46
37 39 40 41 41 41 40 40 40 39 39 39 40 40 41 41 41 41 40 39 39 39 39 39 39 39 40 41 42 42 42 42 42 41 42 41 41 42 42 42 42 42 42
39 40 41 41 41 40 40 39 39 39 38 39 39 39 39 40 40 40 39 39 39 39 38 38 37 37 38 39 39 39 39 39 38 38 38 38 39 39 39 39 39 39 39
38 40 41 40 40 40 40 39 39 38 38 38 38 38 38 39 39 39 39 38 38 38 38 38 37 37 37 38 38 38 38 38 38 38 38 37 37 37 37 38 37 38 38
36 39 40 40 40 40 40 39 39 38 38 38 38 38 38 38 39 38 38 38 38 38 37 37 37 37 37 37 37 37 37 36 36 36 36 37 38 37 36 36 36 36 36
32 36 39 40 40 40 40 39 39 38 37 37 37 38 38 38 38 38 37 37 37 36 36 37 36 36 36 38 37 36 35 35 34 34 33 32 31 34 34 34 33 32 32
32 33 36 39 40 40 39 39 39 38 37 37 37 37 37 37 38 38 37 37 37 37 36 36 36 36 36 36 35 33 33 33 33 32 32 29 27 27 28 27 27 29 30
32 32 35 37 39 39 39 39 38 37 37 37 37 37 37 37 37 36 36 36 36 36 35 35 35 35 34 34 30 29 29 29 28 28 30 31 31 29 25 24 23 24 26
33 31 34 37 39 39 39 38 37 37 36 36 36 37 37 37 36 35 35 35 35 34 33 32 32 33 32 30 27 27 27 27 26 27 26 25 26 29 26 22 21 17 22
32 34 37 37 38 38 38 37 37 36 36 36 36 36 37 36 35 35 34 34 34 32 31 30 31 30 31 28 26 23 17 17 15 17 22 26 26 26 28 22 16 15 18
36 37 37 37 37 37 37 36 36 36 36 36 36 36 37 36 35 34 33 33 32 31 31 30 29 29 28 25 25 21 15 14 15 16 17 20 26 25 24 26 15 19 21
36 36 37 37 37 37 37 36 36 36 36 36 36 36 36 35 34 33 32 32 31 30 28 25 24 24 23 26 27 28 25 23 18 16 17 20 25 22 24 24 18 22 18
35 36 36 36 36 36 36 35 35 36 35 35 35 35 35 34 33 32 31 29 29 29 25 23 21 18 15 16 25 26 27 28 21 19 19 24 22 18 18 18 18 20 11
35 35 35 35 35 35 35 35 35 35 35 35 35 34 34 32 32 31 30 30 28 26 22 21 17 14 10 8 12 23 24 24 23 23 23 23 21 17 15 15 13 11 11
36 35 35 35 35 35 35 35 35 35 35 34 34 33 33 33 31 30 30 29 24 22 19 16 14 13 11 9 10 14 17 18 21 22 23 22 19 16 11 9 9 10 11
36 35 36 36 36 36 35 36 35 35 34 34 33 33 32 33 31 30 31 29 25 25 24 22 16 13 13 13 17 19 20 25 25 24 22 20 18 13 10 8 7 8 10

GFSMW_sfc_30mbdewp_063.txt.gz
Dewpoint
37 41 41 40 38 52 59 61 63 63 63 63 63 63 63 62 62 61 62 62 61 61 62 62 62 61 61 61 60 60 59 60 61 60 59 59 59 59 58 57 55 55 55
36 41 40 39 38 37 51 59 61 63 63 64 64 63 63 63 62 63 63 63 62 62 62 62 62 62 62 62 61 60 60 60 61 60 59 56 55 53 55 54 54 54 53
35 39 40 39 39 38 38 51 59 61 62 63 64 64 63 63 63 63 63 64 64 64 64 64 64 65 65 64 64 63 63 61 61 61 59 55 51 52 53 53 53 52 51
36 39 39 38 38 39 41 41 47 56 61 62 62 61 60 60 60 60 61 59 52 52 53 57 61 63 63 63 63 63 63 62 60 61 60 60 58 54 51 52 53 52 49
36 39 39 38 38 41 45 44 44 46 48 52 57 59 59 58 50 46 45 44 46 49 50 50 51 52 53 55 56 57 57 58 58 58 58 58 58 57 55 52 52 54 53
36 38 39 39 39 44 47 46 44 43 44 44 45 46 46 43 43 44 44 44 45 48 51 51 51 52 53 54 55 55 56 55 55 55 56 55 55 54 54 53 53 53 53
32 34 36 37 38 44 47 46 44 44 44 44 43 43 44 44 43 44 44 44 44 47 49 51 50 50 51 51 52 54 55 54 54 55 55 56 56 56 54 53 52 51 51
26 27 31 37 39 43 46 45 43 43 43 43 43 44 44 44 44 45 45 45 46 47 49 48 48 48 48 49 50 52 53 55 56 57 57 57 57 57 55 53 52 50 50
24 27 30 32 36 40 44 44 43 42 43 43 43 43 44 44 44 46 47 47 47 46 45 45 45 46 46 47 48 51 51 54 54 53 53 52 51 51 52 53 53 51 48
29 28 29 31 35 40 43 43 42 41 42 42 42 43 44 45 46 46 46 46 44 43 43 44 44 44 44 46 48 49 50 50 50 50 50 49 49 49 50 50 51 51 50
32 34 35 36 39 42 43 42 41 41 42 42 42 42 43 43 44 45 45 44 42 42 41 41 42 42 42 44 46 47 47 47 46 46 45 45 46 46 46 47 47 47 48
35 37 38 38 40 42 42 42 41 41 41 41 41 41 42 42 42 42 42 41 41 40 40 40 40 40 41 42 43 43 44 44 44 43 43 42 43 43 43 44 43 43 43
33 37 39 39 40 41 41 41 40 40 40 40 40 40 40 41 41 41 40 40 40 40 39 39 38 38 39 40 40 40 40 40 40 39 39 39 40 40 40 41 41 40 40
30 36 39 39 40 41 40 40 40 40 39 39 39 39 39 39 39 40 40 39 39 39 39 39 38 38 38 38 39 39 39 39 39 38 38 37 38 38 38 38 38 38 38
31 32 38 39 40 41 41 40 40 39 39 39 39 38 39 39 39 39 39 39 38 38 38 38 38 38 37 37 38 38 38 38 37 36 36 37 38 37 37 36 36 36 36
29 31 34 39 40 40 41 41 40 39 39 38 39 39 38 38 39 38 38 38 38 37 37 37 37 37 36 38 38 37 37 36 35 34 34 33 34 34 33 33 33 31 32
33 30 33 35 39 40 40 41 41 40 38 38 38 38 38 38 38 38 38 37 37 37 37 36 36 36 36 38 36 36 36 35 34 34 32 28 27 28 28 27 26 30 29
32 33 31 33 36 39 40 41 41 39 38 38 37 38 38 37 37 38 37 37 37 37 36 36 36 36 35 35 33 33 33 31 30 30 32 32 32 28 25 24 24 24 26
34 33 33 32 35 38 41 41 40 39 38 38 37 38 37 37 37 37 36 36 36 35 35 35 35 35 34 32 28 28 28 27 27 28 26 25 27 29 26 23 22 17 22
36 35 35 35 34 38 40 40 39 39 38 38 37 37 37 37 37 36 36 35 35 34 34 33 33 33 31 28 26 26 22 23 18 20 24 27 27 26 28 24 18 15 18
37 37 37 37 37 39 39 39 39 38 38 38 37 37 37 37 37 36 35 35 33 32 32 31 31 31 31 27 26 23 15 14 14 16 17 20 26 25 24 26 20 21 22
36 36 37 38 39 38 38 39 38 38 38 37 37 37 37 37 36 35 34 33 32 31 30 28 26 26 25 27 28 26 24 20 18 17 17 19 25 23 24 25 23 20 23
36 36 37 37 38 38 38 38 37 37 36 36 36 36 36 36 35 33 32 32 31 30 30 26 23 22 22 21 27 28 29 29 24 18 18 22 24 21 20 21 20 21 18
36 36 36 36 36 37 37 36 36 36 35 35 35 36 35 34 33 32 32 31 30 30 29 24 22 20 17 14 15 25 27 28 26 24 24 24 24 21 18 15 18 18 12
37 36 36 36 36 36 36 35 35 35 35 35 35 35 34 34 32 31 31 30 31 31 27 22 21 18 15 13 12 14 21 22 22 21 22 23 22 19 16 13 10 10 11
38 37 36 36 36 35 36 36 36 36 36 35 35 34 33 34 32 31 30 33 32 28 25 22 19 16 16 14 16 16 18 19 21 24 23 22 21 19 15 10 9 9 10

GFSMW_sfc_30mbdewp_066.txt.gz
Dewpoint
37 42 42 39 42 58 60 62 63 63 63 63 63 62 62 62 62 62 61 61 61 61 61 62 62 60 61 60 60 60 59 59 60 60 60 60 60 60 59 59 57 56 56
36 42 41 40 38 42 59 61 63 64 63 64 64 64 64 64 63 63 63 63 63 63 63 62 62 62 62 62 62 62 61 60 61 59 59 55 55 56 56 58 55 54 52
35 41 41 40 38 38 43 59 62 63 64 64 64 64 63 64 63 63 63 63 63 63 64 64 64 64 65 64 64 63 62 61 61 61 58 55 52 54 53 53 53 52 52
37 40 40 40 40 39 40 41 53 61 63 64 64 63 62 61 62 63 63 59 54 53 53 55 60 63 63 63 62 63 62 62 60 61 61 60 59 54 51 52 53 53 50
37 38 40 40 40 42 42 42 43 49 57 62 63 62 61 61 53 49 50 47 47 48 50 50 51 52 53 54 56 56 58 58 57 56 55 57 56 56 55 51 51 54 53
37 37 40 39 40 44 46 45 44 45 48 51 55 58 59 50 46 45 44 45 47 51 51 51 51 52 53 53 54 56 56 56 55 54 53 53 53 54 53 52 51 52 53
34 36 40 40 41 44 47 47 45 44 45 45 46 46 46 44 44 45 45 45 45 48 51 51 50 50 50 51 51 52 54 55 53 53 54 53 53 54 55 54 52 52 53
27 28 29 38 41 43 46 46 45 44 44 45 44 45 45 45 45 45 45 46 46 48 48 48 48 48 47 48 49 50 52 54 54 55 55 56 56 56 55 53 52 50 51
26 25 31 31 34 45 47 46 44 44 44 44 44 44 45 45 44 47 47 48 47 45 44 45 45 45 46 46 47 49 51 53 53 52 52 52 51 52 53 54 53 52 48
31 31 30 32 34 39 46 46 44 43 44 44 43 44 45 46 46 47 47 46 45 44 43 44 44 44 44 45 46 48 49 49 50 50 50 49 49 49 50 51 51 51 50
34 35 36 35 37 42 44 44 43 43 43 43 43 44 44 45 46 46 45 44 43 42 42 41 42 42 42 43 44 46 46 47 46 46 46 45 47 47 46 46 47 47 47
34 37 38 38 40 41 43 43 42 42 42 42 42 43 43 43 43 43 43 42 42 41 40 40 40 40 40 41 41 43 43 44 44 44 44 42 44 43 43 44 42 42 41
30 36 39 39 40 41 42 42 41 41 41 41 41 41 42 41 41 41 41 41 40 40 40 39 38 38 39 39 40 40 40 40 39 39 39 39 40 40 40 40 40 40 40
30 31 38 39 40 41 41 41 41 41 40 40 40 40 40 40 40 40 40 40 40 40 39 39 38 38 38 38 39 39 39 39 39 39 38 38 38 38 38 38 38 38 38
31 30 33 39 40 41 41 41 41 40 39 39 39 39 39 39 39 39 39 39 39 39 38 38 38 38 38 38 38 39 39 38 37 37 37 38 37 38 37 36 36 36 35
33 33 32 37 40 41 41 41 41 40 39 39 39 39 39 39 39 39 39 38 38 38 37 37 37 37 36 38 39 38 37 37 35 34 34 34 34 34 34 34 31 32 33
32 33 33 34 38 41 41 41 41 40 39 39 39 39 39 38 39 38 38 37 37 37 37 37 36 36 37 39 38 38 36 35 34 33 30 28 29 28 27 26 29 28 27
33 34 34 34 34 40 41 42 42 40 39 39 38 38 38 38 38 38 37 37 38 37 37 36 36 36 36 37 35 36 34 33 32 31 30 29 29 26 25 25 24 25 27
35 36 37 36 35 37 41 42 41 40 39 39 38 38 38 38 37 37 37 37 37 37 36 36 36 35 35 33 32 29 28 26 26 28 29 29 30 28 26 24 20 19 25
37 37 37 37 37 36 42 41 41 40 39 39 38 38 38 37 37 36 37 36 36 35 35 34 35 34 33 31 28 28 27 25 24 23 26 27 28 27 28 25 18 15 19
37 37 37 38 38 40 41 40 40 39 39 39 38 38 38 37 37 36 36 35 35 34 33 32 32 31 30 29 27 25 17 16 15 17 18 23 26 25 25 26 23 22 22
37 36 37 38 39 39 40 39 39 40 39 38 38 37 37 37 37 35 35 34 33 32 32 30 28 29 28 29 28 25 21 20 17 17 18 20 25 25 24 26 26 21 24
36 36 36 38 38 38 39 39 39 38 38 37 37 37 37 36 36 34 33 33 32 31 30 29 26 25 25 26 28 30 28 27 24 18 19 20 25 22 21 21 24 21 21
30 37 36 36 37 37 38 38 38 37 36 36 36 36 36 35 35 34 33 32 31 31 31 28 25 23 22 21 21 27 27 29 29 25 22 24 25 24 20 17 17 19 18
32 38 37 36 36 36 37 36 36 36 35 35 35 35 35 35 33 33 32 32 31 31 31 28 24 23 20 18 17 19 24 27 27 25 23 23 23 22 20 17 15 14 13
34 36 38 37 37 36 36 36 36 36 35 35 35 35 34 35 33 32 31 33 32 33 33 30 25 22 20 20 19 18 19 24 24 22 21 21 22 22 20 16 12 11 11

GFSMW_sfc_30mbdewp_069.txt.gz
Dewpoint
39 42 43 44 57 60 62 63 63 63 63 62 62 62 61 61 61 61 61 62 62 62 61 61 61 61 59 59 60 60 60 59 60 59 59 59 60 60 60 60 60 58 56
38 40 42 39 45 58 61 62 63 63 63 63 63 63 62 63 62 62 62 62 62 62 62 62 62 62 61 61 61 61 60 60 61 57 58 55 55 56 57 56 57 54 52
37 40 40 38 40 51 60 62 63 63 63 63 64 64 64 64 63 63 63 63 63 64 63 64 64 64 64 63 63 63 62 60 61 60 58 54 52 54 54 53 53 52 51
38 39 41 40 38 40 49 60 63 63 64 64 64 63 62 62 62 63 63 58 58 56 55 57 60 63 63 62 61 62 61 60 59 59 60 60 58 54 51 52 53 52 50
38 40 41 40 39 39 41 44 57 63 63 64 64 63 62 62 60 59 58 53 50 50 50 51 51 51 53 53 55 56 57 58 58 57 55 54 55 55 53 50 51 52 53
37 38 41 41 40 42 42 43 44 52 58 62 62 62 62 58 52 52 52 49 48 50 51 51 51 52 52 53 54 54 55 55 55 55 53 52 51 52 53 51 51 50 52
37 37 39 39 39 42 42 43 43 44 48 53 57 58 59 52 50 48 46 46 47 50 50 50 50 50 50 50 50 50 51 53 54 53 52 53 52 53 52 52 52 51 52
26 29 36 40 41 43 44 45 44 43 45 45 47 48 49 47 47 46 45 45 46 49 50 49 48 47 47 47 48 49 50 51 53 53 54 54 54 55 55 54 52 50 51
30 29 30 32 35 43 46 46 45 44 44 45 44 45 46 45 46 46 47 47 48 46 46 46 45 45 45 46 47 47 49 51 53 52 52 52 51 51 53 54 54 52 48
33 34 34 33 33 37 46 46 45 44 44 44 44 45 45 45 46 47 47 47 45 44 44 44 44 44 44 45 45 47 49 48 50 50 50 49 50 49 50 51 51 52 51
33 34 36 36 37 41 45 46 44 44 44 44 44 45 45 46 46 46 46 45 43 43 42 42 42 42 42 42 43 46 46 46 46 46 47 47 47 47 46 46 47 46 47
33 36 37 38 39 40 43 44 43 43 43 43 44 44 44 45 45 45 44 43 42 41 41 40 40 40 40 41 41 44 43 45 45 45 45 43 44 43 43 43 43 41 41
31 35 38 38 39 41 42 42 42 42 42 42 43 43 42 42 43 43 42 41 41 40 40 39 39 39 39 39 40 40 40 40 39 40 40 40 41 40 40 41 40 40 39
32 32 36 39 39 41 41 42 41 42 41 41 41 41 41 41 41 41 40 40 40 40 39 38 38 38 38 38 39 39 39 38 38 38 38 38 39 39 39 39 39 38 38
32 32 33 34 39 40 41 41 41 40 40 40 40 40 40 40 40 40 39 39 39 39 39 38 38 38 38 38 38 39 39 38 38 38 37 37 38 38 38 37 36 36 36
32 33 33 34 35 40 41 41 41 40 40 40 39 39 39 39 39 39 39 38 38 38 38 37 38 37 37 38 39 39 39 37 36 35 35 34 35 35 36 34 34 34 34
33 34 34 35 35 35 41 41 41 40 39 39 39 39 39 38 38 39 38 37 37 37 37 37 37 37 38 39 40 39 37 36 34 33 29 30 31 29 27 29 29 28 31
35 36 36 36 37 37 40 42 42 40 39 39 39 39 39 38 38 38 37 37 37 37 36 36 37 36 37 38 38 37 35 34 34 31 28 25 25 25 25 25 25 27 27
33 36 37 37 37 37 37 42 42 40 39 39 39 39 39 38 38 37 37 37 37 37 37 36 36 35 36 36 36 34 32 31 29 29 30 30 27 26 26 22 20 22 26
28 32 37 37 37 38 39 42 41 40 39 39 39 39 38 38 37 37 37 36 36 36 36 35 36 35 34 34 31 28 26 23 23 26 26 29 30 30 27 24 19 15 20
29 30 37 37 38 39 41 41 41 40 40 39 39 38 38 37 37 37 36 36 36 35 34 34 34 34 33 32 29 28 24 22 21 21 23 24 27 27 26 27 19 19 21
30 30 34 36 38 39 39 40 40 40 39 39 38 38 37 37 37 36 35 35 34 33 33 32 31 31 31 30 29 26 22 19 15 17 18 21 26 26 26 26 26 22 24
33 33 32 36 37 38 38 38 39 39 39 38 37 37 37 37 36 35 34 33 33 32 32 31 29 27 28 27 30 28 25 23 20 18 19 23 25 24 22 22 25 25 23
33 33 33 35 36 37 37 38 39 39 38 37 36 36 36 36 35 35 34 33 32 32 31 30 29 27 25 25 25 29 31 29 29 24 21 22 25 25 22 20 18 20 21
33 33 34 35 37 37 37 37 37 37 37 36 36 36 36 36 34 34 34 33 33 33 32 31 29 26 23 23 23 23 27 27 30 28 24 23 24 24 22 20 17 16 17
34 34 36 38 39 38 37 37 37 36 36 35 35 35 35 35 34 33 33 35 34 34 34 33 30 27 26 25 25 24 23 26 28 27 22 21 22 22 22 20 18 15 13

GFSMW_sfc_30mbdewp_072.txt.gz
Dewpoint
39 43 46 58 62 62 62 63 63 64 63 63 63 63 62 62 61 60 61 62 61 61 61 61 61 61 61 60 60 59 59 60 60 59 58 58 59 59 59 60 60 59 58
39 39 43 44 59 61 62 63 62 63 63 63 62 63 62 62 61 61 62 62 62 62 61 61 61 61 61 60 60 61 60 60 60 56 56 54 54 55 56 56 56 56 54
39 39 41 42 43 58 61 62 62 63 63 63 63 63 63 63 62 62 62 62 62 62 62 62 62 63 63 62 62 62 61 59 60 60 58 53 52 54 54 53 53 52 52
38 38 39 42 40 47 60 62 63 63 63 63 63 62 61 61 62 62 63 62 62 63 63 64 64 63 63 62 61 61 61 60 58 58 59 59 58 55 50 53 53 53 50
39 39 40 40 39 40 50 59 62 63 63 63 63 63 61 62 62 62 61 58 58 55 54 54 54 55 55 55 55 56 57 57 58 57 56 54 54 55 54 50 51 52 53
39 38 41 41 40 41 42 43 54 60 62 63 63 62 60 61 59 58 58 56 53 53 54 53 52 52 52 53 53 54 54 54 54 55 54 53 51 50 51 51 51 51 51
37 37 39 41 40 40 41 41 42 51 57 61 61 62 61 60 58 57 56 53 51 52 52 51 50 50 51 51 51 50 51 51 53 53 53 53 52 52 51 51 50 50 51
28 34 38 40 40 41 43 43 42 42 46 51 56 57 60 57 55 54 52 51 51 51 51 50 49 49 49 48 48 48 49 50 50 51 52 53 53 54 54 52 51 50 51
31 30 31 32 34 41 42 44 44 43 44 45 46 48 52 53 51 50 48 48 48 49 49 49 47 47 46 46 46 46 47 50 51 52 53 52 51 51 52 52 53 52 48
32 33 34 34 33 34 39 46 46 44 44 44 45 45 46 46 47 47 46 46 46 46 46 45 45 45 44 44 45 45 47 48 49 50 50 49 49 50 50 51 52 52 51
32 33 35 37 38 39 43 45 46 45 44 44 44 45 45 46 47 47 47 46 44 44 44 43 43 43 42 42 43 43 46 46 46 46 46 48 48 48 47 47 47 47 47
33 35 37 38 38 39 41 43 45 44 44 44 45 45 46 46 46 46 45 44 43 42 42 42 41 41 41 41 41 42 45 44 45 45 45 45 45 44 44 44 43 42 42
32 32 36 38 39 39 40 42 42 43 43 44 44 44 44 44 44 44 43 42 41 41 40 40 39 39 39 39 40 40 41 40 41 41 42 41 42 41 41 41 41 40 40
32 32 33 33 35 39 41 42 42 42 42 43 43 43 42 42 42 42 41 41 41 40 39 39 38 38 38 38 39 39 39 38 38 38 38 39 39 39 39 39 39 39 39
32 33 34 34 35 36 39 41 42 42 41 41 41 42 42 41 41 41 40 40 40 40 39 38 38 38 38 38 38 39 39 39 38 38 37 38 38 39 39 38 37 38 37
35 35 36 36 35 36 37 40 41 41 41 40 40 41 40 40 40 39 39 39 38 38 38 38 38 38 37 38 39 39 39 39 38 37 36 36 36 37 37 36 36 35 35
31 32 34 36 36 37 37 37 40 42 40 40 40 40 39 39 39 39 38 38 37 37 37 37 37 37 37 39 39 40 38 37 36 35 33 32 33 31 28 31 30 31 34
28 29 30 33 37 37 37 38 40 41 40 40 40 39 39 39 38 38 38 37 36 36 36 36 36 37 37 40 39 39 36 35 34 32 30 29 26 25 25 26 26 26 27
29 29 29 32 37 37 38 39 40 41 40 40 39 39 39 38 38 38 37 37 36 36 36 36 36 36 36 39 38 36 34 34 33 30 28 25 24 27 26 24 23 25 26
32 31 31 32 35 37 39 39 40 41 40 40 40 39 39 38 38 37 37 36 37 36 36 36 36 36 36 37 36 34 31 31 28 28 29 32 28 29 27 22 19 18 22
33 34 33 32 34 37 38 38 40 40 41 40 40 39 39 38 37 37 36 36 36 36 36 35 35 35 35 35 34 31 26 24 22 24 25 27 31 30 29 26 18 17 22
33 33 33 34 34 36 37 37 38 40 40 40 39 38 38 38 37 36 36 36 35 35 34 34 33 33 33 34 34 30 26 23 20 19 21 23 28 27 26 26 25 24 24
31 33 33 33 34 35 37 37 37 39 39 39 38 37 37 37 36 36 36 35 34 34 33 32 32 31 31 30 31 29 27 23 18 17 19 22 26 26 25 25 27 27 23
32 32 33 33 34 35 37 37 38 38 38 38 37 36 36 36 36 36 35 34 33 33 32 32 31 30 28 28 28 30 29 26 26 22 22 24 26 26 23 22 21 23 22
33 35 34 34 36 37 39 38 37 38 38 37 36 36 36 36 35 35 35 34 34 34 33 32 32 30 28 27 26 26 29 29 29 27 23 23 23 25 24 22 19 17 19
32 32 34 34 34 35 36 38 37 37 37 36 36 36 36 36 35 34 34 36 36 36 36 35 33 30 31 29 28 28 28 30 31 30 24 22 23 23 23 22 20 18 17

GFSMW_sfc_30mbdewp_075.txt.gz
Dewpoint
40 44 49 60 62 63 63 64 63 64 64 64 64 64 63 63 63 62 62 63 62 61 60 60 60 60 59 60 60 60 59 59 60 59 57 57 57 58 58 59 59 59 59
39 39 40 46 59 61 62 63 64 64 64 64 63 63 62 63 62 61 61 62 62 62 61 60 60 61 61 61 60 60 60 60 60 58 56 54 54 55 55 54 55 56 54
39 39 39 42 44 57 61 62 63 63 63 63 63 63 63 63 62 61 61 61 62 62 62 61 61 61 62 61 61 61 60 59 59 60 56 53 50 54 54 53 54 53 52
41 40 39 40 42 44 58 61 62 63 63 63 63 62 60 60 61 62 62 62 63 63 62 62 62 63 63 63 62 62 61 60 58 58 58 58 58 54 50 52 53 53 50
39 40 39 39 41 42 47 59 62 63 63 63 63 62 61 61 61 62 62 60 60 60 61 61 61 61 60 59 59 59 59 58 58 56 55 54 53 55 54 50 50 51 53
38 39 40 41 41 40 43 51 58 61 62 63 63 62 60 60 60 59 59 59 58 57 57 56 56 56 55 55 55 54 54 53 53 54 54 53 51 49 49 50 50 50 51
37 38 38 41 41 40 40 42 46 53 58 61 62 62 61 61 60 58 59 58 57 56 55 54 53 52 51 51 52 51 51 51 52 53 53 53 53 52 51 50 49 49 49
33 35 36 40 40 41 42 42 42 42 46 54 58 60 61 61 59 58 58 57 56 54 53 52 50 49 50 49 49 48 48 49 49 49 50 52 52 52 52 52 50 48 49
30 30 31 32 33 35 40 43 44 43 43 44 48 53 56 58 56 55 54 53 52 52 51 49 48 47 47 46 46 46 46 47 48 50 51 51 52 51 51 50 51 50 46
33 33 34 35 36 36 40 42 45 45 44 44 45 45 47 50 53 51 50 50 49 50 49 47 46 45 45 44 45 45 46 47 48 49 50 49 49 49 49 50 50 51 50
33 35 36 37 38 39 40 42 45 45 45 44 44 45 45 46 47 48 47 46 45 46 46 45 44 43 43 42 42 43 43 46 46 46 46 46 47 47 47 47 47 48 47
32 34 37 38 38 38 39 41 43 44 44 44 44 45 46 46 46 46 46 45 44 44 43 43 42 42 41 41 41 41 42 45 44 44 45 45 45 45 44 45 44 43 42
32 33 33 33 34 36 38 40 42 42 43 44 44 45 45 45 45 45 44 43 42 42 41 41 40 40 40 40 40 40 40 41 40 41 43 42 42 42 41 42 42 41 40
34 34 35 35 35 36 37 39 41 42 42 43 44 44 43 44 44 43 43 42 41 40 40 39 39 39 39 38 39 39 39 38 38 38 38 39 40 40 40 40 40 40 40
34 34 34 36 36 36 37 37 38 41 42 42 42 43 42 42 42 42 41 41 40 40 39 38 38 38 38 38 38 38 38 38 38 38 38 38 38 39 39 38 38 38 38
30 30 30 31 34 36 37 37 37 39 41 41 41 42 41 41 41 40 40 39 39 39 38 38 38 38 38 38 40 39 38 39 39 38 37 38 39 39 38 37 37 36 36
28 28 29 29 31 34 37 37 38 39 40 41 41 41 41 40 40 39 39 38 38 37 37 37 37 37 37 38 40 40 40 38 38 37 35 34 34 31 31 32 33 34 35
29 30 30 30 30 34 37 38 39 39 40 41 40 40 40 39 39 38 38 37 36 36 36 36 36 36 37 38 40 40 38 37 36 35 33 32 29 27 27 26 26 25 26
31 32 32 32 32 33 35 37 38 39 40 40 40 40 39 39 38 38 37 36 36 36 36 36 36 36 36 38 39 38 35 35 34 31 30 28 25 25 27 24 25 25 27
33 33 33 33 33 33 35 36 37 38 39 40 40 40 39 39 38 37 37 36 36 36 35 35 35 36 36 38 38 37 34 33 32 31 29 30 25 28 28 23 21 21 24
32 33 33 33 34 34 34 35 37 37 38 40 40 40 39 39 38 37 36 36 36 36 36 35 35 36 36 36 38 37 31 31 30 28 26 27 32 31 29 27 20 18 21
31 32 32 33 33 34 34 35 36 37 38 39 39 39 39 38 37 36 36 35 35 35 35 35 35 35 35 36 35 35 30 27 23 22 23 25 30 32 30 29 25 23 24
31 33 34 33 33 34 35 36 37 37 38 38 38 38 37 37 36 36 35 35 35 35 34 33 33 33 33 33 36 36 32 28 23 19 19 23 25 28 28 27 28 27 24
30 31 33 32 33 35 36 35 38 37 37 38 37 36 36 36 36 35 35 35 34 34 33 33 32 33 32 32 31 32 31 30 27 23 22 23 24 28 26 25 24 25 24
31 32 31 31 33 33 34 35 35 38 37 37 36 36 36 37 35 35 35 35 36 36 34 33 33 32 31 30 31 30 29 29 27 24 22 23 24 25 25 23 20 18 21
29 29 29 28 29 31 32 34 35 36 37 37 37 36 36 36 36 35 35 37 36 37 37 36 34 33 34 33 33 32 29 31 31 28 24 22 22 22 23 23 23 21 19

GFSMW_sfc_30mbdewp_078.txt.gz
Dewpoint
45 50 57 61 62 63 62 62 62 62 62 62 61 63 63 64 64 64 63 62 62 61 59 60 60 59 59 59 58 58 58 59 60 59 57 56 56 57 57 58 57 57 59
40 42 47 53 61 61 62 63 61 62 63 62 62 61 61 63 64 64 63 63 63 62 61 60 60 60 59 59 60 60 59 59 60 58 56 53 53 54 55 54 54 54 54
41 40 39 43 48 57 61 62 63 62 62 63 63 63 63 63 62 63 62 62 62 62 62 61 61 61 61 61 61 60 60 59 59 59 56 52 50 53 55 53 54 53 52
41 41 40 40 40 43 56 62 62 63 63 63 63 63 61 59 61 62 62 62 63 63 63 62 62 62 62 62 62 62 61 61 58 58 58 58 57 55 51 52 53 53 50
40 39 40 40 40 42 45 58 61 62 62 62 63 62 61 61 61 62 61 61 61 61 61 61 62 62 61 61 61 60 59 59 58 57 55 54 53 54 53 49 49 51 52
39 39 39 41 41 41 43 52 59 60 62 62 62 62 60 59 60 60 59 60 60 60 60 60 61 61 59 58 56 56 56 55 55 54 53 52 50 48 48 49 49 49 50
37 39 38 40 41 41 41 43 47 52 57 60 61 62 61 61 59 59 59 59 58 58 58 58 58 58 55 54 53 53 52 52 52 52 52 52 52 52 50 50 49 48 49
36 36 37 38 40 41 42 43 42 42 42 48 55 59 60 61 60 59 59 59 58 58 57 56 55 52 51 50 50 49 49 49 48 48 49 50 51 51 51 51 48 46 47
31 32 33 33 34 36 39 41 43 44 44 43 44 47 53 57 58 57 58 58 57 56 55 53 50 49 49 48 47 46 45 46 47 47 49 50 51 51 51 51 50 48 43
34 35 36 37 38 39 40 42 44 44 45 45 44 44 45 48 54 54 54 54 52 52 51 50 48 47 46 45 45 45 45 45 47 48 49 49 49 48 48 49 49 49 47
35 36 37 37 37 38 39 40 42 43 45 45 44 44 45 46 48 51 50 49 49 49 49 47 46 44 44 43 43 43 43 44 45 45 46 46 46 47 47 48 48 48 47
33 33 34 35 35 36 37 39 41 42 43 44 44 44 45 46 46 47 47 46 46 46 45 44 43 42 42 41 41 41 41 42 43 44 44 44 45 45 45 45 44 44 43
34 35 36 36 36 36 36 37 39 41 42 43 43 44 45 45 45 45 45 44 44 43 43 42 41 41 40 40 39 39 40 40 40 40 41 43 42 42 42 42 42 42 41
33 32 32 34 36 37 37 37 37 39 41 42 43 43 44 44 44 44 43 43 42 41 40 40 40 39 39 38 38 38 38 38 38 38 38 39 40 40 40 40 41 40 40
28 28 28 29 31 32 35 37 37 38 39 41 42 42 43 43 43 43 42 41 41 40 39 39 38 38 38 38 38 38 38 38 38 38 38 38 39 40 40 39 39 39 39
27 28 29 29 29 30 32 36 37 38 39 39 40 42 42 42 41 41 41 40 39 39 38 38 38 37 38 39 40 39 38 38 38 38 38 39 40 40 39 38 38 37 37
28 29 30 31 31 31 32 34 37 38 39 39 40 41 41 41 40 40 39 39 38 38 38 37 37 37 37 39 39 40 39 38 38 38 37 35 35 33 33 34 34 35 34
30 31 32 32 32 32 33 35 36 38 38 39 40 40 40 40 40 39 38 37 37 37 36 36 36 36 36 39 39 39 39 37 37 37 36 34 32 29 29 26 26 25 27
32 32 33 33 33 33 33 34 35 37 38 38 39 40 40 39 39 38 38 37 36 36 36 36 36 36 36 38 39 39 36 35 35 34 33 32 30 29 29 24 24 25 27
32 32 32 33 33 33 34 34 35 36 37 37 38 40 40 39 39 38 37 36 36 35 35 35 35 35 35 37 39 38 35 34 34 33 30 33 25 25 28 23 23 22 23
31 32 32 32 33 34 34 34 35 36 37 37 38 39 39 39 39 37 36 36 36 35 35 35 36 36 36 36 38 39 35 34 32 32 30 29 32 29 30 27 20 19 23
31 31 32 32 34 34 34 34 34 36 37 37 37 38 38 38 38 37 36 35 35 35 35 36 35 35 36 37 37 38 35 32 30 30 28 26 29 32 32 30 25 22 25
30 31 31 32 31 32 35 34 34 35 37 37 37 37 37 37 37 36 36 35 34 34 34 35 34 34 34 35 38 37 37 31 25 22 22 25 27 31 31 30 30 26 22
29 30 31 29 30 30 31 33 34 35 35 37 37 36 36 36 36 36 36 35 34 34 34 34 33 34 34 33 33 36 37 35 30 26 23 23 25 26 28 28 27 27 25
27 28 28 28 28 28 29 30 32 34 35 37 37 37 36 36 35 34 35 35 36 36 35 35 34 33 33 33 33 33 33 32 30 25 22 23 24 25 26 24 22 21 23
26 26 26 26 27 27 28 29 31 32 33 33 35 37 37 36 36 35 35 37 37 37 38 36 35 34 35 34 34 35 34 33 31 26 23 21 22 23 25 24 23 21 19

GFSMW_sfc_30mbdewp_081.txt.gz
Dewpoint
48 55 56 60 60 60 60 60 61 62 62 61 62 63 62 64 64 64 64 63 62 59 58 58 58 59 58 56 56 56 56 57 60 59 58 57 57 57 57 57 57 56 57
43 48 52 57 60 59 60 60 60 58 61 61 62 62 61 62 64 65 64 64 63 63 61 60 59 60 60 59 59 59 59 59 61 57 56 53 53 54 55 55 54 54 54
42 42 43 53 56 59 60 58 60 60 61 61 62 62 62 62 62 63 64 63 64 64 63 63 62 61 61 60 60 61 60 59 60 59 56 51 50 53 55 55 54 54 53
43 42 43 40 48 54 59 59 60 61 62 62 62 61 60 58 61 62 63 63 63 63 63 63 62 62 62 62 62 63 62 59 57 59 59 58 58 52 51 52 53 53 52
43 41 41 43 43 43 46 55 61 62 63 62 62 60 59 57 61 62 62 62 62 63 63 63 63 62 61 60 60 60 60 60 59 58 57 56 56 55 53 46 49 51 52
43 40 41 43 42 42 43 51 57 60 62 62 62 60 59 59 60 61 61 61 61 61 61 62 62 61 60 59 59 57 57 58 57 56 55 53 49 49 50 49 48 49 50
42 39 39 40 41 42 42 43 47 52 57 60 61 61 61 61 60 60 60 60 60 60 60 61 61 60 59 59 58 57 55 54 52 52 52 53 53 52 51 50 48 48 48
42 38 35 35 37 40 41 43 44 43 43 46 53 57 59 60 60 60 60 59 59 59 59 59 59 58 57 56 55 53 52 51 51 50 50 50 51 52 52 50 48 46 46
36 36 37 38 39 40 41 43 44 44 45 45 44 45 50 55 57 58 59 59 59 58 58 58 57 55 53 51 50 49 48 48 48 48 49 49 50 51 52 52 51 47 42
36 37 36 36 37 39 40 41 43 44 45 45 45 44 45 47 53 55 56 56 56 56 55 53 51 49 48 47 47 46 46 46 47 48 48 49 50 50 50 50 50 49 46
33 34 35 35 36 37 37 39 41 42 43 44 44 44 45 46 48 51 52 53 52 52 51 50 48 47 46 45 45 44 44 44 45 46 47 47 47 47 48 49 49 48 48
35 35 36 36 37 37 37 37 38 40 42 43 44 44 45 46 46 48 49 48 49 50 49 48 46 44 43 43 42 42 43 43 44 44 44 44 45 46 46 47 46 46 46
33 32 33 33 34 35 37 37 38 38 39 42 42 43 44 45 45 46 45 45 45 45 45 44 43 42 41 41 40 40 40 40 40 41 41 43 43 43 43 43 43 44 43
29 28 28 29 30 31 33 35 37 38 39 39 41 42 43 44 44 44 44 44 43 43 42 42 41 40 40 39 39 39 39 39 39 39 39 40 41 41 41 41 41 41 41
27 29 29 30 30 31 32 33 35 37 39 39 39 40 42 43 43 43 43 42 42 41 40 40 39 39 39 38 38 39 38 38 38 39 38 39 39 40 40 40 40 40 40
29 30 30 31 31 32 32 33 34 35 38 38 39 40 41 42 42 42 42 41 40 40 39 39 38 38 38 39 40 39 38 38 38 38 38 39 40 40 40 40 39 38 38
30 31 31 32 32 32 33 33 34 36 36 38 38 39 40 41 41 41 41 40 39 39 38 38 38 38 38 40 41 41 39 38 38 38 38 37 37 35 36 37 36 35 34
31 31 31 32 33 33 33 34 35 35 36 37 38 39 40 40 41 40 40 39 38 38 38 38 38 38 37 40 40 41 39 38 37 37 37 36 34 32 31 29 28 26 28
32 32 32 33 33 33 34 34 35 36 36 37 38 38 39 40 40 40 39 38 37 37 37 37 37 37 37 39 40 39 37 35 35 36 36 35 33 32 32 26 24 25 28
31 31 32 32 33 34 34 34 34 35 35 37 38 38 39 40 40 39 38 37 37 36 36 36 36 36 36 38 40 39 36 35 34 33 32 34 31 33 32 25 23 23 23
31 32 32 31 33 33 33 34 34 34 35 37 37 37 38 39 39 39 37 37 36 36 35 35 35 35 36 36 38 40 36 35 33 33 32 31 35 29 28 28 23 22 24
30 31 30 31 32 31 33 31 31 33 35 35 37 37 37 37 38 38 37 36 36 36 34 34 35 36 36 37 38 39 37 36 33 32 32 31 33 32 30 31 26 23 25
29 30 29 30 29 30 30 29 30 31 33 34 35 37 37 36 37 37 36 35 36 35 35 35 35 35 35 36 38 38 40 36 31 30 30 30 30 31 32 32 31 25 25
27 28 28 28 27 28 28 28 29 31 30 32 33 35 37 37 36 36 36 36 35 35 35 34 34 35 35 34 35 37 38 38 33 26 26 26 27 29 31 32 31 28 24
26 27 27 26 26 27 27 27 28 29 28 30 30 32 35 36 36 35 36 36 36 37 35 35 35 35 34 34 35 35 35 36 33 27 24 24 24 25 27 28 26 27 27
27 27 26 26 26 26 27 27 28 28 28 27 27 29 32 34 36 36 36 37 37 38 38 37 36 36 36 36 36 36 36 36 35 26 23 21 22 23 25 26 24 22 23

GFSMW_sfc_30mbdewp_084.txt.gz
Dewpoint
52 57 56 57 58 57 55 55 55 59 63 64 63 62 62 63 63 64 62 61 61 60 60 58 58 59 58 58 57 55 55 55 58 59 58 55 56 55 54 54 53 53 54
49 54 55 55 54 57 58 56 59 61 58 60 62 62 62 62 62 64 64 64 63 61 61 60 59 59 59 59 58 56 57 57 59 56 56 51 51 52 53 53 54 53 53
46 50 53 53 55 58 59 59 59 60 60 62 62 62 62 62 60 61 62 64 64 64 64 63 63 62 61 61 60 59 58 59 60 60 54 51 48 51 51 53 53 52 52
44 46 50 52 53 56 59 58 61 61 61 62 61 60 59 58 59 59 61 63 63 64 64 64 64 63 63 62 62 63 62 60 57 59 59 57 54 50 46 50 51 51 48
47 45 46 49 51 56 59 58 59 60 60 60 61 60 59 60 60 59 61 61 62 63 63 63 63 63 63 62 61 61 61 60 59 56 55 57 57 57 54 42 43 48 48
47 46 44 45 46 45 46 49 55 57 60 61 60 61 60 60 59 58 59 60 62 62 63 63 63 62 61 60 59 58 58 58 58 57 58 57 52 49 50 47 44 45 47
42 42 42 43 44 45 45 46 54 55 60 61 59 60 59 61 59 58 59 61 60 61 61 62 62 62 61 60 59 58 57 58 57 57 56 54 51 50 49 48 46 46 46
42 40 38 40 41 43 44 44 44 44 44 49 56 60 62 61 60 60 61 61 60 60 61 62 62 61 61 59 58 58 58 57 56 54 53 52 52 52 51 48 46 45 45
42 41 38 39 39 40 42 43 43 44 45 45 45 45 52 58 60 61 61 61 61 61 61 61 62 61 59 58 57 55 53 53 52 51 51 49 50 51 51 51 49 47 43
36 38 38 36 37 38 40 41 42 43 44 45 45 45 46 47 52 56 58 59 60 60 59 59 59 58 56 55 53 50 49 48 48 49 48 49 50 50 51 50 50 50 47
36 36 36 36 37 37 37 37 38 40 42 43 44 45 45 46 48 51 53 55 56 56 57 56 54 53 51 50 49 47 46 46 46 47 47 47 48 48 49 49 48 49 48
35 35 34 33 34 35 37 38 38 38 39 41 43 44 45 46 46 47 49 51 53 54 53 52 51 49 47 46 46 45 44 44 44 45 46 45 45 46 46 47 46 47 47
29 29 28 29 29 30 31 34 37 38 39 39 39 42 44 45 45 46 46 47 48 50 51 50 48 46 45 44 43 43 43 43 43 43 43 44 44 44 45 45 45 46 45
28 29 29 29 29 30 31 31 31 34 37 39 39 39 41 44 45 45 45 45 46 46 47 46 45 44 43 42 41 41 41 41 41 41 41 42 43 43 44 44 43 43 43
28 29 30 30 30 31 31 32 33 33 34 36 39 39 40 42 44 44 45 44 44 44 44 43 42 41 41 41 40 40 40 40 40 40 40 41 41 41 42 41 42 42 41
29 30 30 30 30 31 32 33 34 34 35 34 36 39 39 40 42 44 44 44 43 42 42 41 41 40 39 40 40 40 39 39 38 38 39 39 39 40 41 41 40 40 40
30 30 30 30 31 31 33 33 35 35 36 36 37 39 39 40 41 42 43 43 43 42 41 41 40 40 39 41 41 40 39 39 39 40 40 40 39 39 40 39 38 38 37
30 30 30 31 32 32 33 34 35 35 36 37 38 39 39 39 41 41 42 42 42 42 41 41 40 40 40 42 42 42 40 41 39 39 39 40 38 36 36 33 32 32 31
30 30 31 31 32 33 33 33 34 35 35 35 36 37 38 38 40 41 41 42 42 41 41 41 40 40 40 41 42 42 40 38 37 37 39 38 36 35 34 30 28 25 27
31 30 31 30 31 32 30 32 33 33 34 34 35 36 38 38 39 41 42 42 41 41 41 40 40 40 40 40 41 40 38 36 36 36 37 37 36 35 35 30 28 24 22
30 30 30 29 31 29 30 29 29 30 31 34 35 35 37 38 38 40 41 41 40 39 39 39 38 38 39 38 40 40 37 36 35 35 34 35 36 35 36 32 24 21 22
26 26 26 26 28 26 28 26 26 28 30 30 33 35 37 37 38 38 40 39 39 39 38 37 37 37 37 37 39 40 38 37 35 35 34 34 36 34 31 32 27 24 23
24 24 24 25 25 24 25 24 24 26 27 27 29 31 31 34 37 37 38 38 37 37 37 36 36 37 37 37 38 39 40 38 36 35 34 34 35 36 31 32 30 26 24
22 23 24 23 22 22 24 24 25 26 26 26 26 27 29 32 33 36 36 37 36 36 36 35 35 36 36 36 36 38 39 40 38 33 33 33 33 33 31 31 32 27 25
22 24 24 23 22 23 23 24 25 25 25 25 25 26 26 27 31 33 36 36 37 37 36 36 36 36 35 35 36 36 37 38 36 29 26 27 26 25 28 30 30 29 27
20 20 19 20 22 24 24 24 25 25 26 26 26 26 26 26 27 30 32 36 38 38 39 39 37 37 38 37 37 37 37 37 37 28 22 22 22 22 22 26 27 28 28

GFSMW_sfc_30mbdewp_087.txt.gz
Dewpoint
50 56 55 54 56 58 58 57 58 58 59 59 62 61 61 60 61 63 64 64 64 64 63 62 57 58 59 58 57 56 54 54 54 55 55 56 55 54 54 53 53 51 52
50 55 55 56 55 56 58 57 57 59 60 59 61 61 62 63 63 63 63 63 62 61 61 61 59 59 60 59 59 57 56 55 56 57 55 54 54 52 52 52 52 51 50
45 52 54 54 55 54 58 58 58 58 59 61 60 61 59 60 61 62 62 63 63 63 63 62 62 62 62 61 62 61 57 56 58 59 56 51 49 50 51 52 52 50 49
46 50 53 54 54 54 57 60 58 60 60 61 60 60 58 58 59 60 61 63 63 63 64 64 64 64 63 62 62 62 63 61 59 60 59 57 55 49 47 52 50 51 47
48 47 52 54 55 56 56 57 58 59 61 60 60 60 59 59 60 60 60 61 62 62 63 64 64 63 63 63 62 62 61 61 60 58 57 56 56 56 52 47 44 49 48
49 47 48 51 52 53 53 55 57 57 59 60 60 59 59 59 58 60 59 59 60 61 61 63 63 63 62 62 61 60 60 60 59 59 57 54 53 53 54 51 46 45 46
48 46 45 45 47 49 48 49 52 55 57 59 60 59 60 59 56 58 58 57 58 57 60 62 62 62 62 61 60 59 59 58 57 56 57 57 56 55 50 48 47 46 46
43 42 42 43 45 46 45 45 48 46 47 54 58 60 60 60 59 59 59 59 58 58 59 61 61 62 62 61 60 59 59 58 58 58 58 56 54 52 51 50 48 45 46
42 40 40 38 41 43 42 43 44 45 45 46 46 50 58 60 59 60 60 60 60 61 60 61 61 62 61 61 60 58 58 58 57 57 55 53 53 53 53 52 50 47 43
40 41 42 40 37 38 39 40 42 42 43 45 45 46 46 47 52 58 60 60 61 61 61 61 61 61 61 59 59 57 56 55 53 52 51 50 50 51 52 52 51 50 48
38 39 41 42 41 37 37 37 38 39 40 42 43 45 46 46 47 49 52 56 57 59 59 59 60 59 58 57 56 54 52 51 49 49 49 49 50 50 50 50 50 49 49
38 36 31 31 32 32 34 37 38 38 39 39 41 43 45 46 46 46 48 51 53 55 56 57 57 56 55 55 54 52 49 48 47 47 48 47 48 47 48 48 48 48 47
29 29 29 29 29 30 30 31 31 33 35 39 39 39 42 44 45 46 46 47 49 52 53 53 52 51 51 50 49 47 46 46 46 46 46 46 46 45 46 46 46 46 45
29 29 29 29 30 31 31 32 32 33 33 34 37 39 39 40 44 45 46 46 46 48 50 51 50 48 46 45 44 44 44 44 44 44 44 44 44 44 45 45 45 45 45
29 30 30 30 30 31 31 32 33 34 34 33 34 37 39 40 41 44 45 45 45 45 46 46 45 44 44 43 42 42 42 42 41 42 42 42 43 42 43 44 43 43 43
30 30 30 30 30 30 31 33 34 34 35 35 35 37 38 39 41 41 43 45 44 44 44 43 43 42 41 41 42 42 41 41 41 40 40 41 40 40 41 41 41 42 42
30 30 30 30 31 31 32 33 34 35 35 35 36 37 38 39 40 41 41 43 44 44 43 43 42 42 41 40 42 41 41 40 40 40 40 40 40 41 41 41 40 39 39
30 29 29 30 30 31 33 32 33 34 35 35 35 36 37 39 39 40 41 42 43 44 44 43 42 42 41 41 42 41 41 41 41 41 41 41 39 40 39 38 37 35 34
29 29 30 30 29 31 31 29 31 32 32 33 34 35 36 37 39 39 41 42 43 43 44 43 42 42 42 42 43 42 42 40 38 38 39 40 39 39 39 35 33 32 30
29 29 29 29 27 29 28 28 28 28 30 30 32 34 35 36 37 39 39 40 42 42 43 43 43 42 42 41 43 43 40 38 37 38 38 38 38 38 38 33 31 27 26
27 25 25 23 24 28 24 25 25 25 27 29 29 31 33 35 36 37 38 40 41 42 41 42 41 41 41 41 42 42 39 38 37 36 36 37 38 37 38 34 31 29 25
22 21 22 23 24 25 23 23 22 23 24 25 25 26 28 30 31 35 37 38 40 40 40 40 40 39 39 40 41 42 40 38 36 35 35 35 37 37 38 37 31 25 24
20 19 20 20 21 21 21 21 21 22 23 23 23 23 25 26 29 31 33 36 37 37 38 39 38 38 37 38 39 41 41 39 36 36 36 36 36 37 36 35 33 27 24
18 19 20 19 19 17 18 19 20 21 22 22 23 23 24 24 25 26 31 33 36 36 36 37 36 37 37 37 38 39 41 41 38 37 35 35 35 37 34 32 33 29 26
18 19 18 19 18 17 18 20 20 21 21 22 22 22 23 24 25 25 27 29 31 36 36 36 37 36 36 36 37 38 38 39 39 35 33 33 34 34 34 32 32 30 26
15 15 16 15 15 16 17 19 21 21 22 22 23 24 25 26 26 27 27 28 29 32 36 38 39 38 38 39 39 39 39 39 39 32 30 31 31 30 30 30 31 30 29

GFSMW_sfc_30mbdewp_090.txt.gz
Dewpoint
51 53 55 55 56 59 59 59 58 59 60 59 58 58 58 61 61 63 62 62 63 63 63 62 59 58 60 58 57 56 55 55 55 54 54 55 57 57 56 55 53 52 52
48 53 55 55 55 56 59 59 59 59 60 58 58 58 59 61 62 63 64 64 62 63 63 63 61 58 60 60 59 57 56 55 55 54 56 54 55 55 54 52 52 51 51
47 52 53 54 54 54 53 58 60 59 60 59 60 60 59 61 60 62 62 62 63 62 62 62 62 61 62 61 61 61 61 57 57 56 56 54 52 52 52 52 52 51 49
45 50 53 54 54 54 55 57 59 60 60 60 59 59 57 58 59 61 62 62 63 62 62 62 62 62 62 62 61 62 61 61 59 60 60 58 56 50 50 52 50 50 48
46 48 52 54 55 55 55 57 59 59 60 60 60 60 58 59 61 60 59 59 61 61 62 62 63 62 63 62 62 62 62 61 60 59 58 57 55 55 52 48 47 49 48
46 46 48 52 52 52 53 54 55 56 58 59 60 60 59 59 59 59 59 59 60 61 61 61 62 63 63 62 62 62 61 61 60 59 59 57 55 53 52 51 51 50 47
45 45 46 47 48 48 49 50 52 53 56 57 58 59 59 59 58 55 58 59 59 60 60 61 61 62 62 61 61 60 60 60 59 59 58 57 56 56 55 53 50 47 47
43 44 44 46 46 47 47 48 51 51 50 53 56 58 60 59 59 58 58 59 58 58 58 61 61 62 61 61 61 60 59 59 58 58 57 57 57 57 55 51 49 46 46
41 42 43 43 45 45 45 46 47 47 47 48 48 50 59 59 59 59 58 58 59 60 59 60 60 60 60 61 60 60 59 58 58 57 57 57 56 55 53 51 49 46 42
42 42 43 42 42 41 39 39 40 42 43 44 46 46 47 49 51 57 59 60 60 60 60 60 60 60 60 60 60 59 59 58 57 57 56 54 53 53 52 52 51 50 47
40 41 43 42 37 37 38 38 39 39 39 40 43 45 46 46 47 48 50 53 56 57 59 60 60 60 60 60 59 58 57 56 55 54 53 52 51 50 50 51 50 50 49
39 38 37 37 34 31 31 32 34 35 38 40 39 41 44 45 46 46 47 48 50 53 55 57 59 59 59 58 58 56 55 54 53 51 51 50 50 49 50 50 49 49 49
35 29 29 30 31 31 32 32 33 33 34 35 39 40 40 40 43 45 46 46 47 49 52 54 55 56 56 56 56 55 53 52 50 49 49 48 48 47 48 48 48 47 47
30 30 30 30 31 32 32 33 34 35 35 34 35 38 39 40 41 42 45 46 46 46 48 51 52 52 50 50 51 49 48 47 47 47 47 47 46 46 46 46 46 46 45
30 30 30 30 30 31 32 34 34 35 35 36 36 37 39 39 40 41 42 45 45 45 46 47 47 46 46 46 46 45 45 45 45 45 45 45 45 45 45 45 45 44 44
30 30 30 31 31 31 32 34 34 35 35 35 36 38 39 39 40 40 41 42 44 45 44 44 45 44 43 43 44 44 44 43 43 42 42 42 42 42 42 42 43 44 42
30 30 30 30 31 31 33 33 33 34 35 35 35 36 37 38 39 40 40 42 42 44 44 43 43 43 43 42 44 44 42 42 41 41 41 40 41 40 41 42 41 41 41
29 29 29 30 29 30 32 30 31 34 33 34 34 35 36 36 38 39 40 41 42 43 43 44 43 42 42 42 42 43 41 41 40 40 40 39 39 40 40 39 38 37 36
29 30 30 29 29 28 29 28 30 30 29 31 31 33 35 35 36 36 37 39 40 41 42 43 43 42 42 42 42 42 40 39 39 40 40 40 39 40 40 38 36 34 32
29 29 28 28 27 27 26 25 27 27 27 29 30 30 32 34 35 36 36 37 38 40 41 42 43 43 42 42 43 42 40 39 38 38 38 40 39 39 40 36 34 32 30
25 24 24 23 23 26 25 24 25 24 25 25 26 27 28 29 31 33 34 36 37 38 40 41 41 42 42 42 43 43 40 39 38 37 37 38 39 38 39 36 33 31 28
21 21 21 22 23 24 24 23 23 23 23 23 24 24 25 26 26 28 31 33 34 36 39 39 40 41 41 42 43 43 42 40 37 37 36 37 39 38 38 38 33 32 29
18 19 19 20 20 21 20 20 20 21 21 22 23 23 24 24 25 25 26 30 32 31 33 36 37 39 39 39 41 43 43 41 37 37 36 36 38 38 37 39 36 29 26
18 19 20 20 19 19 19 18 18 20 21 21 22 22 23 23 24 25 26 28 29 30 30 32 34 36 37 38 38 40 42 43 40 37 37 37 37 37 37 38 38 29 25
18 18 17 17 19 18 16 17 18 20 20 21 22 22 23 24 25 26 26 27 28 29 28 28 33 35 35 37 38 38 39 41 40 37 36 36 35 35 35 34 33 30 27
18 18 17 16 15 15 15 16 17 18 20 22 23 24 25 26 26 27 27 28 27 27 28 28 30 32 37 39 39 39 40 40 41 36 34 33 33 33 34 33 32 30 28

GFSMW_sfc_30mbdewp_093.txt.gz
Dewpoint
22 53 54 55 58 58 58 57 59 60 60 60 59 60 59 59 61 62 62 61 60 58 58 59 58 59 59 57 56 56 55 55 56 54 54 53 55 57 57 56 54 54 53
46 51 53 55 55 56 58 59 59 59 60 60 59 58 58 58 58 59 61 62 60 61 62 61 60 59 60 58 57 56 56 55 56 54 55 52 54 56 56 56 52 52 52
47 51 53 54 55 56 57 59 59 59 60 60 60 60 59 58 56 57 59 61 63 61 62 62 62 60 60 60 59 59 57 55 56 56 55 54 53 54 53 52 52 50 50
48 50 52 52 54 54 55 58 59 60 60 60 60 59 57 56 57 60 61 59 60 61 62 62 62 61 61 61 61 62 61 60 58 60 60 58 57 52 50 53 51 50 48
46 48 51 54 55 55 55 56 58 59 60 60 60 59 58 58 60 60 60 60 61 62 61 61 61 61 62 61 61 61 61 61 60 59 58 58 57 56 53 50 49 49 49
46 47 48 50 51 52 52 53 54 55 58 59 59 59 59 59 58 59 59 59 60 61 61 62 61 62 62 61 61 61 61 61 60 60 58 56 55 55 54 51 51 51 52
45 45 46 47 48 48 48 50 51 53 56 58 58 58 59 59 59 57 58 59 59 58 60 60 61 61 62 62 61 61 61 60 60 59 58 57 57 56 55 54 53 51 49
43 43 45 46 46 46 47 49 50 50 51 52 53 55 59 59 58 57 57 58 58 59 59 60 60 61 62 61 61 60 60 60 59 59 58 58 57 57 56 54 53 50 47
42 43 44 44 44 44 43 44 44 46 48 49 49 51 54 59 59 59 57 57 59 59 59 59 59 59 61 60 60 59 59 59 59 58 58 57 57 57 56 55 53 50 45
42 43 43 43 44 44 43 41 40 40 42 45 47 48 49 51 53 55 58 59 58 59 59 59 59 59 60 60 60 59 59 58 58 57 57 57 57 56 56 54 51 49 46
41 41 41 40 39 36 35 34 34 35 38 40 41 44 45 46 47 47 49 51 54 56 57 59 60 59 59 59 59 59 59 58 58 57 57 56 54 54 53 53 52 50 48
39 40 39 38 33 33 33 33 34 34 34 36 40 40 40 41 43 45 46 47 47 49 53 55 57 59 59 60 59 59 58 57 56 55 55 55 53 52 52 51 50 49 49
38 34 31 31 31 32 33 34 35 35 35 35 36 38 39 39 40 41 43 46 46 46 48 51 53 55 57 57 58 58 57 56 56 55 54 54 52 51 50 49 49 49 49
30 30 30 30 31 32 33 34 34 35 35 36 37 38 38 39 40 41 41 42 45 45 45 47 49 51 52 53 55 55 54 54 54 52 52 51 50 49 48 48 48 47 46
30 30 30 30 31 31 33 34 34 35 35 35 36 37 39 39 40 40 40 41 42 44 45 45 46 47 47 48 48 49 50 50 49 49 49 49 48 48 48 47 47 46 45
30 30 30 30 31 31 32 33 33 34 35 35 35 36 37 37 38 39 40 41 41 42 43 44 44 44 45 44 45 46 46 46 46 46 46 46 46 46 46 47 46 46 44
30 29 29 30 30 30 33 31 31 33 34 34 35 35 35 35 36 38 38 39 40 41 41 42 43 43 43 43 44 45 44 44 44 44 43 43 43 44 44 44 45 45 44
29 29 29 30 29 29 31 29 30 32 29 32 31 31 32 34 35 36 37 37 38 39 40 41 43 43 43 43 43 43 43 42 43 42 42 41 41 41 41 41 40 40 41
29 30 30 29 29 28 29 26 26 28 27 30 29 29 31 31 32 33 34 36 37 38 39 40 41 42 43 43 43 42 41 40 40 39 40 40 39 40 41 39 37 37 35
28 28 27 26 25 24 26 25 24 25 24 27 26 27 28 28 30 30 31 33 35 36 37 39 41 42 42 43 43 43 40 39 39 40 39 40 39 41 42 38 36 35 33
25 25 23 23 23 24 25 24 24 23 24 26 25 25 26 25 26 29 28 31 30 34 34 34 37 40 41 42 43 44 41 40 39 38 38 39 41 40 41 39 36 34 32
22 22 21 21 23 24 24 24 23 23 23 23 23 23 24 24 25 25 27 26 29 30 30 30 32 35 38 41 42 43 44 41 39 38 38 38 40 41 40 40 36 35 32
18 19 19 20 20 20 20 19 19 19 20 21 21 22 22 23 24 24 25 25 28 28 29 29 29 31 34 37 39 41 42 44 41 39 38 38 39 41 40 40 37 36 30
18 19 19 18 17 18 20 19 17 17 19 19 20 21 22 23 24 24 26 26 27 27 28 28 26 27 30 33 37 38 39 41 43 39 38 38 39 40 38 38 38 34 29
18 18 18 18 17 17 16 16 16 16 17 18 19 21 22 23 24 26 26 27 28 28 28 26 26 26 27 29 33 37 38 38 40 38 37 37 36 36 36 36 37 32 28
19 18 17 17 16 16 16 16 17 17 17 17 19 22 24 25 26 26 26 27 28 28 29 28 25 25 27 28 31 34 36 39 39 38 35 35 35 34 34 34 34 33 30

GFSMW_sfc_30mbdewp_096.txt.gz
Dewpoint
23 26 31 47 55 57 57 59 59 60 59 59 59 59 60 60 60 62 61 62 58 60 59 58 57 57 56 55 55 54 53 53 52 53 54 54 54 56 56 57 56 55 57
25 37 49 53 56 56 57 57 59 60 60 60 59 59 60 60 60 60 60 60 61 59 59 58 56 57 56 57 56 55 55 54 55 53 54 52 53 55 56 57 55 54 54
31 44 51 53 54 55 56 57 58 58 59 60 60 59 60 59 59 59 60 60 61 61 59 59 59 58 58 58 57 57 56 55 56 56 54 53 51 53 54 55 54 53 53
47 50 51 53 53 54 56 57 57 58 59 60 59 59 58 56 57 58 60 61 61 60 60 61 61 60 60 60 59 58 57 57 56 58 59 57 55 52 50 53 52 51 50
46 49 51 52 54 54 54 55 57 57 59 60 60 59 58 58 59 60 59 60 61 61 61 62 62 61 61 61 60 60 60 59 58 57 58 58 57 56 53 51 51 51 50
46 47 49 50 51 53 53 53 54 54 56 58 59 59 58 58 58 59 59 59 60 61 61 61 62 61 60 61 61 61 60 60 60 59 58 57 56 55 55 53 52 52 53
44 45 46 47 48 49 50 51 52 52 53 54 56 58 59 59 58 58 58 58 59 59 60 61 60 61 61 61 61 60 60 60 60 60 59 58 57 56 56 54 52 52 53
43 44 44 44 45 45 48 49 49 49 50 51 52 52 54 59 58 58 59 59 59 59 59 60 60 60 60 60 60 60 60 60 60 59 58 58 57 56 56 55 53 51 51
42 43 44 44 44 44 43 42 44 45 47 49 50 50 51 55 57 58 58 57 58 59 59 59 59 60 60 60 60 60 59 59 59 59 59 58 57 57 56 55 54 52 49
41 42 42 41 42 41 41 40 40 40 43 45 47 49 49 50 51 53 55 57 58 58 58 59 59 59 59 59 60 59 59 58 58 58 58 58 58 57 56 55 54 53 50
41 41 40 41 41 40 40 38 38 36 36 41 41 42 43 45 47 47 47 48 50 52 55 56 58 59 59 59 59 59 58 58 58 57 57 57 57 56 56 55 53 52 49
39 40 40 39 39 38 38 35 35 35 35 36 38 39 39 40 40 41 43 45 46 46 48 51 54 56 59 59 58 58 58 58 57 57 56 56 55 55 55 54 53 52 50
38 37 36 33 32 33 34 34 35 35 36 37 37 38 39 39 39 40 41 42 43 45 45 47 49 51 53 56 57 59 58 58 58 57 56 56 55 54 54 53 52 51 50
30 30 30 31 31 32 33 34 34 35 36 36 37 37 38 38 39 39 40 41 42 43 44 45 45 47 48 50 52 54 55 56 56 56 56 56 54 54 53 52 51 50 48
30 30 30 31 31 31 33 32 32 34 35 35 36 36 36 37 37 38 39 40 41 41 42 43 44 44 45 46 47 48 50 52 53 53 53 53 53 53 52 51 49 48 47
30 30 30 30 30 30 32 30 30 33 32 33 33 33 33 34 35 36 38 38 38 39 40 40 41 42 43 44 45 45 46 47 48 49 50 50 50 50 50 49 48 48 46
30 29 29 30 29 29 32 29 29 32 29 31 31 30 30 31 32 34 34 35 37 37 38 39 40 41 42 43 44 44 44 45 46 46 46 46 47 48 48 48 48 48 47
29 29 29 29 29 29 30 28 27 27 27 26 29 28 28 29 29 31 31 32 34 35 37 37 39 40 41 43 44 44 43 43 43 44 44 44 44 45 45 45 46 46 46
29 30 30 29 28 26 28 26 25 25 25 24 27 26 26 26 27 27 29 30 31 33 34 37 38 39 40 42 43 43 43 41 40 40 42 43 42 42 43 42 41 41 40
29 27 26 24 24 23 26 25 24 24 23 23 24 26 26 25 25 25 26 29 29 29 32 35 34 35 37 39 42 43 43 41 40 40 39 41 41 42 43 40 39 39 38
23 24 23 22 22 23 25 24 24 24 25 25 25 25 25 25 24 25 27 26 27 27 29 29 30 31 33 35 39 41 42 41 40 40 40 39 41 41 43 40 38 38 34
21 21 20 20 21 21 21 20 20 21 20 19 20 22 23 23 23 23 24 24 25 26 27 27 28 30 31 33 35 37 39 40 41 39 40 40 40 42 42 42 38 37 34
19 18 19 19 20 19 19 18 19 19 17 17 18 18 18 20 22 22 23 24 25 26 26 27 28 28 27 29 31 33 35 37 39 41 40 39 40 40 42 42 40 38 33
18 18 19 18 18 18 18 18 18 16 16 16 17 18 19 19 22 24 24 25 25 26 26 27 25 25 25 26 28 30 32 35 38 39 40 40 39 40 40 41 40 38 32
17 18 19 18 18 18 17 16 16 16 16 16 17 17 18 19 21 22 25 26 27 28 27 28 28 25 23 24 26 27 28 31 34 38 37 37 37 37 38 38 38 36 33
19 17 17 17 17 17 16 17 18 18 18 18 18 18 19 20 22 24 25 28 27 27 27 27 27 28 27 26 26 27 28 29 32 35 35 34 35 35 35 35 35 35 33

GFSMW_sfc_30mbdewp_099.txt.gz
Dewpoint
26 27 28 30 31 39 52 57 59 59 59 59 59 60 59 59 60 61 62 61 61 60 61 61 61 61 60 59 58 57 54 54 52 52 53 54 55 55 55 56 57 56 57
28 28 31 39 46 49 55 57 59 59 59 59 59 59 59 59 60 60 60 61 62 60 61 61 60 60 59 57 56 56 54 53 54 51 53 51 52 54 55 56 56 56 56
29 29 36 50 54 55 56 57 58 59 59 59 59 59 59 59 60 60 60 60 61 62 60 60 60 58 58 57 56 56 55 53 55 54 53 52 50 53 54 55 56 54 54
33 46 49 50 52 54 56 56 58 58 59 59 59 58 57 57 58 59 60 60 61 61 62 61 60 58 58 57 57 57 56 55 54 56 57 57 55 52 51 53 52 52 52
45 47 50 52 53 53 54 56 56 57 58 59 59 58 57 57 58 58 58 59 60 61 62 62 61 60 59 58 59 58 57 57 56 55 57 57 56 55 52 51 51 52 51
45 47 48 50 51 52 52 53 54 55 56 57 58 58 59 58 58 58 58 59 59 60 60 61 61 61 61 60 60 60 59 59 58 58 58 56 55 55 55 53 53 52 52
45 44 44 45 47 49 51 52 51 51 52 53 53 53 54 57 58 58 58 58 58 59 60 61 61 60 61 61 60 60 60 60 59 59 58 58 57 57 56 55 53 52 53
43 43 44 44 44 44 44 46 47 48 49 51 51 51 52 55 58 58 59 59 59 59 60 60 61 61 60 60 60 59 60 60 59 59 59 59 58 58 57 56 53 51 51
42 41 41 41 40 41 41 41 43 44 45 48 50 50 50 51 52 53 55 57 57 58 59 59 59 59 60 60 59 59 58 59 58 58 59 58 58 58 58 57 56 53 50
40 40 40 41 41 41 41 41 42 41 42 43 44 46 47 48 48 49 49 49 51 53 57 58 58 59 59 59 59 59 59 59 59 59 58 58 58 58 57 57 56 55 53
39 40 40 41 41 40 40 40 39 38 38 39 40 40 42 43 43 43 45 46 47 48 49 53 55 56 58 59 58 58 59 58 58 58 58 57 58 57 57 57 55 54 53
40 40 40 41 40 40 40 39 38 36 37 37 38 38 39 39 40 40 40 42 42 45 45 46 48 51 53 56 58 58 58 57 57 57 57 56 57 56 56 55 54 53 52
39 39 39 38 38 36 37 36 36 36 36 37 37 37 37 37 38 39 39 41 41 42 43 44 45 46 47 49 51 54 56 57 57 57 57 56 56 55 56 55 54 54 52
31 30 30 31 31 33 33 32 33 35 35 36 35 34 34 35 36 37 38 39 40 40 40 41 42 43 44 45 46 48 50 52 54 56 57 57 56 55 55 54 54 53 52
30 30 30 30 30 31 32 29 31 33 32 34 32 31 32 33 33 34 36 37 38 38 39 39 40 41 42 43 44 44 44 46 48 52 53 54 55 56 56 54 53 52 50
30 30 30 29 29 29 31 29 29 31 29 31 30 29 29 30 30 32 32 32 34 35 37 37 38 39 40 42 44 44 44 44 45 47 49 50 51 52 53 53 53 52 50
30 29 29 29 29 29 30 28 27 27 26 26 29 28 28 28 28 29 30 30 31 32 33 35 36 37 39 41 42 43 44 43 43 44 45 46 47 48 49 50 51 50 50
29 29 29 29 28 28 28 27 26 24 24 23 23 25 26 25 25 25 26 27 30 30 31 32 35 36 35 36 40 41 43 43 42 42 42 43 44 45 46 47 47 47 48
29 29 29 27 26 23 25 25 24 24 24 23 23 24 25 25 25 24 25 26 29 28 28 31 32 32 33 35 33 38 41 41 41 41 41 41 42 43 45 45 44 44 44
29 26 25 23 22 22 24 24 23 24 23 23 23 24 24 24 24 24 24 25 25 26 28 29 29 30 30 33 33 34 39 39 40 41 41 41 41 42 43 43 42 41 41
22 24 22 21 22 22 22 20 20 18 21 20 19 20 22 22 23 23 24 24 24 25 26 26 27 28 30 31 31 32 35 38 39 40 40 40 41 42 43 44 41 41 38
20 19 18 19 20 20 18 17 17 19 20 18 17 17 17 18 19 21 22 22 23 24 25 26 26 27 29 29 28 29 31 33 36 37 39 39 41 41 42 43 41 41 38
18 18 18 19 19 18 18 16 17 17 16 16 16 16 17 17 18 19 20 22 23 24 25 26 26 27 27 26 28 27 28 30 31 35 38 39 40 41 41 42 42 40 35
17 18 18 17 17 17 17 17 17 17 17 17 17 17 17 18 19 19 20 22 23 24 25 26 26 27 25 25 25 26 26 27 27 30 32 35 39 40 40 41 42 39 35
18 18 17 17 17 18 17 17 18 19 19 19 18 18 19 19 19 20 21 23 25 26 27 27 27 25 26 26 25 28 28 28 29 29 31 33 35 36 37 38 39 38 35
17 16 17 17 17 18 19 19 20 20 20 21 21 21 22 22 22 22 22 25 27 29 28 27 27 27 27 27 25 25 27 27 29 29 28 30 34 34 35 35 36 35 34

GFSMW_sfc_30mbdewp_102.txt.gz
Dewpoint
27 27 28 30 31 33 35 43 55 58 59 59 58 58 58 58 59 60 60 61 61 61 63 62 61 62 59 57 59 60 59 57 56 54 53 54 54 54 54 55 56 56 57
28 29 30 31 32 32 37 47 55 58 59 59 58 58 58 59 59 59 60 61 61 61 60 61 62 61 60 59 59 58 57 57 55 54 52 50 51 54 55 55 56 56 56
31 31 31 33 40 49 51 53 57 59 59 59 59 59 59 59 59 59 59 59 61 62 61 61 61 61 61 58 59 59 58 55 54 54 52 50 49 51 54 55 55 56 56
37 36 43 48 49 51 54 57 58 58 59 59 59 57 57 56 57 58 59 60 60 60 62 61 61 61 60 60 59 58 57 55 54 54 55 55 54 51 50 53 53 54 54
45 46 49 50 51 52 54 56 58 57 58 58 58 57 57 57 58 57 57 58 60 60 60 61 61 60 60 59 59 58 57 57 55 54 54 56 56 55 52 51 51 52 52
45 45 46 48 49 51 52 53 54 53 55 56 56 55 55 56 57 57 57 58 58 59 60 61 61 61 61 60 59 59 58 57 57 57 56 54 53 54 53 52 52 51 52
43 43 43 44 44 45 48 50 50 50 51 51 52 52 53 54 56 58 58 58 58 58 59 60 59 59 60 60 60 59 59 58 58 57 57 57 56 56 55 55 53 53 54
41 41 41 41 42 43 43 44 45 46 48 50 50 51 51 52 53 53 56 57 56 58 59 60 60 60 60 60 60 59 59 59 59 59 59 58 58 58 57 56 55 53 52
40 40 40 41 41 42 42 42 42 43 43 45 47 47 48 48 49 50 50 50 51 52 54 58 58 59 60 60 60 59 58 59 59 59 59 58 58 59 58 58 57 55 51
39 40 40 40 40 41 41 40 40 41 41 42 42 43 44 45 45 45 45 46 48 49 49 51 53 55 57 59 59 59 59 58 58 58 58 58 58 58 58 58 57 57 55
39 40 40 40 40 41 40 40 38 39 40 40 39 39 39 41 42 41 41 42 43 44 46 47 49 50 52 54 56 58 58 58 57 58 57 57 58 58 58 57 57 56 56
39 40 40 40 39 39 39 39 39 38 37 37 36 36 36 37 37 39 39 40 40 41 42 43 44 45 46 47 49 51 54 57 57 57 57 57 57 57 57 57 56 55 55
39 38 37 37 37 37 36 36 38 37 37 36 33 32 33 33 34 36 37 38 38 38 39 40 40 41 42 44 45 46 47 50 51 55 57 56 57 56 56 56 55 54 53
36 34 32 31 31 33 31 30 33 32 34 33 30 29 30 31 31 33 33 34 36 36 37 37 38 39 40 42 43 44 44 44 45 48 51 53 55 56 56 55 55 54 53
30 30 30 30 30 31 30 28 29 29 29 30 29 27 28 28 28 28 30 31 32 32 34 35 36 37 37 39 42 43 43 43 43 44 46 49 51 52 53 55 55 54 53
30 30 30 29 28 29 30 28 26 26 26 24 26 27 26 26 26 26 27 27 28 30 31 30 32 35 36 36 35 40 41 42 43 42 43 45 46 48 49 50 52 54 53
30 29 29 29 29 28 29 26 26 25 24 23 23 25 26 25 25 26 25 25 26 29 28 29 30 33 34 33 33 33 38 40 41 42 41 42 43 44 45 47 48 50 51
30 29 29 28 27 27 27 26 25 24 23 22 21 22 23 23 24 24 23 23 25 27 27 27 29 30 29 31 31 34 34 37 39 40 40 41 42 42 43 44 45 46 48
30 29 29 27 24 22 24 24 22 23 22 21 20 20 22 22 22 21 22 23 25 25 25 27 28 28 28 30 31 31 33 34 34 35 39 40 41 41 43 43 43 43 45
29 26 25 23 22 22 23 21 20 21 21 21 20 21 22 22 21 21 21 23 24 24 25 25 26 28 27 29 30 29 30 32 33 36 35 37 39 42 43 42 42 41 42
23 24 22 21 21 21 20 18 19 19 21 21 19 19 19 18 19 19 20 21 21 22 22 24 25 26 27 29 30 28 28 30 30 31 35 37 38 39 40 42 42 42 42
20 19 19 19 20 20 18 16 16 18 18 17 17 17 17 18 18 18 20 20 21 22 22 23 24 26 27 29 29 28 27 28 26 27 29 34 35 37 39 40 42 43 41
18 18 18 18 18 18 17 16 17 17 17 18 18 18 18 18 19 19 19 19 20 21 22 24 25 26 27 27 28 27 26 26 26 26 27 28 30 32 35 39 41 42 39
17 18 17 15 16 17 17 17 18 19 19 19 19 19 19 20 20 20 20 20 21 22 23 25 26 26 27 26 25 25 27 30 27 26 27 28 29 30 33 38 40 41 37
18 17 16 16 17 18 18 19 20 20 20 20 21 21 21 22 22 22 22 22 23 24 26 27 28 27 26 27 27 27 27 28 28 28 29 28 25 27 33 35 37 38 37
16 16 17 17 18 19 20 20 21 21 21 22 22 22 22 22 22 22 23 24 25 26 27 27 27 27 26 28 27 27 26 28 26 28 28 28 28 30 31 33 34 35 35

GFSMW_sfc_30mbdewp_105.txt.gz
Dewpoint
33 32 30 31 32 34 35 36 40 49 59 59 59 59 58 59 60 60 60 60 61 61 62 62 62 63 61 61 61 62 60 59 59 58 57 57 56 55 54 54 53 53 55
33 32 32 33 34 32 35 36 41 54 58 59 58 59 59 59 59 60 60 60 60 61 61 62 61 61 61 60 58 58 57 59 58 56 55 52 50 54 54 54 54 54 55
40 40 37 35 35 36 39 41 43 53 56 59 59 59 59 59 59 59 60 60 61 61 61 61 62 62 61 60 59 58 56 54 56 57 54 50 48 50 53 54 54 54 56
43 45 47 46 48 48 50 53 54 57 58 59 59 58 57 56 57 59 59 60 60 60 61 61 61 61 61 61 60 59 58 57 54 56 56 55 54 50 47 54 55 55 55
44 44 46 47 50 50 51 54 57 58 58 58 58 57 56 56 56 57 58 58 59 60 61 61 61 61 61 61 60 60 59 59 57 55 54 55 54 55 53 50 53 53 54
43 44 45 45 46 47 50 51 53 53 54 55 54 55 55 55 56 57 56 57 58 59 59 60 61 61 61 60 60 60 60 59 58 57 56 54 52 53 53 53 52 52 54
41 41 42 43 44 44 46 47 48 50 51 51 51 51 52 52 53 53 56 57 58 58 58 59 59 60 60 60 60 60 60 59 58 57 57 56 55 55 54 53 52 53 54
40 40 41 41 42 43 43 43 44 44 47 48 48 48 48 48 48 49 50 50 50 51 52 53 58 59 60 60 60 59 59 59 59 58 58 57 57 57 56 54 54 52 53
40 40 40 40 40 40 41 41 41 42 42 42 43 44 45 44 43 44 45 47 48 49 50 50 51 53 54 56 59 59 59 59 59 59 58 58 58 58 58 57 57 54 50
39 40 40 40 40 40 40 40 40 40 40 40 39 40 41 43 43 42 42 42 43 43 45 46 48 49 50 50 52 55 58 58 59 59 59 59 59 58 59 58 58 57 55
39 40 40 40 40 39 40 39 39 39 38 37 37 35 36 38 40 40 39 38 39 40 40 42 43 44 45 47 47 49 50 52 56 57 57 57 58 57 58 58 57 57 56
39 39 39 39 38 37 38 38 38 37 37 34 31 32 30 31 32 33 34 35 34 34 35 35 36 38 40 43 44 44 45 46 48 50 53 57 57 57 57 57 56 56 56
37 37 36 34 34 34 33 35 34 34 33 29 28 27 28 27 28 29 29 30 31 31 32 33 33 34 36 40 42 43 43 43 44 46 47 49 51 54 56 56 56 56 55
37 35 31 30 31 32 29 30 30 29 31 29 27 27 27 26 26 27 27 27 30 29 29 30 31 33 35 35 38 38 40 41 42 43 44 45 47 49 50 51 55 55 54
30 30 30 30 29 31 29 27 27 27 27 28 27 27 27 26 26 26 26 26 28 29 28 28 28 31 33 33 34 34 36 37 39 41 42 43 44 44 46 48 49 52 53
30 30 30 29 28 28 29 27 25 25 24 23 24 25 25 25 25 25 25 25 25 28 27 27 28 29 28 31 31 32 33 33 36 38 40 41 42 43 44 45 45 47 48
30 30 29 29 28 27 29 26 25 24 23 22 22 22 23 23 24 24 23 22 22 25 25 25 26 28 29 29 30 30 32 33 33 34 36 38 39 41 42 43 44 45 46
31 30 29 29 27 26 26 26 25 23 22 21 18 19 19 19 20 20 20 20 22 23 24 25 26 27 27 29 29 29 31 32 33 34 34 34 35 38 40 41 42 43 44
31 30 29 27 24 22 24 23 21 21 20 20 19 19 20 20 20 20 20 21 22 23 23 24 25 26 27 29 29 29 30 30 30 30 31 32 34 33 35 38 41 41 42
30 29 26 24 21 22 21 18 18 18 18 20 20 20 20 20 20 20 20 21 22 22 23 23 24 26 27 28 29 29 28 27 28 28 29 30 33 35 35 37 38 38 40
26 24 22 20 21 20 19 16 17 17 19 20 19 19 19 19 19 20 20 21 22 22 22 22 23 24 26 27 29 29 28 27 27 25 24 25 28 29 31 33 36 38 40
22 19 19 19 20 19 18 16 16 18 18 18 18 18 19 19 19 20 20 20 20 20 21 22 23 24 26 28 28 28 27 26 24 24 25 25 26 28 28 29 32 34 39
19 18 18 18 18 18 17 16 16 18 19 19 19 19 20 20 21 21 20 20 20 21 21 22 23 25 26 27 28 28 27 27 25 26 24 25 25 26 27 28 30 32 37
17 18 16 15 15 17 17 18 19 20 20 20 20 21 20 22 22 22 21 21 22 22 22 23 24 25 27 27 26 26 28 29 29 28 29 29 27 23 24 26 30 35 37
18 17 15 16 16 18 19 20 20 21 21 21 21 21 21 22 22 22 22 23 23 24 24 25 26 26 26 27 27 27 27 27 28 29 28 28 27 24 26 29 30 32 35
16 16 17 18 19 19 19 20 21 21 22 21 21 21 21 21 21 21 21 22 22 23 22 23 24 26 27 27 27 28 27 27 26 27 28 23 23 24 25 25 28 30 33

GFSMW_sfc_30mbdewp_108.txt.gz
Dewpoint
38 41 41 36 35 35 35 34 33 35 34 46 56 58 58 61 62 62 62 61 61 61 60 60 60 61 61 61 62 62 61 61 62 60 58 59 59 57 57 54 50 51 52
41 42 44 44 37 36 36 35 35 36 39 49 57 59 59 60 61 61 61 61 60 60 59 59 60 61 62 61 60 60 60 59 60 57 55 52 52 55 55 54 54 53 54
41 42 42 45 47 44 40 37 37 38 41 49 58 59 59 60 59 59 59 60 60 60 60 59 60 60 61 60 60 59 59 56 57 59 54 52 49 48 50 54 54 52 53
41 42 42 45 48 48 49 49 45 46 44 52 57 57 57 57 57 58 59 60 60 60 60 61 60 60 60 60 60 60 59 57 54 57 57 54 53 50 46 46 50 50 50
42 42 44 46 46 48 49 52 50 51 55 54 56 57 57 57 57 57 57 58 58 59 59 60 60 60 60 60 60 60 60 59 57 55 55 56 54 53 52 50 53 54 54
40 40 42 44 45 47 48 51 52 53 54 54 55 55 55 55 55 55 56 57 58 58 58 59 59 59 60 60 60 60 60 60 59 58 57 54 52 52 51 50 50 51 53
40 40 40 41 43 44 45 46 47 48 50 51 51 52 51 50 50 50 51 51 51 52 52 53 56 59 59 59 59 60 59 59 59 59 58 58 56 55 53 51 50 50 51
39 39 40 40 41 42 43 43 43 43 44 45 46 46 46 45 45 46 47 47 48 48 48 49 51 52 53 54 55 57 59 59 60 59 59 58 58 57 55 53 53 52 52
39 39 40 40 40 40 40 40 40 40 40 41 42 43 43 43 43 43 43 44 43 43 44 45 47 48 49 49 50 53 54 58 59 59 59 59 58 58 57 56 56 54 51
39 39 39 40 39 39 40 40 38 37 37 36 36 37 39 40 41 40 39 39 39 39 40 41 42 42 44 46 47 48 49 50 51 54 57 58 58 58 58 58 57 56 54
39 39 39 39 38 38 39 39 38 36 33 32 31 29 31 33 32 32 35 36 34 34 33 35 35 37 39 43 43 44 45 46 46 48 49 50 54 58 58 58 57 57 57
39 39 39 38 38 37 37 37 37 33 32 32 28 30 28 25 25 26 26 26 26 26 26 25 26 27 29 32 37 39 41 42 43 44 46 47 49 50 54 57 57 56 57
37 36 36 34 35 33 33 33 31 31 27 23 23 23 22 22 22 23 22 21 23 23 22 23 23 25 27 28 30 30 32 34 36 39 41 43 45 47 48 48 49 54 56
35 34 31 30 30 30 27 25 24 23 25 25 24 24 24 25 24 23 22 21 21 22 21 21 21 23 25 26 29 29 30 30 33 36 38 39 41 41 42 45 47 48 49
32 30 31 29 28 29 27 24 23 23 22 24 23 24 23 23 22 22 21 20 19 20 21 20 19 20 21 21 29 28 27 28 28 28 31 36 39 40 42 42 43 44 46
30 30 31 30 28 27 27 25 23 22 22 20 20 19 17 17 18 18 18 17 18 18 18 18 19 21 20 25 29 29 26 25 25 25 28 30 33 35 37 39 42 43 43
30 31 31 30 29 26 27 25 24 23 22 19 17 16 16 15 16 16 15 16 16 17 18 17 18 18 20 24 28 29 26 26 26 27 28 27 28 33 33 35 37 39 41
30 31 31 30 29 26 25 26 25 21 20 18 15 15 16 16 17 17 17 17 18 19 19 20 20 20 21 25 28 29 27 27 27 26 26 25 25 26 32 31 32 34 36
31 32 31 30 26 22 23 23 21 20 18 17 16 17 17 17 18 18 19 19 19 20 20 20 21 22 22 25 28 29 26 26 25 24 24 25 25 27 30 30 33 32 33
32 31 30 25 22 22 21 19 18 17 16 18 18 18 18 18 18 19 19 21 21 21 21 22 22 22 23 25 27 28 25 23 23 23 23 23 24 27 28 28 26 28 29
31 29 25 22 21 20 19 17 16 15 18 19 19 19 19 18 18 19 21 21 20 20 21 20 20 20 22 24 27 28 26 24 23 22 21 22 24 25 27 27 27 27 29
26 24 22 21 21 20 17 15 15 17 18 19 19 17 18 18 18 19 18 18 18 18 18 18 19 20 21 23 26 28 27 26 25 23 22 23 24 25 25 25 25 26 26
22 20 20 20 18 17 17 15 15 18 19 18 16 17 18 17 19 18 18 18 19 19 19 19 19 20 21 22 23 25 25 26 27 26 26 28 27 27 26 24 23 24 26
20 19 17 15 14 16 16 17 18 19 19 17 17 18 17 19 18 19 19 19 20 20 21 21 20 21 22 22 22 23 24 25 25 25 27 28 30 26 25 23 24 26 28
19 18 15 15 14 17 18 19 19 19 19 18 18 18 18 19 18 19 20 20 21 21 22 22 22 22 23 23 27 26 27 28 26 28 27 27 26 23 22 23 23 25 27
18 17 17 16 17 18 18 18 20 20 19 19 18 18 19 18 19 19 19 20 21 23 23 23 22 22 23 25 25 27 29 26 27 27 26 27 24 21 21 21 23 24 24

GFSMW_sfc_30mbdewp_111.txt.gz
Dewpoint
38 39 41 42 43 43 36 35 35 34 34 35 36 46 57 60 63 60 59 59 59 59 61 60 60 61 60 60 60 60 61 61 62 61 61 61 61 59 57 57 54 50 49
39 40 41 42 42 45 45 40 36 35 34 37 37 49 55 58 60 62 62 60 60 60 60 59 60 60 61 60 60 61 60 60 62 58 58 55 56 58 57 58 57 55 51
40 41 42 43 44 45 46 46 45 36 36 37 43 52 57 59 59 60 61 61 61 61 60 60 60 60 61 60 61 60 60 59 59 60 57 53 50 51 53 55 55 54 54
40 41 41 43 45 46 48 50 48 45 40 42 43 52 56 57 58 59 59 60 59 59 60 60 60 60 60 61 60 61 61 59 58 58 59 57 55 49 48 49 52 52 51
40 40 41 42 43 45 47 50 51 49 46 46 48 53 54 56 56 57 58 58 58 59 59 60 60 60 60 60 60 60 60 60 59 58 56 57 57 56 53 50 50 54 54
40 40 41 41 42 43 46 47 50 51 53 50 52 53 53 52 52 54 56 55 54 54 53 54 57 59 59 60 59 60 59 59 60 59 58 56 54 54 53 51 50 49 50
39 39 40 40 41 41 44 45 46 47 49 50 50 50 50 51 50 50 50 51 50 50 49 51 52 53 53 54 55 57 59 59 59 58 58 58 56 55 54 52 51 49 49
39 39 39 39 40 40 41 41 43 44 46 47 47 47 47 46 46 45 45 45 45 45 46 47 48 48 48 50 51 54 54 53 57 59 59 58 58 58 57 56 54 52 51
38 39 39 40 39 40 40 38 36 36 36 39 42 43 43 41 40 39 40 40 40 39 41 42 42 43 44 46 47 49 48 49 51 52 51 54 58 59 59 58 57 54 51
39 39 39 39 39 39 39 39 36 32 31 29 28 30 32 33 34 34 33 34 35 35 35 35 36 37 39 42 44 45 45 46 47 48 47 48 50 51 53 57 57 57 55
39 39 39 39 38 38 38 37 36 34 31 28 28 26 26 29 28 26 26 27 28 28 29 28 29 29 31 34 36 36 38 40 41 43 44 45 47 48 50 50 52 56 56
39 39 38 37 37 36 36 34 34 33 30 29 27 26 26 24 22 21 21 21 22 21 21 22 22 23 24 28 29 31 31 33 34 36 38 41 44 46 47 46 47 48 49
38 38 37 35 35 33 31 31 28 27 25 23 22 22 23 23 23 23 23 21 20 20 18 18 18 20 21 23 25 26 26 28 29 31 34 37 39 40 40 42 45 46 47
35 34 33 30 29 29 26 23 22 22 23 23 23 22 21 21 22 22 21 17 16 16 17 17 17 17 18 18 23 24 24 25 26 27 28 30 34 35 38 39 41 42 43
34 34 32 31 29 27 27 24 22 21 20 20 20 20 19 18 17 16 16 16 16 16 16 16 16 17 18 16 26 26 25 23 23 25 24 27 31 33 38 36 38 39 39
34 31 31 31 30 28 26 25 23 21 21 18 17 16 15 14 15 15 14 14 15 16 16 16 17 17 16 20 25 28 27 24 24 25 27 27 27 28 30 32 35 35 35
33 30 31 31 31 28 26 25 24 22 20 19 17 15 14 14 15 15 15 16 16 17 18 18 19 19 19 21 25 28 28 25 26 27 28 26 24 27 27 29 32 32 33
33 31 31 32 31 28 25 25 25 20 19 18 16 15 15 16 16 17 17 17 18 18 19 20 20 20 21 22 25 28 28 27 27 27 26 25 24 25 29 29 29 29 29
32 31 32 32 31 26 23 24 22 20 19 16 16 17 17 17 17 17 18 19 20 20 21 21 21 22 22 23 25 28 28 27 24 23 22 23 23 23 27 27 27 27 27
32 32 32 30 27 23 22 20 18 18 16 16 18 18 18 18 17 18 19 21 21 21 21 22 22 21 21 22 24 27 26 23 22 22 21 22 22 25 26 26 24 24 24
32 32 31 27 24 22 20 19 18 15 17 18 18 19 18 17 17 18 20 21 21 20 21 19 19 18 19 20 23 26 26 25 25 23 22 22 22 25 25 26 26 26 25
31 30 27 24 22 21 19 18 15 16 17 18 18 16 16 16 16 17 18 18 17 17 17 18 18 19 19 21 22 24 25 25 25 24 24 24 26 27 28 28 27 26 25
28 26 24 22 21 19 17 14 13 16 17 17 15 15 16 16 16 17 17 17 18 19 19 19 20 20 20 21 22 22 23 25 25 26 27 27 26 26 27 27 25 24 25
25 22 21 20 17 15 15 14 16 18 17 16 16 16 17 17 18 18 18 18 19 19 19 19 21 21 21 22 23 24 26 26 26 27 29 27 27 26 25 26 24 24 25
24 21 19 17 14 15 15 16 17 16 16 16 16 17 17 17 17 17 18 19 20 20 21 22 23 22 22 22 22 23 24 25 28 27 27 27 26 26 27 24 24 23 24
22 20 18 16 15 15 16 16 16 18 17 17 17 17 18 18 18 18 19 20 21 22 22 22 22 22 22 22 23 25 25 26 25 24 25 25 25 25 23 23 23 24 24

GFSMW_sfc_30mbdewp_114.txt.gz
Dewpoint
40 41 43 44 44 45 45 46 47 44 38 37 37 36 37 53 60 61 62 60 61 61 61 61 60 57 57 56 58 60 60 61 62 60 60 61 61 61 60 57 55 53 50
40 41 42 42 44 45 46 47 47 48 47 38 39 39 43 55 56 58 61 61 60 61 61 61 60 60 60 60 60 59 60 60 61 59 58 55 57 60 60 60 58 56 55
39 40 41 42 43 44 45 46 48 50 51 44 40 42 46 54 55 57 58 60 61 61 61 60 60 60 60 61 60 60 60 59 59 60 57 55 52 53 57 58 58 57 56
40 39 41 41 42 43 45 47 48 52 52 48 42 43 45 49 53 54 57 60 60 60 62 61 60 60 60 59 60 60 60 59 58 60 60 58 56 52 49 52 56 56 56
39 39 41 42 42 42 44 46 48 49 50 52 48 48 50 50 51 52 55 58 57 57 58 58 60 60 60 59 59 59 59 60 59 58 57 59 58 57 55 52 51 52 53
39 40 41 41 41 42 43 45 45 46 48 50 50 50 50 51 49 50 51 52 51 52 53 55 55 55 55 55 57 58 59 59 59 59 58 57 56 55 55 54 53 52 52
39 40 40 40 40 40 41 41 41 42 46 46 46 46 46 46 47 47 46 46 47 46 47 49 49 49 50 51 51 54 54 53 55 57 58 58 58 57 56 54 53 52 52
38 39 39 40 40 40 40 38 36 35 38 43 44 45 44 43 42 42 42 42 43 42 43 42 43 44 46 47 49 50 49 49 50 51 51 52 55 57 58 56 54 52 53
38 39 39 39 39 39 39 38 36 31 31 29 33 34 38 39 37 36 37 37 36 35 36 36 37 38 41 43 45 46 45 47 47 48 47 48 49 49 51 52 52 54 51
39 39 39 39 39 38 38 38 36 35 31 29 27 27 29 30 30 31 29 29 29 30 30 30 32 31 34 37 39 39 41 40 42 44 44 45 46 47 49 50 49 49 48
39 39 39 39 38 38 36 35 35 32 30 28 28 26 25 25 24 23 23 24 24 23 24 25 26 27 28 32 34 33 34 34 35 37 38 40 43 44 46 44 45 46 47
39 40 39 38 37 35 35 32 32 30 29 27 25 25 25 24 23 23 23 21 20 20 18 18 19 20 22 24 26 27 28 30 32 34 35 35 38 41 40 41 43 44 45
39 40 40 38 35 35 32 31 27 26 24 24 23 22 22 23 22 22 20 17 17 17 18 18 18 18 19 19 24 25 26 26 26 28 30 31 34 36 34 40 38 41 41
38 38 37 36 33 30 26 23 22 22 22 23 22 21 20 19 18 17 17 17 17 17 17 17 18 18 19 20 26 27 28 26 25 26 27 28 30 31 32 37 37 38 37
36 35 35 34 30 29 27 24 22 22 21 20 20 18 16 16 17 17 16 16 17 17 17 18 19 20 19 18 24 27 28 28 26 26 27 28 29 30 30 29 34 35 35
34 34 34 32 31 28 27 25 23 22 21 19 17 17 15 16 16 17 17 17 18 18 19 20 20 20 20 22 24 26 28 28 27 27 28 29 28 28 26 29 32 32 32
34 34 33 31 32 30 27 26 24 22 20 19 18 16 16 16 17 18 19 19 19 19 20 21 21 21 22 23 25 26 28 29 28 28 28 28 26 28 29 29 28 29 28
33 34 32 32 32 29 26 26 25 21 20 19 17 17 17 18 19 19 19 20 20 21 21 22 22 22 23 24 25 26 29 28 28 28 26 26 25 25 25 27 27 28 27
33 33 32 32 31 28 25 25 24 21 20 18 17 18 18 19 19 19 19 20 21 22 22 22 22 23 23 24 24 25 28 28 26 24 23 24 24 25 25 26 26 25 24
32 32 32 32 29 25 24 23 21 19 18 18 18 19 19 19 18 19 19 21 22 22 23 22 23 23 22 24 22 24 27 27 26 25 25 25 24 23 25 26 26 27 26
32 33 31 29 26 22 21 20 19 18 19 19 19 20 19 17 18 18 19 20 21 21 21 21 20 19 20 21 22 24 24 25 25 26 25 24 25 25 26 27 28 28 28
32 32 29 26 22 21 20 20 18 18 17 18 19 17 16 17 17 16 18 18 18 18 19 19 20 21 21 22 22 23 24 25 25 25 26 26 27 28 27 27 27 27 27
31 30 27 23 22 22 19 17 15 16 17 17 16 16 16 17 17 18 18 18 19 19 20 19 19 21 22 22 23 23 23 24 24 25 26 27 29 29 28 28 26 26 24
29 26 24 22 20 18 16 14 17 18 17 16 16 16 17 18 18 18 18 18 19 19 19 20 22 23 22 22 23 22 24 24 25 25 27 30 28 26 26 26 27 26 25
27 23 22 21 19 16 15 16 17 17 16 16 16 16 17 17 18 18 18 19 20 21 21 23 23 21 22 23 24 23 23 23 24 24 26 25 25 25 25 26 26 24 24
24 22 21 19 15 15 15 16 16 17 17 17 17 18 19 18 19 18 19 22 22 22 22 22 23 22 22 22 23 23 23 22 22 23 24 24 25 24 24 25 24 24 24

GFSMW_sfc_30mbdewp_117.txt.gz
Dewpoint
40 42 42 42 43 44 45 45 46 47 49 49 48 40 37 38 43 55 59 60 61 61 61 61 61 61 60 59 59 59 58 58 59 59 59 60 62 61 59 58 55 54 52
40 40 41 42 42 43 43 45 46 48 50 52 52 46 41 43 51 55 56 56 58 59 61 61 60 60 57 57 57 58 59 59 61 57 57 54 57 60 60 60 60 58 57
39 39 40 42 42 42 43 44 46 48 49 50 52 48 45 47 50 52 53 54 56 57 58 60 60 59 58 57 59 59 59 57 59 60 55 55 53 55 58 59 59 59 59
39 39 40 41 41 41 42 44 45 46 48 50 50 50 45 45 50 51 53 55 55 55 55 58 60 60 60 58 59 60 59 59 57 59 59 58 55 52 51 54 57 58 58
39 40 40 41 41 41 42 42 43 44 47 48 47 49 49 50 51 50 51 52 51 50 50 52 58 60 60 60 59 59 59 59 59 58 57 57 58 58 56 53 53 53 55
39 39 40 40 41 41 41 40 40 39 44 46 46 46 46 47 46 46 46 48 47 47 46 48 51 52 54 54 55 57 55 55 58 58 58 57 56 55 55 54 54 54 54
38 39 39 39 40 40 40 39 36 33 34 39 43 43 44 43 42 41 42 42 41 41 42 44 46 48 49 51 52 51 50 51 51 51 52 53 54 55 56 55 54 53 53
38 39 40 39 39 40 40 38 36 32 31 32 34 37 40 39 38 38 37 37 39 38 40 41 41 43 44 45 48 46 47 48 48 46 47 48 49 49 50 50 50 51 53
37 38 39 39 39 38 39 38 35 33 31 29 27 28 29 32 33 34 33 33 33 31 33 34 34 36 37 39 39 42 40 43 45 44 44 44 45 46 48 49 47 47 46
38 38 39 39 39 38 38 37 35 31 30 28 27 26 27 27 26 26 25 27 26 27 26 27 28 29 31 35 35 36 36 36 38 39 39 42 44 44 45 42 43 45 45
38 38 39 39 39 38 37 34 33 30 29 27 25 25 25 25 25 23 22 21 21 21 21 21 22 22 23 29 29 29 30 32 34 35 36 36 37 43 38 39 43 42 43
37 39 40 40 39 37 36 32 30 30 26 28 26 24 24 23 22 20 18 17 17 18 18 19 19 19 20 24 25 26 28 27 27 28 31 31 34 37 35 37 38 39 40
38 38 40 40 38 37 33 31 31 28 24 23 22 21 19 18 17 17 17 17 17 17 17 18 18 19 20 25 26 28 28 29 28 28 29 29 31 30 31 36 36 37 36
38 39 39 39 39 37 34 28 23 22 22 22 21 19 17 16 16 17 17 17 18 18 18 19 20 21 20 23 26 27 28 28 28 28 29 29 29 29 32 30 33 36 36
38 38 38 38 38 36 29 24 22 22 21 20 20 17 16 16 17 17 17 18 19 19 19 20 21 21 20 21 25 27 28 28 27 28 29 28 30 31 27 29 33 32 31
37 37 37 36 33 30 28 25 23 22 21 19 17 17 15 16 17 18 18 19 19 20 20 21 22 22 21 24 26 27 27 28 28 28 28 29 30 28 27 31 30 28 28
36 36 36 35 33 29 28 25 24 22 21 20 18 16 16 17 19 19 20 19 20 21 21 22 22 22 23 26 26 27 28 28 28 28 28 28 26 28 27 29 28 28 26
33 35 35 34 32 30 27 27 25 22 20 19 18 17 18 18 19 19 19 20 21 21 22 22 22 22 22 25 25 26 27 28 28 28 26 25 25 25 27 27 27 27 27
33 33 35 33 32 29 27 26 25 22 20 20 18 18 19 19 20 19 19 20 21 21 21 22 22 22 23 26 25 24 26 27 27 27 25 26 25 26 26 25 26 26 26
32 32 32 32 29 26 26 25 24 22 20 19 19 19 20 19 18 18 18 19 21 21 22 22 22 24 21 24 23 24 25 26 26 26 26 27 26 26 26 26 27 27 27
32 32 31 30 28 25 24 23 22 20 20 19 19 19 19 18 17 18 18 20 19 19 19 20 20 20 22 23 24 24 24 24 25 27 26 26 26 27 27 28 30 28 28
33 32 30 28 24 23 22 21 19 19 19 18 18 18 17 16 17 17 18 18 18 19 19 20 20 20 22 23 23 24 24 24 24 23 24 26 26 26 28 29 29 28 27
32 31 29 24 22 21 21 20 19 17 16 17 16 16 16 17 17 18 18 18 18 19 19 19 20 21 23 23 23 24 24 25 24 24 24 24 25 27 28 27 25 25 26
32 30 27 23 22 21 19 17 16 17 17 16 15 16 16 18 18 18 18 18 18 19 19 20 21 23 23 22 23 24 27 26 25 26 27 28 26 25 25 25 26 26 27
31 28 26 24 22 19 17 15 17 17 16 15 16 16 17 18 18 18 18 19 20 22 22 22 22 23 23 24 24 24 25 24 24 24 26 25 25 24 25 25 25 26 26
29 26 25 23 21 17 16 16 17 16 16 16 16 18 19 19 19 19 19 22 22 23 23 23 23 22 23 23 22 23 21 21 22 22 24 22 24 24 25 25 26 26 25